Date StartTime U_cm/s V_cm/s W_cm/s Ustd_cm/s Vstd_cm/s Wstd_cm/s Uvar_(cm/s)^2 Vvar_(cm/s)^2 Wvar_(cm/s)^2 KE_(m/s)^2 TurbulentKE_(m/s)^2 HorizWindSpeed_cm/s FrictionSpeec_cm/s DragCoef SpeedOfSound_m/s SonicTemperature_C Pressure_mb 
05/29/2014  00:00:00     -116.939      141.767      -26.228       51.849       56.983       35.459     2688.350     3247.027     1257.349        2.083        0.360      183.773       36.084        0.039      339.458       12.804      862.687
05/29/2014  00:01:00      -96.709      150.984      -27.168       77.401       67.039       30.986     5990.963     4494.266      960.103        2.216        0.572      179.301       33.847        0.036      339.418       12.736      862.703
05/29/2014  00:02:00      -86.503      186.315      -19.296       52.508       61.731       40.227     2757.113     3810.697     1618.204        2.538        0.409      205.417       40.575        0.039      339.353       12.625      862.701
05/29/2014  00:03:00      -93.189      160.949      -28.589       44.638       77.051       36.546     1992.542     5936.923     1335.625        2.233        0.463      185.981       34.717        0.035      339.382       12.674      862.717
05/29/2014  00:04:00     -116.097      121.105      -22.745       73.071       90.743       31.129     5339.316     8234.336      968.992        2.160        0.727      167.764       27.987        0.028      339.363       12.642      862.717
05/29/2014  00:05:00      -97.238       78.336      -20.996       67.556       55.270       35.760     4563.808     3054.761     1278.798        1.246        0.445      124.867       25.414        0.041      339.292       12.525      862.718
05/29/2014  00:06:00     -101.892      134.462      -28.987       62.742       84.139       40.431     3936.527     7079.421     1634.668        2.097        0.633      168.707       51.729        0.094      339.308       12.550      862.725
05/29/2014  00:07:00     -144.133      152.049      -27.327       68.059       80.577       56.457     4632.046     6492.628     3187.381        2.947        0.716      209.507       44.642        0.045      339.255       12.461      862.730
05/29/2014  00:08:00     -120.877      123.487      -21.428       55.836       71.807       39.491     3117.622     5156.204     1559.569        2.007        0.492      172.801       37.921        0.048      339.240       12.435      862.731
05/29/2014  00:09:00      -66.465       73.306       -7.741       39.910       52.442       33.116     1592.804     2750.117     1096.665        0.764        0.272       98.951       26.232        0.070      339.321       12.574      862.736
05/29/2014  00:10:00     -150.343      170.381      -34.658       71.036       79.272       37.937     5046.083     6284.051     1439.236        3.280        0.638      227.228       50.200        0.049      339.249       12.450      862.746
05/29/2014  00:11:00     -153.224      158.496      -42.657       72.600       60.626       35.526     5270.756     3675.542     1262.108        3.031        0.510      220.451       27.767        0.016      339.227       12.414      862.756
05/29/2014  00:12:00     -107.763      101.066      -27.897       51.976       42.043       24.868     2701.539     1767.600      618.418        1.385        0.254      147.740       23.101        0.024      339.202       12.373      862.763
05/29/2014  00:13:00      -81.725       93.909      -17.823       54.403       60.755       33.368     2959.679     3691.171     1113.428        1.179        0.388      124.490       34.660        0.078      339.286       12.515      862.780
05/29/2014  00:14:00      -88.780      105.063      -11.499       37.121       50.543       30.442     1377.977     2554.642      926.699        1.195        0.243      137.550       20.270        0.022      339.212       12.390      862.798
05/29/2014  00:15:00      -93.827      135.261      -28.031       62.752       63.255       41.293     3937.829     4001.212     1705.143        1.876        0.482      164.618       35.692        0.047      339.219       12.401      862.803
05/29/2014  00:16:00      -86.459      124.306      -21.883       45.168       50.945       32.058     2040.153     2595.424     1027.721        1.453        0.283      151.418       27.101        0.032      339.204       12.376      862.816
05/29/2014  00:17:00     -113.183      133.532      -31.102       52.655       61.394       32.769     2772.532     3769.251     1073.779        1.961        0.381      175.046       31.030        0.031      339.241       12.438      862.824
05/29/2014  00:18:00      -79.372      126.371      -22.237       55.519       48.414       27.680     3082.395     2343.905      766.161        1.448        0.310      149.230       20.460        0.019      339.240       12.437      862.841
05/29/2014  00:19:00      -98.755      139.003      -25.922       50.930       68.191       32.688     2593.884     4650.052     1068.510        1.903        0.416      170.512       30.839        0.033      339.237       12.430      862.852
05/29/2014  00:20:00     -133.180       71.539      -15.909       61.789       44.091       23.816     3817.876     1943.995      567.218        1.472        0.316      151.178       18.240        0.015      339.278       12.502      862.867
05/29/2014  00:21:00      -78.478       73.644      -11.610       38.930       42.381       27.351     1515.531     1796.115      748.089        0.789        0.203      107.620       14.311        0.018      339.220       12.403      862.870
05/29/2014  00:22:00     -173.719       21.320      -17.118       49.529       65.107       34.145     2453.112     4238.903     1165.867        1.939        0.393      175.022       20.697        0.014      339.366       12.650      862.856
05/29/2014  00:23:00     -139.453       22.964      -18.791       50.993       48.759       32.043     2600.334     2377.470     1026.747        1.316        0.300      141.331       23.348        0.027      339.282       12.508      862.849
05/29/2014  00:24:00     -100.836      -41.311       -8.109       46.338       79.627       33.432     2147.202     6340.490     1117.686        1.077        0.480      108.970       12.812        0.014      339.372       12.659      862.859
05/29/2014  00:25:00     -100.441      -11.310       -2.065       71.147       86.879       36.680     5061.849     7548.035     1345.441        1.209        0.698      101.076       23.417        0.054      339.242       12.439      862.862
05/29/2014  00:26:00      -79.790       17.264       -9.319       77.655       66.011       32.347     6030.361     4357.397     1046.339        0.909        0.572       81.637       30.630        0.141      339.259       12.469      862.874
05/29/2014  00:27:00     -115.396       22.474       -8.580       54.682       45.406       30.719     2990.085     2061.687      943.666        0.994        0.300      117.564       31.318        0.071      339.294       12.528      862.888
05/29/2014  00:28:00     -118.697       25.619      -11.264       72.409       80.151       38.488     5243.057     6424.157     1481.317        1.401        0.657      121.430       37.673        0.096      339.235       12.428      862.907
05/29/2014  00:29:00       -5.972        2.958        5.713       73.886       39.147       35.573     5459.148     1532.499     1265.410        0.417        0.413        6.665       28.807       18.682      339.217       12.400      862.910
05/29/2014  00:30:00      -69.868       79.982       -4.433       44.389       56.062       32.267     1970.356     3142.980     1041.154        0.873        0.308      106.201       28.283        0.071      339.203       12.376      862.926
05/29/2014  00:31:00     -105.389       40.189      -21.128       70.811       82.549       48.623     5014.134     6814.268     2364.234        1.368        0.710      112.792       41.703        0.137      339.290       12.521      862.933
05/29/2014  00:32:00      -45.027       45.302       -6.526       44.250       69.533       37.849     1958.028     4834.798     1432.556        0.617        0.411       63.872       36.862        0.333      339.300       12.538      862.952
05/29/2014  00:33:00      -70.293       40.251      -19.484       26.245       34.408       24.239      688.826     1183.900      587.528        0.470        0.123       81.001       11.751        0.021      339.356       12.633      862.976
05/29/2014  00:34:00      -40.577       34.751        3.989       24.599       28.219       16.203      605.124      796.335      262.542        0.227        0.083       53.424       12.875        0.058      339.254       12.460      862.994
05/29/2014  00:35:00      -61.603       13.959        0.629       65.756       50.207       29.008     4323.789     2520.712      841.473        0.584        0.384       63.165       27.283        0.187      339.292       12.525      863.009
05/29/2014  00:36:00     -123.781       38.893      -11.265       72.077       62.137       35.542     5195.106     3860.958     1263.237        1.364        0.516      129.748       24.390        0.035      339.279       12.504      863.046
05/29/2014  00:37:00     -108.975      123.433      -19.539       60.317       68.064       37.386     3638.176     4632.665     1397.730        1.858        0.483      164.655       36.518        0.049      339.215       12.395      863.057
05/29/2014  00:38:00      -92.020       48.589        1.075       62.568       55.334       32.750     3914.713     3061.883     1072.564        0.944        0.402      104.061       30.687        0.087      339.323       12.577      863.053
05/29/2014  00:39:00     -179.029      170.027      -29.076       76.150       84.827       50.069     5798.878     7195.650     2506.922        3.865        0.775      246.902       45.358        0.034      339.224       12.407      863.052
05/29/2014  00:40:00     -117.466      119.258      -20.906       73.290       73.254       47.398     5371.413     5366.110     2246.562        2.072        0.649      167.394       45.111        0.073      339.250       12.454      863.051
05/29/2014  00:41:00     -149.856      177.280      -29.774       63.520       89.975       48.909     4034.819     8095.558     2392.131        3.464        0.726      232.131       41.503        0.032      339.222       12.403      863.045
05/29/2014  00:42:00     -118.855      165.958      -13.025       55.253       66.101       39.934     3052.845     4369.314     1594.731        2.543        0.451      204.128       30.575        0.022      339.191       12.351      863.035
05/29/2014  00:43:00     -120.309      157.285      -32.082       53.232       52.163       39.812     2833.619     2720.962     1585.010        2.369        0.357      198.022       27.491        0.019      339.163       12.306      863.021
05/29/2014  00:44:00     -127.204      140.987      -25.335       64.264       69.671       49.148     4129.867     4854.067     2415.503        2.405        0.570      189.890       42.542        0.050      339.158       12.297      863.011
05/29/2014  00:45:00     -146.816      179.954      -35.916       81.525       76.642       45.714     6646.261     5874.060     2089.768        3.492        0.731      232.247       43.665        0.035      339.166       12.309      863.010
05/29/2014  00:46:00     -142.923      140.438      -20.142       69.832       74.429       41.840     4876.490     5539.692     1750.567        2.636        0.608      200.374       43.801        0.048      339.180       12.335      863.012
05/29/2014  00:47:00     -120.408       92.577      -13.182       70.976       88.800       38.624     5037.544     7885.495     1491.846        1.883        0.721      151.884       35.977        0.056      339.182       12.338      863.020
05/29/2014  00:48:00     -114.876       98.889      -23.573       66.784       56.155       38.440     4460.163     3153.375     1477.651        1.631        0.455      151.577       43.669        0.083      339.206       12.381      863.020
05/29/2014  00:49:00     -137.950      125.763      -25.628       55.230       65.105       34.334     3050.354     4238.664     1178.815        2.198        0.423      186.672       25.880        0.019      339.182       12.340      863.040
05/29/2014  00:50:00      -98.296      125.465      -17.497       68.875       76.350       35.753     4743.713     5829.318     1278.273        1.878        0.593      159.385       35.725        0.050      339.177       12.330      863.050
05/29/2014  00:51:00      -78.631      149.933      -35.081       64.960       47.175       27.513     4219.833     2225.448      756.953        1.855        0.360      169.301       30.154        0.032      339.169       12.317      863.063
05/29/2014  00:52:00      -47.156       79.787      -12.851       32.080       34.916       24.062     1029.115     1219.151      578.967        0.579        0.141       92.680       21.623        0.054      339.202       12.373      863.067
05/29/2014  00:53:00     -113.463       87.257      -24.184       47.267       79.915       42.572     2234.194     6386.401     1812.414        1.575        0.522      143.135       37.444        0.068      339.150       12.284      863.080
05/29/2014  00:54:00     -134.936      135.866      -25.387       73.886       77.047       48.913     5459.179     5936.263     2392.503        2.555        0.689      191.487       53.295        0.077      339.138       12.264      863.088
05/29/2014  00:55:00     -111.204      118.499      -23.367       35.911       40.935       25.271     1289.578     1675.652      638.648        1.528        0.180      162.507       22.581        0.019      339.168       12.317      863.096
05/29/2014  00:56:00      -74.308       73.624      -19.146       59.516       39.980       24.542     3542.195     1598.381      602.322        0.852        0.287      104.605       27.971        0.072      339.205       12.378      863.090
05/29/2014  00:57:00     -131.532      169.865      -38.302       61.340       57.892       33.560     3762.627     3351.487     1126.244        2.793        0.412      214.836       35.583        0.027      339.156       12.294      863.081
05/29/2014  00:58:00     -132.610      137.536      -37.195       42.583       51.350       34.007     1813.352     2636.844     1156.442        2.174        0.280      191.054       29.812        0.024      339.263       12.474      863.090
05/29/2014  00:59:00     -138.993      133.045      -38.969       46.006       61.298       26.723     2116.520     3757.397      714.122        2.256        0.329      192.406       24.592        0.016      339.201       12.371      863.091
05/29/2014  01:00:00     -157.476      163.343      -39.694       52.600       57.703       29.883     2766.726     3329.657      893.013        3.002        0.349      226.891       28.789        0.016      339.174       12.323      863.093
05/29/2014  01:01:00     -135.860      130.608      -27.872       68.288       65.245       35.826     4663.257     4256.903     1283.504        2.325        0.510      188.458       35.586        0.036      339.209       12.384      863.095
05/29/2014  01:02:00     -137.568      154.518      -30.608       42.862       61.230       35.667     1837.111     3749.136     1272.141        2.530        0.343      206.884       29.957        0.021      339.216       12.396      863.102
05/29/2014  01:03:00     -127.538      119.726      -20.481       50.727       84.994       36.320     2573.258     7223.919     1319.151        2.107        0.556      174.929       30.529        0.030      339.226       12.413      863.095
05/29/2014  01:04:00     -147.708      140.755      -33.120       62.174       82.142       39.013     3865.561     6747.382     1522.032        2.743        0.607      204.033       37.657        0.034      339.218       12.397      863.114
05/29/2014  01:05:00      -98.830      115.371      -10.153       58.150       67.948       39.370     3381.475     4616.934     1549.965        1.636        0.477      151.913       27.884        0.034      339.230       12.419      863.125
05/29/2014  01:06:00     -108.556       81.469      -17.706       55.548       47.763       30.228     3085.564     2281.271      913.725        1.251        0.314      135.726       24.084        0.031      339.225       12.411      863.133
05/29/2014  01:07:00     -136.207       93.453      -16.118       43.070       55.627       37.778     1855.020     3094.375     1427.160        1.696        0.319      165.184       14.666        0.008      339.312       12.559      863.150
05/29/2014  01:08:00     -154.259      116.153      -31.880       80.912       65.355       34.538     6546.817     4271.335     1192.894        2.515        0.601      193.099       43.544        0.051      339.241       12.438      863.157
05/29/2014  01:09:00      -94.485      113.621      -16.345       42.342       41.212       27.884     1792.827     1698.394      777.508        1.319        0.213      147.774       21.602        0.021      339.193       12.358      863.156
05/29/2014  01:10:00      -91.226      104.863      -21.787       49.093       55.153       32.193     2410.131     3041.907     1036.379        1.314        0.324      138.991       23.494        0.029      339.147       12.281      863.168
05/29/2014  01:11:00      -84.306       84.872       -4.248       42.310       31.198       26.721     1790.124      973.340      714.017        0.890        0.174      119.628       24.840        0.043      339.155       12.294      863.178
05/29/2014  01:12:00      -87.283       45.229       -7.589       70.343       47.245       35.746     4948.070     2232.078     1277.763        0.909        0.423       98.305       36.453        0.138      339.194       12.359      863.174
05/29/2014  01:13:00     -106.695       89.937      -18.732       67.945       49.467       34.494     4616.546     2446.941     1189.859        1.404        0.413      139.544       32.562        0.054      339.197       12.365      863.162
05/29/2014  01:14:00      -95.538      -15.678      -14.881       44.662       40.171       26.354     1994.718     1613.729      694.514        0.695        0.215       96.816       26.265        0.074      339.217       12.399      863.161
05/29/2014  01:15:00      -50.359       29.821       -5.930       61.985       43.633       31.477     3842.156     1903.878      990.791        0.510        0.337       58.526       24.495        0.175      339.129       12.250      863.171
05/29/2014  01:16:00      -87.123       58.849      -13.881       44.612       48.262       32.412     1990.221     2329.213     1050.569        0.831        0.269      105.136       20.956        0.040      339.162       12.306      863.178
05/29/2014  01:17:00      -54.070       15.016       -2.848       37.508       46.730       21.299     1406.837     2183.690      453.668        0.360        0.202       56.116       14.153        0.064      339.331       12.592      863.172
05/29/2014  01:18:00      -88.628       85.340      -17.213       39.629       47.118       28.144     1570.464     2220.139      792.065        1.001        0.229      123.036       24.912        0.041      339.101       12.203      863.179
05/29/2014  01:19:00      -79.423       -2.401       -7.770       28.361       23.421       20.062      804.340      548.554      402.491        0.406        0.088       79.460       19.736        0.062      339.084       12.176      863.175
05/29/2014  01:20:00      -55.454      -10.846       -5.753       34.696       22.189       14.180     1203.789      492.362      201.079        0.256        0.095       56.505       10.932        0.037      339.193       12.359      863.164
05/29/2014  01:21:00      -51.518        0.221        4.002       40.248       30.533       17.496     1619.936      932.255      306.108        0.276        0.143       51.519       18.351        0.127      339.179       12.335      863.177
05/29/2014  01:22:00      -81.423      114.025      -27.294       50.790       79.007       34.984     2579.599     6242.084     1223.887        1.521        0.502      140.112       25.142        0.032      339.120       12.235      863.183
05/29/2014  01:23:00      -34.237       98.223       -7.884       37.267       68.980       35.173     1388.807     4758.182     1237.108        0.913        0.369      104.019       34.029        0.107      339.099       12.200      863.187
05/29/2014  01:24:00      -82.900       99.242      -22.363       37.082       39.094       27.410     1375.081     1528.318      751.297        1.044        0.183      129.311       19.869        0.024      339.041       12.103      863.172
05/29/2014  01:25:00      -59.149       52.479        1.955       30.590       80.556       29.052      935.762     6489.246      844.040        0.726        0.413       79.073       21.125        0.071      339.081       12.169      863.172
05/29/2014  01:26:00      -53.372      -11.149        7.122       37.181       44.131       20.772     1382.404     1947.549      431.470        0.339        0.188       54.524       20.452        0.141      339.129       12.250      863.167
05/29/2014  01:27:00      -99.429      144.346      -37.791       47.353       51.135       25.737     2242.350     2614.740      662.414        1.883        0.276      175.277       23.522        0.018      339.108       12.214      863.186
05/29/2014  01:28:00      -75.454      130.713      -20.327       40.677       44.092       27.742     1654.624     1944.141      769.605        1.378        0.218      150.928       21.941        0.021      339.063       12.138      863.194
05/29/2014  01:29:00      -59.077       35.242       13.373       57.045       68.983       39.852     3254.117     4758.645     1588.174        0.725        0.480       68.790       37.735        0.301      339.121       12.238      863.195
05/29/2014  01:30:00      -34.639       78.099      -11.951       33.411       63.173       26.533     1116.288     3990.830      703.990        0.663        0.291       85.436       23.996        0.079      339.059       12.134      863.184
05/29/2014  01:31:00      -76.337       25.785        3.617       47.938       45.582       22.793     2298.031     2077.746      519.506        0.570        0.245       80.574       23.053        0.082      339.223       12.409      863.182
05/29/2014  01:32:00     -154.764       49.301      -20.198       50.654       58.506       40.031     2565.855     3422.955     1602.480        1.719        0.380      162.427       22.730        0.020      339.100       12.200      863.183
05/29/2014  01:33:00      -82.772      104.600      -17.292       52.093       74.264       35.189     2713.725     5515.104     1238.270        1.378        0.473      133.388       43.934        0.108      339.011       12.051      863.176
05/29/2014  01:34:00      -57.777       68.965       -6.570       43.445       46.317       26.805     1887.480     2145.234      718.506        0.644        0.238       89.969       19.253        0.046      339.081       12.169      863.161
05/29/2014  01:35:00      -68.492      143.339      -15.993       68.900       76.438       44.004     4747.176     5842.769     1936.396        1.901        0.626      158.862       45.498        0.082      339.053       12.123      863.159
05/29/2014  01:36:00      -79.719      150.205      -22.242       48.060       54.916       27.064     2309.811     3015.776      732.449        1.773        0.303      170.049       11.991        0.005      338.978       11.996      863.145
05/29/2014  01:37:00      -80.923      116.525       -9.407       46.765       73.734       27.506     2186.966     5436.740      756.577        1.430        0.419      141.869       24.535        0.030      338.998       12.030      863.127
05/29/2014  01:38:00      -96.739      131.875      -20.138       60.529       73.143       33.102     3663.724     5349.857     1095.773        1.863        0.505      163.553       24.154        0.022      338.970       11.983      863.115
05/29/2014  01:39:00     -134.236      105.980      -13.386       62.648       88.959       43.500     3924.777     7913.663     1892.290        2.158        0.687      171.029       44.225        0.067      338.976       11.991      863.108
05/29/2014  01:40:00      -67.518      121.803      -12.397       43.771       51.572       31.974     1915.867     2659.625     1022.358        1.257        0.280      139.265       29.578        0.045      338.874       11.822      863.115
05/29/2014  01:41:00     -130.006      138.484      -25.184       58.647       74.996       42.772     3439.426     5624.356     1829.465        2.380        0.545      189.946       42.252        0.049      338.962       11.968      863.112
05/29/2014  01:42:00     -126.195      115.666      -27.823       44.633       69.949       37.216     1992.085     4892.910     1385.038        1.917        0.414      171.184       34.075        0.040      339.017       12.061      863.102
05/29/2014  01:43:00     -115.605       88.011      -15.792       45.826       51.063       28.340     2100.012     2607.388      803.148        1.343        0.276      145.294       19.850        0.019      338.982       12.005      863.091
05/29/2014  01:44:00     -161.831      228.237      -54.759       53.881       95.861       38.309     2903.146     9189.362     1467.599        4.742        0.678      279.788       36.865        0.017      338.900       11.862      863.092
05/29/2014  01:45:00     -128.504      112.494      -24.660       51.355       52.375       34.770     2637.342     2743.110     1208.933        1.818        0.329      170.787       27.803        0.027      338.951       11.951      863.091
05/29/2014  01:46:00      -91.053      173.278      -25.566       62.254       73.966       38.301     3875.562     5470.986     1467.001        2.489        0.541      195.744       45.892        0.055      338.902       11.867      863.104
05/29/2014  01:47:00     -116.563       93.395      -29.936       74.368       67.932       29.100     5530.595     4614.755      846.793        1.710        0.550      149.364       21.448        0.021      338.991       12.017      863.104
05/29/2014  01:48:00     -118.257       80.634      -10.012       62.087       49.177       32.645     3854.798     2418.340     1065.703        1.396        0.367      143.132       32.078        0.050      338.980       11.999      863.101
05/29/2014  01:49:00      -68.588       72.984      -13.473       34.426       39.076       26.796     1185.161     1526.939      718.042        0.682        0.172      100.155       27.537        0.076      338.962       11.968      863.087
05/29/2014  01:50:00     -131.238      110.000      -25.356       46.400       50.442       30.363     2152.959     2544.359      921.912        1.779        0.281      171.241       27.391        0.026      339.028       12.082      863.093
05/29/2014  01:51:00     -160.457      150.732      -38.060       60.529       51.831       37.963     3663.815     2686.501     1441.156        2.885        0.390      220.151       35.685        0.026      338.943       11.937      863.092
05/29/2014  01:52:00     -115.471       95.860      -17.453       70.763       77.710       42.268     5007.425     6038.832     1786.543        1.783        0.642      150.075       39.818        0.070      338.910       11.880      863.065
05/29/2014  01:53:00     -151.712      122.346      -34.981       40.940       42.734       35.179     1676.113     1826.166     1237.593        2.197        0.237      194.898       25.564        0.017      339.000       12.033      863.048
05/29/2014  01:54:00     -120.192      113.512      -22.437       40.643       61.093       31.240     1651.860     3732.343      975.939        1.710        0.318      165.321       33.540        0.041      338.880       11.831      863.043
05/29/2014  01:55:00     -137.514       92.608      -25.842       49.312       60.993       36.417     2431.630     3720.123     1326.222        1.781        0.374      165.790       20.770        0.016      338.917       11.893      863.041
05/29/2014  01:56:00      -92.020       48.724      -10.585       43.978       37.664       31.757     1934.026     1418.543     1008.523        0.766        0.218      104.123       20.928        0.040      339.001       12.036      863.035
05/29/2014  01:57:00     -118.842      143.872      -34.875       53.389       59.302       31.927     2850.435     3516.706     1019.303        2.171        0.369      186.608       35.027        0.035      338.881       11.831      863.046
05/29/2014  01:58:00     -111.138       84.440      -10.736       54.103       61.846       41.073     2927.111     3824.964     1686.977        1.402        0.422      139.577       41.441        0.088      338.872       11.818      863.049
05/29/2014  01:59:00     -131.581      110.498      -28.989       58.562       50.838       33.472     3429.559     2584.527     1120.384        1.875        0.357      171.824       35.202        0.042      338.794       11.686      863.045
05/29/2014  02:00:00     -133.873       79.205      -26.310       50.684       46.754       28.662     2568.849     2185.943      821.518        1.523        0.279      155.549       20.335        0.017      338.916       11.892      863.048
05/29/2014  02:01:00     -153.667       91.507      -31.149       45.066       45.460       26.988     2030.927     2066.582      728.372        1.889        0.241      178.849       21.885        0.015      338.835       11.756      863.043
05/29/2014  02:02:00      -92.605      110.788      -23.661       56.664       81.260       33.509     3210.783     6603.141     1122.840        1.617        0.547      144.394       44.795        0.096      338.741       11.598      863.043
05/29/2014  02:03:00     -128.380       44.776      -18.789       39.667       51.471       26.639     1573.511     2649.258      709.641        1.188        0.247      135.964       18.921        0.019      339.034       12.092      863.041
05/29/2014  02:04:00     -119.409      114.128      -22.376       77.434       84.302       38.917     5996.038     7106.871     1514.515        2.120        0.731      165.178       20.126        0.015      338.769       11.645      863.043
05/29/2014  02:05:00     -113.483       89.555      -14.842       61.588       53.312       33.694     3793.139     2842.128     1135.260        1.444        0.389      144.563       36.334        0.063      338.670       11.476      863.042
05/29/2014  02:06:00     -124.913       91.043      -17.928       58.126       65.592       36.571     3378.641     4302.268     1337.433        1.661        0.451      154.571       30.509        0.039      338.727       11.574      863.042
05/29/2014  02:07:00      -90.208       78.191       -9.552       65.590       81.658       51.720     4302.003     6668.029     2674.911        1.399        0.682      119.379       51.931        0.189      338.678       11.491      863.049
05/29/2014  02:08:00     -186.126       62.523      -35.688       64.539       46.338       31.392     4165.322     2147.175      985.452        2.356        0.365      196.346       33.620        0.029      338.753       11.617      863.043
05/29/2014  02:09:00      -80.807       -0.402       -8.177       46.151       43.604       22.945     2129.947     1901.334      526.480        0.558        0.228       80.808       23.219        0.083      338.667       11.474      863.029
05/29/2014  02:10:00      -67.493      -17.865       -1.578       53.581       31.074       27.178     2870.974      965.600      738.648        0.473        0.229       69.817       26.791        0.147      338.621       11.396      863.024
05/29/2014  02:11:00      -24.907        1.284        3.569       33.826       21.787       19.321     1144.179      474.663      373.295        0.131        0.100       24.940       19.452        0.608      338.585       11.335      863.029
05/29/2014  02:12:00     -128.842      -18.142      -13.721       55.933       47.902       21.455     3128.500     2294.565      460.327        1.150        0.294      130.113       20.591        0.025      338.817       11.725      863.018
05/29/2014  02:13:00      -93.387      -52.334        0.594       59.390       54.886       32.632     3527.134     3012.506     1064.815        0.953        0.380      107.052       30.383        0.081      338.583       11.334      863.013
05/29/2014  02:14:00      -33.515      -29.275       15.774       70.202       40.892       27.711     4928.329     1672.131      767.906        0.480        0.368       44.501       24.652        0.307      338.502       11.196      863.000
05/29/2014  02:15:00      -56.805      -41.381        2.526       36.478       39.092       21.407     1330.659     1528.152      458.249        0.413        0.166       70.279       21.228        0.091      338.462       11.129      863.001
05/29/2014  02:16:00     -125.400      -49.248      -10.208       33.673       35.876       20.056     1133.899     1287.085      402.261        1.054        0.141      134.724       13.271        0.010      338.411       11.044      863.006
05/29/2014  02:17:00      -40.703      -38.638       -2.811       62.397       36.620       22.125     3893.363     1340.991      489.535        0.444        0.286       56.122       20.681        0.136      338.536       11.253      863.019
05/29/2014  02:18:00     -134.072      -73.203      -14.731       44.818       42.061       29.122     2008.639     1769.114      848.089        1.409        0.231      152.755       22.829        0.022      338.539       11.258      863.020
05/29/2014  02:19:00      -78.790      -10.726      -11.603       26.221       34.507       18.101      687.517     1190.756      327.654        0.433        0.110       79.516       11.805        0.022      338.511       11.212      863.041
05/29/2014  02:20:00     -105.007      -56.664       -5.416       41.404       38.089       23.332     1714.293     1450.772      544.359        0.899        0.185      119.320       19.319        0.026      338.452       11.113      863.039
05/29/2014  02:21:00      -41.329       11.921       -6.851       24.081       29.968       12.507      579.893      898.071      156.417        0.177        0.082       43.014        7.077        0.027      338.585       11.336      863.046
05/29/2014  02:22:00      -50.508        4.652       -5.997       23.263       32.509       15.113      541.183     1056.866      228.396        0.222        0.091       50.722       13.776        0.074      338.588       11.341      863.050
05/29/2014  02:23:00      -50.008      -37.967        0.913       56.593       33.946       24.623     3202.739     1152.318      606.269        0.445        0.248       62.788       32.618        0.270      338.518       11.223      863.047
05/29/2014  02:24:00      -84.768      -19.316       -2.302       37.238       37.912       22.459     1386.635     1437.287      504.403        0.545        0.166       86.941       16.273        0.035      338.410       11.042      863.046
05/29/2014  02:25:00      -88.069      -26.236      -10.512       37.448       35.582       24.896     1402.336     1266.044      619.832        0.592        0.164       91.894       24.181        0.069      338.540       11.262      863.044
05/29/2014  02:26:00     -111.622      -54.164       -6.342       39.317       28.807       24.018     1545.862      829.827      576.864        0.919        0.148      124.069       14.516        0.014      338.444       11.099      863.028
05/29/2014  02:27:00      -78.386      -26.757        4.102       65.343       44.105       31.681     4269.663     1945.250     1003.693        0.705        0.361       82.827       28.778        0.121      338.453       11.115      863.030
05/29/2014  02:28:00     -116.236      -42.218       -6.276       39.669       38.696       23.381     1573.657     1497.385      546.682        0.947        0.181      123.665       16.855        0.019      338.426       11.068      863.038
05/29/2014  02:29:00      -65.129      -20.978       -0.140       36.230       20.962       16.568     1312.598      439.396      274.485        0.335        0.101       68.424       13.226        0.037      338.365       10.968      863.042
05/29/2014  02:30:00      -46.745      -30.875       -8.980       30.631       21.986       15.944      938.240      483.395      254.218        0.245        0.084       56.021       15.512        0.077      338.363       10.964      863.040
05/29/2014  02:31:00      -65.557      -21.882       -2.190       57.673       34.921       21.338     3326.146     1219.454      455.328        0.489        0.250       69.112       20.642        0.089      338.386       11.001      863.045
05/29/2014  02:32:00     -103.433      -31.831       -6.107       33.117       24.905       16.766     1096.758      620.254      281.112        0.687        0.100      108.220        8.531        0.006      338.278       10.820      863.049
05/29/2014  02:33:00     -104.683      -41.975       -8.130       23.806       21.977       15.515      566.714      482.967      240.727        0.704        0.065      112.785       13.287        0.014      338.232       10.742      863.043
05/29/2014  02:34:00     -125.997      -45.070      -10.689       39.466       36.062       20.176     1557.576     1300.438      407.086        1.064        0.163      133.816       19.002        0.020      338.174       10.646      863.043
05/29/2014  02:35:00     -111.790        2.348      -12.477       43.884       45.134       26.377     1925.848     2037.095      695.724        0.866        0.233      111.814       22.690        0.041      338.278       10.819      863.039
05/29/2014  02:36:00     -106.601      -38.415       -7.171       59.183       40.206       19.712     3502.637     1616.561      388.561        0.920        0.275      113.312       14.454        0.016      338.404       11.032      863.033
05/29/2014  02:37:00     -102.540      -61.080        0.896       60.001       40.671       29.898     3600.148     1654.091      893.916        1.020        0.307      119.353       27.751        0.054      338.138       10.586      863.027
05/29/2014  02:38:00      -89.994      -54.302       -3.786       48.350       44.437       20.448     2337.747     1974.623      418.125        0.790        0.237      105.108       22.456        0.046      338.119       10.553      863.018
05/29/2014  02:39:00      -66.491      -66.155        3.204       46.662       39.114       28.405     2177.347     1529.941      806.863        0.666        0.226       93.795       24.342        0.067      338.145       10.598      863.011
05/29/2014  02:40:00      -93.742      -43.340       -7.030       71.037       54.171       28.416     5046.221     2934.508      807.497        0.975        0.439      103.276       29.965        0.084      338.075       10.480      863.006
05/29/2014  02:41:00      -44.402      -30.418        9.109       57.183       38.754       24.238     3269.845     1501.854      587.461        0.417        0.268       53.822       27.205        0.255      338.118       10.552      863.003
05/29/2014  02:42:00       -9.430      -24.877       12.220       38.770       15.487       22.459     1503.098      239.840      504.403        0.155        0.112       26.604       23.846        0.803      338.142       10.592      863.012
05/29/2014  02:43:00      -74.129      -30.181       -0.320       44.175       31.679       20.830     1951.468     1003.578      433.889        0.490        0.169       80.037       20.775        0.067      338.113       10.544      863.017
05/29/2014  02:44:00      -45.950      -32.958        2.878       63.105       25.459       26.285     3982.289      648.164      690.920        0.426        0.266       56.548       25.326        0.201      338.203       10.694      863.014
05/29/2014  02:45:00     -104.988      -16.205      -13.086       39.986       28.859       21.920     1598.852      832.820      480.499        0.718        0.146      106.232       20.720        0.038      338.179       10.656      863.022
05/29/2014  02:46:00      -89.461      -30.571       -6.851       41.323       37.102       21.737     1707.569     1376.581      472.476        0.627        0.178       94.541       14.036        0.022      338.195       10.683      863.025
05/29/2014  02:47:00      -75.916      -52.495       -6.008       50.205       34.026       24.239     2520.584     1157.764      587.528        0.641        0.213       92.299       22.747        0.061      338.068       10.468      863.029
05/29/2014  02:48:00      -73.351      -41.909        6.703       67.393       30.852       31.684     4541.829      951.839     1003.866        0.684        0.325       84.479       36.968        0.191      337.984       10.329      863.038
05/29/2014  02:49:00      -23.259      -42.819       -6.266       61.149       42.909       30.749     3739.160     1841.190      945.495        0.447        0.326       48.729       26.800        0.302      338.080       10.488      863.041
05/29/2014  02:50:00     -101.447      -30.151       -2.263       25.426       38.823       17.948      646.504     1507.190      322.117        0.684        0.124      105.833       11.161        0.011      338.064       10.461      863.045
05/29/2014  02:51:00      -59.488      -28.828       -3.422       42.723       25.389       23.524     1825.212      644.595      553.378        0.370        0.151       66.105       19.313        0.085      338.108       10.536      863.042
05/29/2014  02:52:00     -100.436      -56.823       -8.474       54.663       49.706       22.241     2988.014     2470.729      494.671        0.967        0.298      115.396       23.163        0.040      338.185       10.665      863.053
05/29/2014  02:53:00      -31.335      -45.901       14.169       60.072       39.348       28.633     3608.653     1548.281      819.875        0.463        0.299       55.577       34.422        0.384      338.180       10.657      863.057
05/29/2014  02:54:00      -94.749      -38.286       -4.597       33.485       25.779       19.008     1121.252      664.563      361.299        0.631        0.107      102.192        8.673        0.007      338.193       10.678      863.065
05/29/2014  02:55:00      -67.377      -32.473        6.528       39.122       29.998       21.519     1530.518      899.855      463.075        0.426        0.145       74.794       21.836        0.085      338.178       10.654      863.071
05/29/2014  02:56:00      -39.363      -40.645       10.713       51.090       29.650       24.343     2610.185      879.148      592.568        0.370        0.204       56.581       29.633        0.274      338.253       10.779      863.072
05/29/2014  02:57:00      -97.167      -13.735       -7.554       29.003       33.595       15.802      841.151     1128.646      249.717        0.595        0.111       98.133       15.124        0.024      338.246       10.768      863.066
05/29/2014  02:58:00      -92.462      -38.260      -10.156       24.222       19.025       15.618      586.703      361.959      243.910        0.565        0.060      100.065       11.794        0.014      338.212       10.708      863.049
05/29/2014  02:59:00      -78.927      -45.117       -2.880       28.111       22.580       13.769      790.222      509.842      189.582        0.488        0.074       90.912       11.828        0.017      338.167       10.636      863.038
05/29/2014  03:00:00      -65.548      -35.435        3.153       47.496       20.727       18.393     2255.829      429.610      338.298        0.429        0.151       74.513       24.354        0.107      338.141       10.591      863.038
05/29/2014  03:01:00      -37.088      -23.338        2.910       35.933       18.611       15.228     1291.159      346.365      231.902        0.190        0.093       43.820       19.709        0.202      338.207       10.702      863.025
05/29/2014  03:02:00      -14.882       -5.897        5.646       25.838       15.242       12.502      667.584      232.310      156.290        0.067        0.053       16.008        9.825        0.377      338.157       10.618      863.027
05/29/2014  03:03:00      -43.447      -11.141       -2.519       20.950       26.097       11.697      438.883      681.034      136.824        0.164        0.063       44.853        7.986        0.032      338.231       10.742      863.027
05/29/2014  03:04:00       -1.896      -22.135       -6.186        6.412       14.223        5.387       41.111      202.302       29.021        0.040        0.014       22.217        3.136        0.020      338.066       10.469      863.034
05/29/2014  03:05:00        5.078       -5.339       -0.777       13.267       11.081       11.988      176.008      122.792      143.716        0.025        0.022        7.368       10.304        1.956      338.098       10.520      863.042
05/29/2014  03:06:00        4.252        6.332        1.726        5.989        5.082        6.809       35.866       25.826       46.365        0.008        0.005        7.627        2.565        0.113      338.050       10.439      863.053
05/29/2014  03:07:00        4.374        8.863       17.661       15.313       22.958       14.347      234.488      527.068      205.847        0.069        0.048        9.884       14.368        2.113      337.973       10.308      863.059
05/29/2014  03:08:00       14.588       28.392       35.441       21.084       22.922       17.419      444.544      525.433      303.436        0.177        0.064       31.920       13.508        0.179      337.905       10.194      863.059
05/29/2014  03:09:00       21.816       38.352       38.342       28.538       20.365       19.552      814.444      414.752      382.292        0.251        0.081       44.122       19.576        0.197      337.918       10.217      863.065
05/29/2014  03:10:00        0.168       22.876       37.531       14.374       20.188       13.179      206.607      407.555      173.676        0.136        0.039       22.876        9.310        0.166      337.883       10.158      863.061
05/29/2014  03:11:00        0.101       28.343       40.399       11.829       17.316        9.147      139.921      299.853       83.673        0.148        0.026       28.343       10.189        0.129      337.843       10.091      863.063
05/29/2014  03:12:00        1.823       13.895       15.273       14.312       15.954        9.993      204.832      254.515       99.858        0.049        0.028       14.014       11.646        0.691      337.860       10.119      863.049
05/29/2014  03:13:00       -4.752        9.155       23.921        6.984       11.270        7.535       48.778      127.003       56.770        0.046        0.012       10.315        2.954        0.082      337.888       10.166      863.036
05/29/2014  03:14:00       -2.894       20.163       22.517        9.559        9.304        8.223       91.380       86.572       67.614        0.058        0.012       20.369        6.925        0.116      337.896       10.180      863.017
05/29/2014  03:15:00      -53.837       -2.608        1.013       23.129       17.297       13.313      534.939      299.172      177.225        0.196        0.051       53.900       13.811        0.066      338.050       10.438      863.010
05/29/2014  03:16:00      -44.461      -39.629        0.899       32.720       19.477       13.593     1070.608      379.338      184.773        0.259        0.082       59.559       15.129        0.065      337.988       10.335      863.008
05/29/2014  03:17:00      -42.894      -31.837        3.612       34.400       23.001       21.717     1183.368      529.027      471.614        0.252        0.109       53.418       19.356        0.131      337.927       10.232      863.006
05/29/2014  03:18:00      -66.674      -19.629       -6.962       16.004       18.815       12.111      256.113      354.000      146.681        0.282        0.038       69.504        8.269        0.014      337.944       10.261      863.009
05/29/2014  03:19:00      -16.553       -4.022      -11.386       14.697        6.753        9.559      216.000       45.607       91.379        0.039        0.018       17.035        5.977        0.123      337.954       10.278      863.018
05/29/2014  03:20:00        8.963       20.078        9.181       13.517        8.394       10.302      182.699       70.455      106.126        0.046        0.018       21.988        3.741        0.029      337.953       10.277      863.025
05/29/2014  03:21:00       26.717       14.983        1.708       18.334       10.855       10.283      336.121      117.820      105.745        0.075        0.028       30.632        5.195        0.029      337.947       10.266      863.043
05/29/2014  03:22:00       11.888        9.621        1.066       11.111        8.309        7.529      123.451       69.038       56.681        0.024        0.012       15.293        5.913        0.149      337.942       10.257      863.058
05/29/2014  03:23:00       14.180       13.108       -0.568        6.345        6.803        6.666       40.259       46.274       44.432        0.025        0.007       19.311        3.172        0.027      337.939       10.254      863.073
05/29/2014  03:24:00       13.357       14.061       -5.378        8.729        4.991        4.854       76.199       24.912       23.560        0.026        0.006       19.394        2.287        0.014      337.949       10.268      863.086
05/29/2014  03:25:00       -0.474        5.203        1.511        6.256       12.361        6.500       39.139      152.786       42.256        0.013        0.012        5.225        6.079        1.354      337.906       10.196      863.085
05/29/2014  03:26:00      -12.263        4.202       10.735       12.003       12.483       10.137      144.076      155.830      102.749        0.034        0.020       12.963        1.863        0.021      337.803       10.025      863.067
05/29/2014  03:27:00       -6.542       16.539        7.485       22.522       14.473       15.020      507.237      209.473      225.593        0.066        0.047       17.786        9.335        0.275      337.800       10.017      863.053
05/29/2014  03:28:00      -28.392        0.508       10.290       25.726       20.286       10.888      661.833      411.541      118.547        0.105        0.060       28.396        7.932        0.078      337.670        9.802      863.042
05/29/2014  03:29:00       -8.453       -1.920        6.268       17.089       10.018        9.170      292.039      100.356       84.085        0.030        0.024        8.669        9.558        1.216      337.628        9.731      863.038
05/29/2014  03:30:00      -16.877      -20.824       -2.320       24.253       13.341       15.419      588.228      177.978      237.736        0.086        0.050       26.804       13.645        0.259      337.703        9.857      863.032
05/29/2014  03:31:00      -31.327      -39.569       -3.320       33.402       19.963       17.607     1115.725      398.515      309.993        0.219        0.091       50.468       12.702        0.063      337.644        9.758      863.023
05/29/2014  03:32:00      -23.862      -35.523        5.350       31.550       16.233       12.992      995.417      263.498      168.787        0.164        0.071       42.794       15.005        0.123      337.642        9.753      863.010
05/29/2014  03:33:00      -82.674      -39.470       -2.624       26.620       21.117       13.370      708.602      445.917      178.752        0.487        0.067       91.613       10.658        0.014      337.496        9.511      863.002
05/29/2014  03:34:00      -53.463      -43.369        6.324       42.325       20.554       20.547     1791.385      422.483      422.167        0.371        0.132       68.841       25.475        0.137      337.489        9.496      862.999
05/29/2014  03:35:00      -93.101      -39.584      -14.402       20.866       19.543       13.951      435.381      381.927      194.618        0.573        0.051      101.167        9.537        0.009      337.446        9.425      863.001
05/29/2014  03:36:00      -72.459      -40.777      -15.850       14.093        7.146        7.924      198.611       51.061       62.785        0.374        0.016       83.145        4.820        0.003      337.459        9.448      862.992
05/29/2014  03:37:00      -12.480      -21.559        8.607       23.767       20.459       16.053      564.893      418.576      257.684        0.097        0.062       24.911       13.017        0.273      337.499        9.515      862.983
05/29/2014  03:38:00      -32.535      -31.825        9.794       39.074       31.518       14.991     1526.777      993.382      224.743        0.246        0.137       45.512       19.588        0.185      337.417        9.376      862.983
05/29/2014  03:39:00      -70.654      -21.620        1.148       42.011       38.238       22.184     1764.925     1462.120      492.143        0.459        0.186       73.888       21.319        0.083      337.373        9.304      862.984
05/29/2014  03:40:00     -108.429       -6.807      -14.539       27.698       22.627       18.813      767.176      511.962      353.929        0.682        0.082      108.642       17.505        0.026      337.358        9.278      862.988
05/29/2014  03:41:00      -65.776      -39.289       -1.932       11.145       12.729        7.600      124.212      162.038       57.766        0.311        0.017       76.617        5.357        0.005      337.343        9.253      862.992
05/29/2014  03:42:00      -72.641      -31.304       -3.324       19.077       15.255       11.602      363.926      232.725      134.616        0.350        0.037       79.099        8.785        0.012      337.368        9.296      862.997
05/29/2014  03:43:00      -69.165       -9.977      -12.425       15.975       24.830       12.438      255.197      616.523      154.709        0.303        0.051       69.881        6.255        0.008      337.354        9.272      863.005
05/29/2014  03:44:00      -31.041      -28.656       -0.076       18.973       14.013       12.693      359.969      196.360      161.125        0.125        0.036       42.246       10.385        0.060      337.337        9.241      863.016
05/29/2014  03:45:00      -51.099      -26.549       -2.973       17.968       14.533       10.495      322.851      211.207      110.147        0.198        0.032       57.584       10.112        0.031      337.366        9.292      863.015
05/29/2014  03:46:00      -64.598      -28.792       -5.076       16.405       13.142       11.605      269.117      172.702      134.686        0.280        0.029       70.724        8.415        0.014      337.344        9.254      863.012
05/29/2014  03:47:00      -78.819      -33.377      -15.064       17.629       11.354       10.502      310.771      128.906      110.292        0.405        0.027       85.594        7.412        0.007      337.284        9.154      863.005
05/29/2014  03:48:00      -94.425      -43.033      -11.008       16.882       17.830       11.586      284.994      317.906      134.241        0.581        0.037      103.769       10.010        0.009      337.254        9.105      862.994
05/29/2014  03:49:00      -79.343      -41.784       -1.457       33.769       17.532       15.409     1140.338      307.364      237.443        0.486        0.084       89.672       18.120        0.041      337.177        8.974      862.993
05/29/2014  03:50:00      -79.458      -33.268       -8.950       15.914       12.163       10.482      253.264      147.940      109.868        0.401        0.026       86.141        8.059        0.009      337.197        9.009      862.991
05/29/2014  03:51:00      -94.721      -37.007       -8.689       14.742       23.246       11.641      217.329      540.363      135.523        0.565        0.045      101.694        7.977        0.006      337.188        8.993      862.995
05/29/2014  03:52:00      -83.083      -20.507      -14.166       14.811       11.231       13.355      219.375      126.144      178.368        0.402        0.026       85.577        6.582        0.006      337.166        8.956      862.987
05/29/2014  03:53:00      -87.565      -19.127      -12.077       16.377       11.451       12.828      268.209      131.120      164.559        0.437        0.028       89.630        7.363        0.007      337.175        8.970      862.984
05/29/2014  03:54:00      -94.576      -14.927      -13.334       21.071       19.523       18.411      443.971      381.159      338.973        0.525        0.058       95.746       13.338        0.019      337.235        9.072      862.995
05/29/2014  03:55:00      -76.121      -24.517       -4.645       20.216       17.911       15.205      408.699      320.814      231.194        0.369        0.048       79.972       10.454        0.017      337.189        8.996      863.000
05/29/2014  03:56:00      -51.604      -26.884       -4.796       23.499       20.055       12.922      552.185      402.205      166.988        0.226        0.056       58.187        5.534        0.009      337.168        8.958      862.989
05/29/2014  03:57:00      -56.609      -23.996       -0.574       27.985       18.140       13.440      783.162      329.071      180.635        0.254        0.065       61.484        9.907        0.026      337.248        9.095      862.978
05/29/2014  03:58:00      -41.894      -29.206       -2.646       21.775       19.790       12.021      474.161      391.660      144.507        0.181        0.051       51.069        6.754        0.017      337.201        9.015      862.967
05/29/2014  03:59:00      -60.311      -27.598       -5.631       17.941       19.702       12.558      321.873      388.171      157.711        0.265        0.043       66.325        9.485        0.020      337.235        9.072      862.970
05/29/2014  04:00:00      -41.726      -32.612       -3.365       30.625        9.619       11.165      937.914       92.524      124.655        0.199        0.058       52.959        7.428        0.020      337.352        9.269      862.981
05/29/2014  04:01:00      -40.369       16.913       -1.106       22.992       19.820       18.449      528.632      392.824      340.378        0.159        0.063       43.769       15.896        0.132      337.480        9.483      862.978
05/29/2014  04:02:00      -52.491       43.973      -11.069       27.953       25.423       14.777      781.373      646.319      218.353        0.323        0.082       68.476       15.885        0.054      337.615        9.708      862.973
05/29/2014  04:03:00      -45.551       10.366      -14.060       23.660       23.914       18.562      559.776      571.876      344.543        0.193        0.074       46.715       10.163        0.047      337.529        9.563      862.981
05/29/2014  04:04:00      -34.533      -13.187       -7.434       26.261       11.884       11.924      689.630      141.237      142.190        0.120        0.049       36.966        9.484        0.066      337.394        9.339      862.986
05/29/2014  04:05:00      -30.943       11.162        0.479       21.150       33.756       18.806      447.331     1139.499      353.662        0.151        0.097       32.895       19.471        0.350      337.534        9.573      862.990
05/29/2014  04:06:00      -68.198       51.056      -19.877       28.125       30.290       19.433      791.008      917.509      377.625        0.487        0.104       85.192       10.552        0.015      337.721        9.887      862.987
05/29/2014  04:07:00      -48.200       62.040      -11.299       20.448       29.773       20.971      418.117      886.437      439.794        0.402        0.087       78.563       17.950        0.052      337.722        9.888      862.982
05/29/2014  04:08:00      -54.124        6.178       -7.407       32.919       55.451       20.375     1083.636     3074.865      415.144        0.380        0.229       54.475       23.908        0.193      337.403        9.354      862.976
05/29/2014  04:09:00      -27.866      -74.911        7.749       24.472       16.884       18.486      598.875      285.075      341.738        0.384        0.061       79.926       11.394        0.020      337.475        9.474      862.963
05/29/2014  04:10:00      -56.885        2.500       -4.012       26.214       30.139       13.454      687.168      908.345      181.016        0.252        0.089       56.939       14.329        0.063      337.195        9.005      862.968
05/29/2014  04:11:00      -14.265       -4.112        5.689       42.054       19.932       19.595     1768.513      397.280      383.975        0.140        0.127       14.846       26.396        3.161      337.302        9.183      862.978
05/29/2014  04:12:00      -52.076      -23.150        6.043       24.135       31.604       17.611      582.475      998.817      310.134        0.259        0.095       56.990       16.903        0.088      337.312        9.201      862.971
05/29/2014  04:13:00      -33.442      -17.840       -6.746       49.325       25.009       14.169     2432.921      625.474      200.759        0.237        0.163       37.903       10.906        0.083      337.280        9.147      862.970
05/29/2014  04:14:00      -31.105      -13.529        2.484       32.122       22.181       15.827     1031.815      492.017      250.496        0.147        0.089       33.920       10.807        0.102      337.215        9.039      862.959
05/29/2014  04:15:00      -28.825      -36.250        8.275       37.490       27.052       20.326     1405.527      731.822      413.163        0.238        0.128       46.314       21.091        0.207      337.181        8.983      862.974
05/29/2014  04:16:00      -64.237      -61.129       -7.221       48.198       29.265       17.416     2323.089      856.456      303.313        0.570        0.174       88.674       15.222        0.029      337.314        9.205      862.974
05/29/2014  04:17:00       13.120      -46.091        3.446       20.170       30.412       18.756      406.836      924.889      351.779        0.200        0.084       47.922       11.439        0.057      337.344        9.255      862.963
05/29/2014  04:18:00      -27.554      -65.523        1.526       46.891       42.804       25.149     2198.792     1832.164      632.476        0.486        0.233       71.081       21.832        0.094      337.302        9.184      862.953
05/29/2014  04:19:00      -81.938      -63.901       -3.712       60.813       44.987       27.484     3698.173     2023.790      755.373        0.864        0.324      103.909       27.893        0.072      337.217        9.042      862.956
05/29/2014  04:20:00      -91.213      -61.109        2.749       30.055       27.858       21.879      903.278      776.081      478.673        0.711        0.108      109.792       16.014        0.021      337.167        8.958      862.947
05/29/2014  04:21:00        6.758      -28.527       20.308       30.725       21.931       19.033      944.004      480.980      362.267        0.153        0.089       29.317       16.692        0.324      337.221        9.049      862.939
05/29/2014  04:22:00      -35.813       -9.860        1.857       49.408       17.697       17.325     2441.185      313.176      300.141        0.222        0.153       37.145       24.142        0.422      337.127        8.891      862.938
05/29/2014  04:23:00      -33.851      -30.224        7.385       54.222       20.715       20.345     2940.052      429.095      413.916        0.295        0.189       45.380       23.275        0.263      337.180        8.980      862.946
05/29/2014  04:24:00       -6.171      -43.551       11.065       55.083       28.102       24.254     3034.156      789.736      588.235        0.323        0.221       43.986       23.376        0.282      337.173        8.968      862.946
05/29/2014  04:25:00      -18.724       -6.913        6.607       18.070       24.453       16.116      326.520      597.926      259.715        0.081        0.059       19.960        7.555        0.143      337.085        8.819      862.961
05/29/2014  04:26:00       -6.382      -37.650        2.316       28.912       25.634       28.410      835.912      657.112      807.128        0.188        0.115       38.187       17.338        0.206      337.091        8.830      862.967
05/29/2014  04:27:00      -66.780      -36.788       -5.716       28.256       19.312       12.656      798.390      372.950      160.171        0.359        0.067       76.242       10.029        0.017      337.128        8.893      862.956
05/29/2014  04:28:00      -46.202      -34.013        2.817       49.088       19.434       13.216     2409.635      377.677      174.653        0.313        0.148       57.371       17.414        0.092      337.076        8.804      862.959
05/29/2014  04:29:00      -42.305      -29.526        6.847       38.521       25.680       18.218     1483.841      659.445      331.910        0.259        0.124       51.589       17.578        0.116      337.091        8.831      862.951
05/29/2014  04:30:00      -48.027      -47.554        3.072       38.961       30.723       26.169     1517.973      943.910      684.818        0.386        0.157       67.587       20.046        0.088      337.065        8.786      862.937
05/29/2014  04:31:00      -71.170      -20.304       -1.568       29.995       36.392       17.607      899.730     1324.387      310.007        0.401        0.127       74.009       17.194        0.054      337.001        8.680      862.933
05/29/2014  04:32:00      -32.772       -1.835        3.357       26.377       23.137       17.986      695.767      535.300      323.509        0.132        0.078       32.823       10.657        0.105      337.003        8.682      862.928
05/29/2014  04:33:00      -54.393      -30.655       -1.028       37.268       20.648       18.008     1388.883      426.333      324.283        0.302        0.107       62.437       22.403        0.129      336.966        8.621      862.920
05/29/2014  04:34:00      -44.347      -20.174        3.281       44.617       29.739       14.619     1990.669      884.387      213.707        0.274        0.154       48.720       19.602        0.162      336.988        8.658      862.920
05/29/2014  04:35:00      -10.527      -35.756       -2.501       33.247       20.770       18.195     1105.336      431.376      331.041        0.163        0.093       37.273       14.752        0.157      337.057        8.772      862.920
05/29/2014  04:36:00       25.977      -19.632       -0.082       30.440       21.775       20.484      926.602      474.163      419.602        0.144        0.091       32.561       19.610        0.363      337.065        8.787      862.922
05/29/2014  04:37:00       -1.892        2.260        2.824       12.127       15.106       10.639      147.064      228.199      113.197        0.025        0.024        2.948        8.585        8.481      336.996        8.670      862.936
05/29/2014  04:38:00      -44.659      -30.005        1.892       36.437       22.326       16.424     1327.620      498.430      269.744        0.250        0.105       53.803       11.757        0.048      337.064        8.784      862.944
05/29/2014  04:39:00      -36.312      -35.461        2.679       51.698       26.617       15.305     2672.646      708.466      234.241        0.310        0.181       50.755       21.454        0.179      336.988        8.658      862.944
05/29/2014  04:40:00      -91.170      -58.988       -7.230       37.082       24.438       15.343     1375.038      597.201      235.405        0.703        0.110      108.589       12.776        0.014      336.915        8.537      862.956
05/29/2014  04:41:00      -45.599      -24.725       -3.255       34.942       33.334       24.998     1220.955     1111.147      624.904        0.283        0.148       51.870       22.664        0.191      336.952        8.597      862.957
05/29/2014  04:42:00      -65.789      -49.560       -2.257       26.721       28.919       20.059      714.012      836.309      402.353        0.437        0.098       82.367       16.265        0.039      336.989        8.659      862.952
05/29/2014  04:43:00      -18.593      -25.784        4.526       29.918       21.613       16.059      895.061      467.138      257.883        0.133        0.081       31.789       18.617        0.343      336.934        8.567      862.968
05/29/2014  04:44:00      -17.902      -39.600        4.689       22.619       20.312       11.855      511.604      412.560      140.541        0.149        0.053       43.459        7.573        0.030      336.965        8.619      862.974
05/29/2014  04:45:00      -22.781      -36.018       -0.956       34.587       20.226       13.614     1196.231      409.073      185.349        0.180        0.090       42.617        7.520        0.031      337.020        8.711      862.978
05/29/2014  04:46:00      -70.415      -15.317       -2.234       13.401       16.374       12.499      179.579      268.104      156.215        0.290        0.030       72.061        7.832        0.012      336.926        8.552      862.989
05/29/2014  04:47:00        1.105      -35.617        7.684       39.577       17.414       17.758     1566.320      303.253      315.348        0.176        0.109       35.634       18.185        0.260      336.967        8.623      862.991
05/29/2014  04:48:00      -29.691      -15.191        4.385       36.471       24.927       15.629     1330.139      621.350      244.279        0.166        0.110       33.351       12.756        0.146      336.874        8.468      862.986
05/29/2014  04:49:00      -38.616      -68.472       -0.183       27.595       30.075       16.063      761.477      904.489      258.028        0.405        0.096       78.611       11.245        0.020      336.825        8.387      862.988
05/29/2014  04:50:00       -2.468       -5.334        1.493       22.619       16.710       20.829      511.627      279.235      433.842        0.063        0.061        5.878        6.511        1.227      336.815        8.370      862.997
05/29/2014  04:51:00       -9.511      -14.680        6.107       15.568       19.405       13.514      242.363      376.558      182.637        0.057        0.040       17.492       10.058        0.331      336.845        8.419      862.993
05/29/2014  04:52:00      -37.212       -8.749        6.444       44.156       20.507       18.163     1949.796      420.552      329.907        0.210        0.135       38.226       18.595        0.237      336.798        8.343      862.984
05/29/2014  04:53:00      -28.559      -20.450        0.059       32.828       17.977       16.883     1077.671      323.185      285.022        0.146        0.084       35.125       12.250        0.122      336.877        8.473      862.984
05/29/2014  04:54:00      -24.265      -25.756        2.696       37.015       19.379       20.827     1370.145      375.527      433.772        0.172        0.109       35.386       16.819        0.226      336.680        8.145      862.971
05/29/2014  04:55:00      -45.620      -40.698        3.034       30.587       25.138       18.270      935.575      631.906      333.784        0.282        0.095       61.135       17.464        0.082      336.644        8.085      862.955
05/29/2014  04:56:00      -45.673      -49.058        1.378       46.508       28.452       20.900     2163.002      809.527      436.823        0.395        0.170       67.027        9.348        0.019      336.676        8.138      862.942
05/29/2014  04:57:00      -21.140      -41.451       12.033       49.522       32.575       25.301     2452.409     1061.139      640.155        0.323        0.208       46.530       27.971        0.361      336.645        8.088      862.948
05/29/2014  04:58:00      -39.048      -51.520        0.380       34.189       29.869       19.549     1168.883      892.134      382.150        0.331        0.122       64.646       17.883        0.077      336.690        8.162      862.949
05/29/2014  04:59:00      -40.404      -28.688        6.111       31.879       18.708       15.622     1016.266      350.003      244.035        0.205        0.081       49.552       13.790        0.077      336.668        8.125      862.947
05/29/2014  05:00:00       -0.864      -24.466        3.320       19.162       14.461       11.629      367.182      209.112      135.237        0.066        0.036       24.481        9.106        0.138      336.727        8.224      862.951
05/29/2014  05:01:00      -26.707      -17.996        0.168       36.067       21.794       13.939     1300.851      474.992      194.294        0.150        0.099       32.204       14.491        0.202      336.648        8.092      862.955
05/29/2014  05:02:00      -41.290      -16.128       -2.429       27.229       15.733       14.065      741.401      247.519      197.820        0.158        0.059       44.328        8.316        0.035      336.572        7.966      862.950
05/29/2014  05:03:00      -75.362      -54.735        2.061       40.580       19.611       20.841     1646.744      384.597      434.367        0.557        0.123       93.142       15.984        0.029      336.489        7.826      862.954
05/29/2014  05:04:00      -13.599      -66.559       -9.273       31.602       26.410       15.812      998.680      697.468      250.025        0.332        0.097       67.934       10.787        0.025      336.648        8.093      862.967
05/29/2014  05:05:00      -25.010      -93.493      -10.926       22.774       23.335       14.671      518.638      544.505      215.229        0.538        0.064       96.780        7.311        0.006      336.715        8.204      862.958
05/29/2014  05:06:00      -34.654      -18.904       -0.889       27.491       23.118       17.240      755.761      534.443      297.223        0.157        0.079       39.474       13.393        0.115      336.677        8.140      862.957
05/29/2014  05:07:00      -31.383      -21.926        0.626       19.384       21.086       14.122      375.728      444.611      199.429        0.124        0.051       38.284        4.856        0.016      336.686        8.157      862.958
05/29/2014  05:08:00      -74.682      -31.983       -6.904       21.819       20.407       22.157      476.091      416.465      490.914        0.402        0.069       81.242       12.758        0.025      336.596        8.005      862.954
05/29/2014  05:09:00      -30.984      -36.074       -6.666       19.466       21.924       13.266      378.922      480.650      175.976        0.167        0.052       47.554        8.015        0.028      336.655        8.103      862.940
05/29/2014  05:10:00      -40.625       -5.889        6.375       24.928       18.566       13.903      621.408      344.689      193.289        0.144        0.058       41.050        9.339        0.052      336.574        7.968      862.952
05/29/2014  05:11:00      -49.845      -42.432        0.738       28.555       25.454       15.844      815.403      647.889      251.046        0.300        0.086       65.460        7.600        0.013      336.423        7.715      862.957
05/29/2014  05:12:00      -35.114      -28.086       -6.549       37.551       23.727       14.446     1410.078      562.959      208.678        0.212        0.109       44.965       11.414        0.064      336.406        7.685      862.951
05/29/2014  05:13:00      -24.694      -32.269       -4.438       31.804       21.400       10.153     1011.500      457.958      103.087        0.162        0.079       40.633        9.878        0.059      336.407        7.689      862.959
05/29/2014  05:14:00      -17.732      -26.640       -7.037       32.781       18.492       17.404     1074.602      341.942      302.882        0.140        0.086       32.002       10.727        0.112      336.439        7.741      862.962
05/29/2014  05:15:00      -54.611      -83.714        0.529       40.889       48.451       23.875     1671.940     2347.499      570.002        0.729        0.229       99.952       20.563        0.042      336.346        7.586      862.959
05/29/2014  05:16:00      -99.496      -87.858        0.178       51.091       55.534       26.979     2610.292     3084.004      727.840        1.202        0.321      132.735       26.877        0.041      336.267        7.453      862.965
05/29/2014  05:17:00     -112.114      -86.068        6.571       50.639       45.656       26.714     2564.340     2084.439      713.631        1.269        0.268      141.341       27.897        0.039      336.219        7.374      862.966
05/29/2014  05:18:00     -106.975      -80.023        2.673       57.573       52.022       31.988     3314.652     2706.238     1023.201        1.245        0.352      133.594       26.745        0.040      336.219        7.374      862.962
05/29/2014  05:19:00     -153.681      -70.528       -7.105       45.062       29.246       23.833     2030.588      855.334      567.993        1.605        0.173      169.091       18.534        0.012      336.215        7.367      862.972
05/29/2014  05:20:00     -130.580      -53.150       -0.358       33.291       42.409       25.148     1108.283     1798.527      632.413        1.171        0.177      140.982       13.925        0.010      336.164        7.281      863.000
05/29/2014  05:21:00      -87.617     -100.899       -9.712       64.987       26.540       22.539     4223.340      704.387      508.027        1.169        0.272      133.631       29.619        0.049      336.206        7.351      863.010
05/29/2014  05:22:00      -65.491      -61.079        2.317       41.668       32.892       21.779     1736.236     1081.873      474.304        0.566        0.165       89.553       27.206        0.092      336.188        7.323      863.000
05/29/2014  05:23:00     -108.809      -39.740       -9.723       34.503       25.598       15.473     1190.464      655.236      239.403        0.780        0.104      115.839        8.085        0.005      336.164        7.281      863.008
05/29/2014  05:24:00      -53.637      -59.435        1.560       37.211       37.692       21.556     1384.639     1420.663      464.665        0.484        0.163       80.059       14.022        0.031      336.178        7.305      863.003
05/29/2014  05:25:00      -46.691      -61.937        3.668       33.515       35.877       19.793     1123.234     1287.192      391.759        0.442        0.140       77.564       16.250        0.044      336.232        7.394      862.993
05/29/2014  05:26:00      -62.314      -44.311       -7.220       27.955       20.344       14.374      781.491      413.862      206.614        0.365        0.070       76.462       10.431        0.019      336.220        7.375      862.993
05/29/2014  05:27:00      -69.563      -29.263       -0.068       27.594       23.161       11.078      761.428      536.445      122.727        0.356        0.071       75.468       10.004        0.018      336.104        7.181      862.986
05/29/2014  05:28:00      -40.864      -43.585        2.622       27.515       29.429       16.092      757.084      866.085      258.944        0.273        0.094       59.745       13.034        0.048      336.133        7.229      862.978
05/29/2014  05:29:00      -84.614      -51.644       -6.422       17.770       16.801       13.266      315.767      282.263      175.979        0.532        0.039       99.130        4.899        0.002      336.179        7.306      862.979
05/29/2014  05:30:00      -80.315      -49.737        2.156       32.993       24.121       16.725     1088.545      581.820      279.733        0.544        0.098       94.469       15.474        0.027      336.187        7.320      862.981
05/29/2014  05:31:00      -93.928      -40.701        5.775       44.261       30.381       20.486     1959.071      923.011      419.672        0.691        0.165      102.367       22.820        0.050      336.220        7.376      862.977
05/29/2014  05:32:00     -129.677      -39.433      -12.452       24.000       22.874       21.234      576.021      523.240      450.871        1.004        0.078      135.540        9.343        0.005      336.258        7.437      862.985
05/29/2014  05:33:00     -109.042      -38.320       -5.493       29.142       27.315       15.232      849.278      746.116      232.009        0.761        0.091      115.579       12.303        0.011      336.257        7.438      862.991
05/29/2014  05:34:00     -147.945      -59.676      -12.285       22.482       21.894       17.484      505.460      479.355      305.675        1.344        0.065      159.528       14.287        0.008      336.185        7.317      862.981
05/29/2014  05:35:00     -122.676      -57.197      -11.116       22.629       18.543        9.040      512.062      343.850       81.714        0.969        0.047      135.355        4.716        0.001      336.174        7.297      862.984
05/29/2014  05:36:00      -97.705      -57.463       -5.361       27.348       23.145       16.574      747.895      535.679      274.693        0.722        0.078      113.350       14.681        0.017      336.176        7.301      862.989
05/29/2014  05:37:00     -118.971      -48.598      -17.926       22.294       18.649       10.855      497.010      347.795      117.834        0.890        0.048      128.514        4.758        0.001      336.132        7.227      862.980
05/29/2014  05:38:00      -96.012      -53.279       -4.399       43.433       33.085       23.242     1886.469     1094.611      540.177        0.780        0.176      109.805       21.622        0.039      336.035        7.066      862.981
05/29/2014  05:39:00      -85.889      -19.406       -1.967       29.109       27.210       16.525      847.324      740.410      273.082        0.481        0.093       88.054       14.478        0.027      336.050        7.091      862.986
05/29/2014  05:40:00     -133.325       -5.524      -16.966       30.168       23.010       21.904      910.091      529.481      479.804        1.001        0.096      133.439       19.302        0.021      336.158        7.272      862.978
05/29/2014  05:41:00     -110.200       -4.019      -12.992       19.450       15.353       16.764      378.307      235.717      281.040        0.661        0.045      110.274       11.489        0.011      336.092        7.160      862.979
05/29/2014  05:42:00      -70.781      -18.454       -2.323       31.688       28.704       20.902     1004.149      823.909      436.881        0.381        0.113       73.147       21.121        0.083      336.066        7.119      862.975
05/29/2014  05:43:00      -48.557      -26.581       -1.483       31.857       32.566       17.819     1014.891     1060.557      317.534        0.273        0.120       55.357       17.559        0.101      336.077        7.137      862.981
05/29/2014  05:44:00      -70.140      -37.819       -7.490       32.348       21.267       20.639     1046.378      452.302      425.978        0.416        0.096       79.686       22.092        0.077      336.174        7.299      862.995
05/29/2014  05:45:00      -93.017      -45.352       -6.487       28.053       16.793       13.243      786.960      282.017      175.378        0.600        0.062      103.484        5.406        0.003      336.194        7.332      863.007
05/29/2014  05:46:00     -101.008      -29.929       -9.938       17.238       18.723       14.358      297.135      350.560      206.159        0.603        0.043      105.349       12.065        0.013      336.219        7.373      863.023
05/29/2014  05:47:00      -82.856      -38.702       -8.565       32.963       21.772       16.515     1086.565      474.029      272.751        0.513        0.092       91.449       11.198        0.015      336.270        7.458      863.031
05/29/2014  05:48:00      -59.551      -38.681       -7.267       39.641       23.868       16.269     1571.413      569.691      264.685        0.375        0.120       71.011       16.624        0.055      336.346        7.585      863.039
05/29/2014  05:49:00      -37.222      -31.713        6.927       44.393       25.670       19.190     1970.760      658.954      368.273        0.272        0.150       48.900       22.748        0.216      336.171        7.294      863.040
05/29/2014  05:50:00      -12.479      -16.220       10.336       30.295       16.094       17.332      917.791      259.015      300.389        0.100        0.074       20.465       16.574        0.656      336.201        7.344      863.042
05/29/2014  05:51:00       -4.107      -24.669       16.002       33.229       23.516       19.432     1104.166      553.013      377.593        0.146        0.102       25.009       17.402        0.484      336.225        7.382      863.042
05/29/2014  05:52:00      -14.700      -41.868        5.159       40.001       28.601       17.932     1600.050      818.005      321.544        0.237        0.137       44.374       14.791        0.111      336.265        7.450      863.056
05/29/2014  05:53:00      -62.402      -56.392       -3.826       33.341       33.593       17.806     1111.596     1128.467      317.041        0.482        0.128       84.107       16.181        0.037      336.238        7.405      863.060
05/29/2014  05:54:00      -12.735      -39.845       -5.187       47.553       24.249       19.814     2261.327      587.998      392.597        0.251        0.162       41.830        7.229        0.030      336.272        7.461      863.061
05/29/2014  05:55:00      -26.860      -41.373       10.077       33.543       24.053       22.188     1125.112      578.535      492.314        0.236        0.110       49.328       17.642        0.128      336.227        7.385      863.064
05/29/2014  05:56:00      -63.953      -42.418        3.787       43.829       28.383       23.243     1921.003      805.615      540.239        0.458        0.163       76.741       22.856        0.089      336.169        7.290      863.066
05/29/2014  05:57:00      -50.239      -60.733        2.876       37.873       23.729       22.926     1434.336      563.062      525.604        0.437        0.126       78.819       20.439        0.067      336.194        7.331      863.066
05/29/2014  05:58:00      -63.117      -60.420        1.213       35.276       22.367       16.529     1244.374      500.275      273.210        0.483        0.101       87.374       13.669        0.024      336.175        7.301      863.067
05/29/2014  05:59:00      -29.495      -75.243        8.449       28.085       22.282       18.043      788.792      496.486      325.567        0.411        0.081       80.818       13.592        0.028      336.212        7.362      863.079
05/29/2014  06:00:00      -30.131      -57.134        0.755       16.692       32.640       13.768      278.616     1065.370      189.571        0.285        0.077       64.593        9.976        0.024      336.221        7.377      863.088
05/29/2014  06:01:00      -20.922      -70.263       -0.587       25.051       30.643       17.986      627.576      939.000      323.480        0.363        0.095       73.312       13.921        0.036      336.270        7.459      863.095
05/29/2014  06:02:00      -20.231      -53.365        4.383       27.972       29.113       24.251      782.456      847.580      588.117        0.275        0.111       57.071       18.101        0.101      336.323        7.547      863.096
05/29/2014  06:03:00      -33.738      -32.813        7.817       22.208       36.434       15.334      493.216     1327.471      235.137        0.217        0.103       47.063       13.009        0.076      336.335        7.569      863.101
05/29/2014  06:04:00      -40.511      -36.773       -3.433       22.253       17.276       10.452      495.195      298.456      109.238        0.195        0.045       54.712        5.973        0.012      336.321        7.543      863.113
05/29/2014  06:05:00      -12.010      -28.982        5.154       22.621       19.027       18.074      511.723      362.032      326.664        0.111        0.060       31.372       11.621        0.137      336.411        7.696      863.123
05/29/2014  06:06:00      -59.744      -53.805       -9.030       13.539       28.656       10.712      183.298      821.176      114.756        0.383        0.056       80.401        6.607        0.007      336.375        7.635      863.128
05/29/2014  06:07:00      -66.113      -56.380       -2.600       38.685       28.879       18.723     1496.539      834.011      350.548        0.512        0.134       86.889       18.029        0.043      336.362        7.612      863.128
05/29/2014  06:08:00      -64.285      -61.860       -1.010       36.794       35.224       20.999     1353.769     1240.712      440.969        0.550        0.152       89.215       22.558        0.064      336.369        7.623      863.127
05/29/2014  06:09:00      -61.906      -55.283        6.827       40.805       34.863       24.810     1665.034     1215.412      615.517        0.521        0.175       82.997       23.677        0.081      336.346        7.586      863.129
05/29/2014  06:10:00      -24.259      -23.969       16.229       41.167       27.904       18.720     1694.709      778.630      350.450        0.212        0.141       34.103       19.904        0.341      336.443        7.748      863.127
05/29/2014  06:11:00      -81.413      -53.529        3.765       32.538       26.054       18.357     1058.709      678.833      336.978        0.579        0.104       97.435       17.402        0.032      336.324        7.548      863.133
05/29/2014  06:12:00      -67.508      -50.341       -0.936       37.674       22.006       14.998     1419.359      484.282      224.937        0.461        0.106       84.211       19.232        0.052      336.382        7.646      863.143
05/29/2014  06:13:00      -67.448      -40.269       -7.347       28.407       14.895       13.681      806.983      221.856      187.158        0.372        0.061       78.554       16.414        0.044      336.432        7.730      863.141
05/29/2014  06:14:00      -80.760      -28.690       -3.010       20.510       14.250       12.012      420.672      203.063      144.281        0.406        0.038       85.704        5.972        0.005      336.403        7.681      863.137
05/29/2014  06:15:00      -75.923      -42.297       -3.888       35.405       21.160       16.172     1253.510      447.745      261.524        0.477        0.098       86.910        6.464        0.006      336.469        7.792      863.143
05/29/2014  06:16:00     -115.841      -52.915       -2.529       32.813       17.313       17.077     1076.691      299.727      291.618        0.895        0.083      127.355       14.807        0.014      336.396        7.668      863.144
05/29/2014  06:17:00      -97.464      -46.745       -3.827       31.247       22.423       14.569      976.395      502.789      212.257        0.669        0.085      108.095       10.535        0.009      336.388        7.655      863.141
05/29/2014  06:18:00     -101.385      -39.623       -9.749       23.271       21.965       14.587      541.541      482.482      212.789        0.659        0.062      108.853        5.310        0.002      336.378        7.640      863.138
05/29/2014  06:19:00      -94.791      -43.846       -3.069       39.560       31.550       20.238     1565.016      995.402      409.592        0.694        0.149      104.440       11.743        0.013      336.418        7.705      863.138
05/29/2014  06:20:00     -101.694      -35.377       -4.076       25.686       38.098       16.590      659.783     1451.481      275.229        0.700        0.119      107.672       13.673        0.016      336.380        7.642      863.137
05/29/2014  06:21:00      -93.984      -41.796       -4.205       21.552       20.339       16.196      464.492      413.674      262.300        0.587        0.057      102.858        8.204        0.006      336.363        7.615      863.138
05/29/2014  06:22:00      -70.471      -41.178        1.869       38.588       20.151       14.885     1489.047      406.057      221.555        0.439        0.106       81.620       18.273        0.050      336.408        7.690      863.146
05/29/2014  06:23:00        4.093      -15.318        6.355       25.959       11.859       16.058      673.853      140.647      257.854        0.068        0.054       15.855       12.124        0.585      336.528        7.891      863.144
05/29/2014  06:24:00        9.152      -18.002       14.110       20.096       17.401       18.734      403.846      302.787      350.944        0.083        0.053       20.195       16.891        0.700      336.530        7.894      863.151
05/29/2014  06:25:00      -19.038      -11.314        3.456       20.508       10.172        9.556      420.588      103.470       91.325        0.056        0.031       22.147       10.009        0.204      336.481        7.812      863.146
05/29/2014  06:26:00      -32.278      -24.164       -3.059       13.295       14.653       11.554      176.751      214.704      133.494        0.108        0.026       40.321        5.973        0.022      336.388        7.656      863.146
05/29/2014  06:27:00      -36.578      -43.177       -8.334       24.504       17.758       13.893      600.430      315.334      193.015        0.219        0.055       56.588        8.241        0.021      336.379        7.641      863.140
05/29/2014  06:28:00      -17.730      -25.212       -0.090       20.801       25.433       14.893      432.680      646.829      221.803        0.113        0.065       30.822        8.281        0.072      336.340        7.577      863.138
05/29/2014  06:29:00      -53.640      -40.895        0.056       45.785       24.964       16.121     2096.260      623.197      259.895        0.376        0.149       67.451       13.916        0.043      336.214        7.365      863.146
05/29/2014  06:30:00      -21.813      -29.095        0.445       24.752       23.641       22.132      612.680      558.913      489.830        0.149        0.083       36.364       16.034        0.194      336.191        7.326      863.150
05/29/2014  06:31:00      -32.090      -57.306       -0.085       22.338       37.902       12.805      498.998     1436.545      163.964        0.321        0.105       65.679       11.533        0.031      336.101        7.176      863.172
05/29/2014  06:32:00      -30.970      -28.506        3.495       22.487       31.592       18.328      505.645      998.066      335.928        0.181        0.092       42.092       15.052        0.128      336.127        7.220      863.186
05/29/2014  06:33:00      -55.702      -25.750      -12.999       39.718       17.960       18.764     1577.522      322.579      352.069        0.309        0.113       61.366        7.333        0.014      336.081        7.143      863.219
05/29/2014  06:34:00      -35.313      -11.734        3.793       24.927       18.093       13.784      621.362      327.350      190.000        0.127        0.057       37.211        9.943        0.071      336.101        7.177      863.228
05/29/2014  06:35:00      -48.415      -25.957       -3.776       27.172       20.136       14.324      738.329      405.441      205.178        0.219        0.067       54.934       11.882        0.047      336.114        7.198      863.249
05/29/2014  06:36:00      -53.664      -47.259        0.359       51.903       31.278       19.906     2693.901      978.313      396.267        0.459        0.203       71.507       26.454        0.137      336.128        7.221      863.254
05/29/2014  06:37:00      -47.634      -59.778       -0.503       31.354       26.574       20.827      983.083      706.170      433.759        0.398        0.106       76.436       15.294        0.040      336.081        7.143      863.261
05/29/2014  06:38:00      -71.787      -48.982       -6.660       27.082       31.273       17.305      733.441      977.996      299.475        0.480        0.101       86.906       13.904        0.026      336.066        7.118      863.257
05/29/2014  06:39:00      -53.834      -34.725        4.568       43.714       24.547       21.803     1910.908      602.572      475.350        0.356        0.149       64.062       18.565        0.084      336.053        7.096      863.258
05/29/2014  06:40:00      -55.100      -24.694       -7.650       37.189       23.614       16.759     1382.997      557.626      280.863        0.296        0.111       60.380       10.487        0.030      336.102        7.178      863.252
05/29/2014  06:41:00      -46.527        0.085        5.187       24.578       24.582       16.489      604.073      604.284      271.875        0.184        0.074       46.527        4.726        0.010      336.093        7.162      863.262
05/29/2014  06:42:00      -64.800      -35.810        4.493       40.873       34.030       24.786     1670.572     1158.032      614.342        0.447        0.172       74.036       25.733        0.121      336.073        7.130      863.272
05/29/2014  06:43:00      -53.376      -61.280        3.952       57.007       44.034       26.804     3249.854     1938.962      718.461        0.626        0.295       81.266       34.954        0.185      336.127        7.219      863.271
05/29/2014  06:44:00      -74.243      -73.942       -2.821       40.327       33.683       25.290     1626.245     1134.543      639.591        0.719        0.170      104.783       25.482        0.059      336.057        7.102      863.275
05/29/2014  06:45:00      -61.515      -63.173        1.683       28.310       33.275       17.433      801.434     1107.236      303.899        0.499        0.111       88.176        8.860        0.010      336.145        7.250      863.266
05/29/2014  06:46:00      -52.487      -45.273        0.088       33.218       38.234       20.854     1103.459     1461.802      434.870        0.390        0.150       69.314       17.269        0.062      336.195        7.333      863.266
05/29/2014  06:47:00      -81.820      -86.833        0.145       27.945       23.131       22.196      780.942      535.044      492.672        0.802        0.090      119.308       13.413        0.013      336.178        7.306      863.253
05/29/2014  06:48:00      -56.150      -51.985       -8.627       43.898       19.383       13.064     1927.067      375.714      170.662        0.420        0.124       76.519       13.127        0.029      336.281        7.477      863.238
05/29/2014  06:49:00      -13.613      -14.890       16.232       30.163       23.802       17.580      909.811      566.537      309.058        0.123        0.089       20.175       19.870        0.970      336.579        7.976      863.230
05/29/2014  06:50:00      -76.494      -68.805       -5.060       28.107       21.706       17.012      790.007      471.148      289.403        0.608        0.078      102.886       14.641        0.020      336.352        7.595      863.218
05/29/2014  06:51:00      -34.100      -62.128        2.229       32.865       35.208       18.349     1080.123     1239.621      336.683        0.384        0.133       70.871       20.870        0.087      336.403        7.682      863.218
05/29/2014  06:52:00      -55.726      -56.589       -2.861       24.983       21.472       11.447      624.151      461.049      131.037        0.377        0.061       79.421       12.975        0.027      336.356        7.602      863.215
05/29/2014  06:53:00      -67.827      -58.320       -8.676       22.063       15.685       11.895      486.762      246.031      141.501        0.448        0.044       89.452        3.658        0.002      336.368        7.622      863.214
05/29/2014  06:54:00      -54.372      -37.862       -7.810        9.382       11.312        7.283       88.020      127.951       53.043        0.236        0.013       66.256        3.785        0.003      336.423        7.715      863.224
05/29/2014  06:55:00      -59.971      -41.372      -10.512        7.691       11.522        8.889       59.146      132.768       79.015        0.284        0.014       72.857        4.548        0.004      336.422        7.712      863.217
05/29/2014  06:56:00      -36.921      -41.300       -6.187        8.178        8.102        6.567       66.881       65.643       43.131        0.164        0.009       55.398        5.167        0.009      336.437        7.739      863.212
05/29/2014  06:57:00      -24.947       -6.196        4.469       16.512       18.387       15.769      272.634      338.090      248.663        0.077        0.043       25.705       14.297        0.309      336.701        8.179      863.220
05/29/2014  06:58:00      -40.350       -8.684        2.243       20.626       14.928       11.724      425.413      222.848      137.445        0.125        0.039       41.273        7.260        0.031      336.616        8.038      863.218
05/29/2014  06:59:00      -28.763      -15.236        9.758       28.109       15.962       13.746      790.100      254.797      188.942        0.119        0.062       32.549       10.750        0.109      336.734        8.234      863.208
05/29/2014  07:00:00      -13.759      -16.776        5.326       25.975       17.001       15.230      674.680      289.048      231.964        0.085        0.060       21.697       14.308        0.435      336.670        8.128      863.200
05/29/2014  07:01:00        3.358      -29.174       14.591       25.560       23.867       17.335      653.288      569.635      300.508        0.130        0.076       29.367       13.810        0.221      336.707        8.192      863.193
05/29/2014  07:02:00      -38.664      -59.386        4.555       23.028       24.814       17.277      530.287      615.722      298.486        0.324        0.072       70.863       15.922        0.050      336.654        8.101      863.183
05/29/2014  07:03:00      -19.161      -23.249       11.707       22.800       21.719       15.427      519.819      471.713      237.984        0.114        0.061       30.127       13.941        0.214      336.841        8.413      863.194
05/29/2014  07:04:00      -15.505      -10.280       -0.918       18.449       12.876       11.701      340.366      165.789      136.913        0.049        0.032       18.603       11.467        0.380      336.900        8.512      863.197
05/29/2014  07:05:00      -25.220       -2.783       -1.259        8.417       16.115       11.220       70.839      259.696      125.881        0.055        0.023       25.373        7.459        0.086      336.810        8.363      863.220
05/29/2014  07:06:00      -18.427        8.628        7.747       12.124       10.963       16.037      146.982      120.197      257.187        0.050        0.026       20.347       11.779        0.335      337.212        9.033      863.214
05/29/2014  07:07:00      -29.489       19.714        8.469       14.288       13.185       13.631      204.153      173.842      185.802        0.095        0.028       35.472       10.462        0.087      337.058        8.777      863.217
05/29/2014  07:08:00      -27.484        7.326       -2.017       10.138        9.923       12.117      102.779       98.467      146.830        0.058        0.017       28.443        4.069        0.020      336.968        8.627      863.198
05/29/2014  07:09:00      -36.191       -8.713       -0.761        9.466       10.106        6.687       89.613      102.137       44.714        0.081        0.012       37.225        5.011        0.018      336.921        8.547      863.190
05/29/2014  07:10:00      -48.241      -15.095       -1.593        8.083        8.920        7.071       65.341       79.571       49.997        0.138        0.010       50.548        4.257        0.007      336.935        8.570      863.171
05/29/2014  07:11:00      -34.447      -10.967       -1.565        7.882       11.129        8.999       62.122      123.852       80.979        0.079        0.013       36.151        5.082        0.020      337.001        8.680      863.171
05/29/2014  07:12:00      -29.064      -20.330       -1.452        9.806       14.259        9.640       96.164      203.326       92.923        0.083        0.020       35.468        7.207        0.041      337.119        8.877      863.159
05/29/2014  07:13:00      -24.120       -8.389       -0.760       13.709       12.670       12.409      187.930      160.534      153.982        0.058        0.025       25.537       11.620        0.207      337.322        9.219      863.162
05/29/2014  07:14:00      -29.401      -14.044        1.001        8.458        9.710       11.057       71.530       94.279      122.262        0.068        0.014       32.583        5.526        0.029      337.216        9.042      863.167
05/29/2014  07:15:00      -29.731       -6.804       -0.171        9.851       10.303        8.950       97.043      106.152       80.104        0.061        0.014       30.500        5.520        0.033      337.255        9.107      863.171
05/29/2014  07:16:00      -12.347       -1.934       16.437       11.908       10.852       17.234      141.809      117.774      296.996        0.049        0.028       12.498       12.208        0.954      337.868       10.133      863.187
05/29/2014  07:17:00       -6.106       15.532       42.630        6.914       18.736       12.787       47.798      351.037      163.516        0.133        0.028       16.689       10.248        0.377      337.978       10.318      863.195
05/29/2014  07:18:00       -3.098       13.280       40.745       15.856       24.224       12.801      251.409      586.802      163.857        0.142        0.050       13.636        6.611        0.235      338.025       10.397      863.204
05/29/2014  07:19:00      -12.677       28.826       51.177       13.450       28.952       15.158      180.913      838.222      229.764        0.243        0.062       31.490       12.656        0.162      337.972       10.308      863.211
05/29/2014  07:20:00        8.919       12.444       33.397       23.089       28.988       17.095      533.109      840.326      292.247        0.151        0.083       15.310       11.256        0.541      337.961       10.288      863.205
05/29/2014  07:21:00        5.553       23.912       24.784       12.302       20.908       20.147      151.344      437.128      405.909        0.111        0.050       24.548       11.503        0.220      337.761        9.954      863.200
05/29/2014  07:22:00       -6.943        8.410       34.758       18.760       18.688       19.359      351.920      349.230      374.767        0.120        0.054       10.906       13.550        1.544      338.146       10.599      863.195
05/29/2014  07:23:00       -2.224        6.918       21.257        9.141       14.563       17.558       83.560      212.087      308.285        0.055        0.030        7.267       13.246        3.323      338.222       10.727      863.187
05/29/2014  07:24:00        0.176        9.220       28.179       10.356       14.022       15.638      107.252      196.606      244.545        0.071        0.027        9.222        6.429        0.486      338.267       10.802      863.174
05/29/2014  07:25:00       -4.460       31.772       57.293       13.854       26.163       14.913      191.946      684.479      222.401        0.271        0.055       32.083       12.380        0.149      338.162       10.626      863.171
05/29/2014  07:26:00       -0.276       44.267       64.352       25.177       33.188       18.151      633.877     1101.414      329.470        0.408        0.103       44.268       18.689        0.178      337.962       10.291      863.168
05/29/2014  07:27:00       38.699       15.895       16.604       23.191       16.443       19.934      537.820      270.374      397.382        0.162        0.060       41.837       13.424        0.103      337.832       10.071      863.176
05/29/2014  07:28:00       45.905       14.275       29.206       35.483       23.500       23.280     1259.032      552.248      541.937        0.276        0.118       48.073       10.938        0.052      337.831       10.070      863.178
05/29/2014  07:29:00        6.655       32.517       37.231       15.488       22.794       13.504      239.865      519.583      182.352        0.171        0.047       33.191        8.158        0.060      338.077       10.483      863.185
05/29/2014  07:30:00       32.119       37.530       44.015       28.586       25.901       19.734      817.148      670.883      389.434        0.313        0.094       49.398       12.627        0.065      338.069       10.471      863.205
05/29/2014  07:31:00      103.195       60.339        4.690       36.845       25.908       27.530     1357.569      671.216      757.917        0.855        0.139      119.541       18.391        0.024      337.769        9.967      863.225
05/29/2014  07:32:00      101.395       56.221        2.895       29.007       27.831       23.204      841.424      774.557      538.443        0.780        0.108      115.938       14.433        0.015      337.790       10.003      863.231
05/29/2014  07:33:00       57.857       27.577       -0.174       20.514       18.882       18.119      420.823      356.542      328.285        0.261        0.055       64.093       12.737        0.039      337.743        9.923      863.237
05/29/2014  07:34:00       42.518       40.272      -10.717       17.822       19.515       21.815      317.626      380.826      475.879        0.236        0.059       58.563       14.769        0.064      337.839       10.083      863.228
05/29/2014  07:35:00       44.789       40.594       14.372       33.434       27.586       24.690     1117.801      760.992      609.618        0.317        0.124       60.447       20.833        0.119      338.125       10.566      863.222
05/29/2014  07:36:00       38.935       48.053       49.182       30.369       37.917       31.990      922.298     1437.709     1023.371        0.481        0.169       61.847       19.421        0.099      338.240       10.757      863.204
05/29/2014  07:37:00       30.850       41.759       53.309       43.393       45.203       34.625     1882.956     2043.297     1198.919        0.533        0.256       51.919       30.748        0.351      338.298       10.856      863.192
05/29/2014  07:38:00       44.791       39.418       73.374       41.198       63.105       34.312     1697.302     3982.244     1177.322        0.790        0.343       59.666       37.842        0.402      338.414       11.048      863.179
05/29/2014  07:39:00      108.777       57.441       63.626       51.622       51.478       46.755     2664.857     2649.959     2186.016        1.334        0.375      123.011       43.015        0.122      337.801       10.021      863.178
05/29/2014  07:40:00       69.695        5.002       23.295       41.975       39.530       29.620     1761.870     1562.625      877.330        0.481        0.210       69.874       25.662        0.135      337.945       10.263      863.174
05/29/2014  07:41:00       59.154       28.777       48.394       35.037       50.157       22.495     1227.574     2515.741      506.009        0.546        0.212       65.783       25.006        0.144      338.113       10.545      863.174
05/29/2014  07:42:00       28.193       43.488       64.111       36.981       62.261       39.370     1367.621     3876.429     1549.980        0.679        0.340       51.827       40.738        0.618      338.208       10.704      863.171
05/29/2014  07:43:00       47.602       70.027       81.829       36.460       36.768       23.855     1329.352     1351.850      569.076        0.856        0.163       84.674       22.302        0.069      337.907       10.199      863.179
05/29/2014  07:44:00       24.804        6.009       51.798       34.856       51.621       33.852     1214.907     2664.720     1145.963        0.418        0.251       25.522       32.234        1.595      338.346       10.936      863.182
05/29/2014  07:45:00        9.417       23.197       24.902       27.296       38.264       27.295      745.090     1464.159      745.036        0.210        0.148       25.035       20.899        0.697      338.633       11.417      863.182
05/29/2014  07:46:00       47.063       48.775       13.873       48.624       40.426       29.134     2364.340     1634.280      848.784        0.482        0.242       67.778       30.667        0.205      338.446       11.103      863.183
05/29/2014  07:47:00       -5.426       32.662       19.608       40.886       49.115       27.544     1671.696     2412.258      758.653        0.316        0.242       33.110       19.195        0.336      338.472       11.147      863.188
05/29/2014  07:48:00       55.371       49.699       61.242       59.567       64.188       42.875     3548.190     4120.129     1838.282        0.939        0.475       74.404       44.271        0.354      338.349       10.941      863.204
05/29/2014  07:49:00      117.356       67.800        3.867       55.041       47.202       33.367     3029.501     2228.019     1113.340        1.238        0.319      135.534       26.982        0.040      338.200       10.691      863.218
05/29/2014  07:50:00       84.395       41.481       12.948       45.396       34.252       34.811     2060.764     1173.229     1211.785        0.673        0.222       94.039       25.208        0.072      338.488       11.173      863.232
05/29/2014  07:51:00      131.030       72.457       21.599       75.965       50.108       49.135     5770.689     2510.832     2414.289        1.679        0.535      149.730       36.995        0.061      338.329       10.905      863.236
05/29/2014  07:52:00      211.276      121.200       31.693       95.968       61.442       67.221     9209.937     3775.079     4518.637        3.891        0.875      243.571       65.639        0.073      338.062       10.455      863.232
05/29/2014  07:53:00      169.661      114.542       12.140       55.707       40.394       42.880     3103.228     1631.697     1838.736        2.431        0.329      204.706       10.083        0.002      338.038       10.416      863.238
05/29/2014  07:54:00      127.148       58.869       12.883       59.746       49.183       40.071     3569.577     2418.940     1605.722        1.369        0.380      140.115       29.314        0.044      338.183       10.662      863.242
05/29/2014  07:55:00       95.634       74.855       26.163       51.732       39.861       39.109     2676.220     1588.929     1529.481        1.061        0.290      121.446       10.454        0.007      338.161       10.625      863.240
05/29/2014  07:56:00       67.758       59.926        7.631       36.224       23.706       31.396     1312.142      561.963      985.736        0.555        0.143       90.456       19.777        0.048      338.234       10.747      863.231
05/29/2014  07:57:00       50.030       55.659       -0.055       44.514       35.669       29.763     1981.530     1272.300      885.862        0.487        0.207       74.839       19.201        0.066      338.224       10.731      863.223
05/29/2014  07:58:00       43.335       50.582       22.786       50.722       45.440       27.996     2572.696     2064.812      783.774        0.519        0.271       66.607       17.165        0.066      338.752       11.617      863.226
05/29/2014  07:59:00       62.838       47.572       55.057       62.614       38.319       35.192     3920.533     1468.311     1238.512        0.793        0.331       78.815       32.744        0.173      338.525       11.235      863.232
05/29/2014  08:00:00      138.488       96.262       31.173       78.636       58.567       55.456     6183.639     3430.101     3075.413        2.105        0.634      168.657       44.686        0.070      338.527       11.237      863.237
05/29/2014  08:01:00       87.753       64.205       49.869       68.971       64.758       61.366     4756.970     4193.579     3765.809        1.351        0.636      108.733       53.427        0.241      338.685       11.505      863.236
05/29/2014  08:02:00      133.051       91.036       48.511       67.156       54.859       61.437     4509.880     3009.530     3774.534        1.982        0.565      161.214       30.381        0.036      338.463       11.130      863.236
05/29/2014  08:03:00      168.792       84.697       45.049       74.386       56.634       49.406     5533.287     3207.358     2440.911        2.444        0.559      188.850       38.110        0.041      338.340       10.924      863.251
05/29/2014  08:04:00      176.322      107.411        3.000       57.749       55.308       41.041     3334.914     3058.931     1684.399        2.536        0.404      206.462       31.260        0.023      338.181       10.655      863.252
05/29/2014  08:05:00      140.465       75.968       19.411       75.312       42.304       46.536     5671.896     1789.590     2165.635        1.775        0.481      159.692       30.549        0.037      338.399       11.025      863.249
05/29/2014  08:06:00      158.771       97.727       76.880      103.020       65.468       58.074    10613.206     4286.074     3372.589        2.947        0.914      186.437       55.213        0.088      338.386       10.999      863.256
05/29/2014  08:07:00      118.413       47.732       39.546       78.939       55.437       57.382     6231.300     3073.228     3292.738        1.523        0.630      127.671       39.700        0.097      338.607       11.372      863.255
05/29/2014  08:08:00       71.929       46.586       50.444       46.008       39.582       31.910     2116.752     1566.731     1018.278        0.729        0.235       85.697       18.055        0.044      338.924       11.906      863.260
05/29/2014  08:09:00       20.477       42.183       56.563       56.091       55.057       51.733     3146.197     3031.274     2676.341        0.712        0.443       46.890       44.713        0.909      339.027       12.079      863.253
05/29/2014  08:10:00       86.270       59.943        3.640       44.176       41.708       35.976     1951.484     1739.593     1294.287        0.802        0.249      105.051       26.560        0.064      338.949       11.948      863.252
05/29/2014  08:11:00       48.068       63.857       58.332       60.716       44.452       32.428     3686.391     1975.967     1051.582        0.825        0.336       79.926       14.046        0.031      338.881       11.835      863.264
05/29/2014  08:12:00        9.622       24.100       37.977       28.970       25.449       33.484      839.233      647.655     1121.185        0.236        0.130       25.950       15.104        0.339      339.276       12.499      863.258
05/29/2014  08:13:00       67.553       57.250       51.430       77.963       38.471       45.182     6078.210     1480.001     2041.373        1.004        0.480       88.549       50.885        0.330      339.069       12.148      863.276
05/29/2014  08:14:00      136.745       87.411       26.988       47.631       48.306       46.295     2268.744     2333.512     2143.221        1.691        0.337      162.295       31.138        0.037      338.644       11.434      863.282
05/29/2014  08:15:00      131.406       91.655       22.748       48.310       46.223       33.165     2333.841     2136.555     1099.906        1.588        0.279      160.212       25.213        0.025      338.435       11.084      863.285
05/29/2014  08:16:00       63.639       64.163       65.800       55.724       40.272       37.750     3105.126     1621.873     1425.066        0.932        0.308       90.370       24.191        0.072      338.921       11.901      863.279
05/29/2014  08:17:00      106.558       71.273       39.972       49.440       38.725       44.023     2444.281     1499.631     1938.048        1.196        0.294      128.197       25.534        0.040      338.826       11.742      863.283
05/29/2014  08:18:00       83.057       55.177       49.608       68.746       47.809       53.246     4726.045     2285.669     2835.121        1.112        0.492       99.714       38.872        0.152      338.924       11.908      863.278
05/29/2014  08:19:00      120.175       85.725        8.340       50.016       37.208       37.117     2501.646     1384.434     1377.682        1.356        0.263      147.617       19.472        0.017      338.750       11.612      863.276
05/29/2014  08:20:00       62.850       81.933       11.960       61.017       61.889       60.535     3723.016     3830.275     3664.533        1.101        0.561      103.263       49.525        0.230      338.748       11.611      863.282
05/29/2014  08:21:00      113.814      106.994       42.683       75.668       57.041       62.705     5725.603     3253.659     3931.932        1.956        0.646      156.210       28.648        0.034      338.759       11.627      863.263
05/29/2014  08:22:00       79.635       32.141       58.354       56.693       49.112       46.166     3214.097     2412.006     2131.275        0.927        0.388       85.876       36.449        0.180      338.619       11.394      863.280
05/29/2014  08:23:00      122.661       53.023       25.185       73.558       47.826       43.325     5410.782     2287.303     1877.055        1.403        0.479      133.630       31.983        0.057      338.839       11.763      863.283
05/29/2014  08:24:00      171.935      119.248        2.662       57.513       52.374       44.224     3307.698     2743.060     1955.721        2.590        0.400      209.241       28.066        0.018      338.589       11.342      863.286
05/29/2014  08:25:00      194.930      139.957       59.092       66.629       59.359       53.844     4439.381     3523.443     2899.218        3.597        0.543      239.970       33.791        0.020      338.710       11.543      863.279
05/29/2014  08:26:00      128.869       81.849       21.077       60.085       44.415       46.598     3610.206     1972.713     2171.391        1.575        0.388      152.665       23.733        0.024      338.845       11.774      863.291
05/29/2014  08:27:00      116.992       99.591        7.136       57.872       42.304       43.980     3349.222     1789.612     1934.229        1.536        0.354      153.641       25.970        0.029      338.611       11.380      863.300
05/29/2014  08:28:00       82.868      129.976        2.077       66.349       62.250       51.432     4402.205     3875.008     2645.275        1.734        0.546      154.145       44.214        0.082      338.656       11.455      863.291
05/29/2014  08:29:00       66.419       60.379       10.882       57.336       46.749       34.459     3287.430     2185.505     1187.429        0.742        0.333       89.761       31.605        0.124      338.989       12.016      863.289
05/29/2014  08:30:00       66.228       58.217       28.105       56.910       45.496       34.975     3238.741     2069.860     1223.274        0.755        0.327       88.178       29.014        0.108      339.196       12.364      863.288
05/29/2014  08:31:00       38.168       46.133       36.788       37.559       38.054       33.839     1410.708     1448.073     1145.057        0.447        0.200       59.876       10.362        0.030      339.242       12.444      863.285
05/29/2014  08:32:00       23.190       76.877        5.946       48.409       51.066       35.128     2343.464     2607.750     1233.963        0.633        0.309       80.299       28.374        0.125      339.056       12.130      863.279
05/29/2014  08:33:00       92.167       91.263        4.475       78.473       47.685       45.374     6158.088     2273.854     2058.780        1.367        0.525      129.706       30.539        0.055      338.889       11.848      863.286
05/29/2014  08:34:00       71.297      123.570       -1.306       70.809       70.492       55.011     5013.858     4969.117     3026.194        1.668        0.650      142.664       48.766        0.117      338.909       11.879      863.274
05/29/2014  08:35:00       92.103       98.364       -1.735       52.777       51.829       50.502     2785.422     2686.231     2550.493        1.309        0.401      134.753       37.800        0.079      338.782       11.668      863.283
05/29/2014  08:36:00      105.694       52.256       17.207       60.595       46.301       30.501     3671.745     2143.752      930.325        1.047        0.337      117.907       22.741        0.037      338.818       11.729      863.283
05/29/2014  08:37:00       85.179       48.519        5.735       49.671       38.811       32.284     2467.227     1506.259     1042.242        0.733        0.251       98.028       18.165        0.034      338.847       11.779      863.278
05/29/2014  08:38:00       55.785       94.157       76.633       49.658       45.591       34.293     2465.931     2078.511     1176.039        1.178        0.286      109.442       29.603        0.073      338.896       11.861      863.270
05/29/2014  08:39:00       60.952       82.626       93.526       58.525       61.216       37.803     3425.232     3747.401     1429.035        1.394        0.430      102.675       36.111        0.124      339.058       12.133      863.256
05/29/2014  08:40:00      106.181       65.393       21.546       72.551       58.731       50.602     5263.682     3449.384     2560.609        1.364        0.564      124.703       30.792        0.061      339.293       12.526      863.249
05/29/2014  08:41:00       65.783       74.859       77.729       79.191       65.080       53.162     6271.187     4235.460     2826.209        1.465        0.667       99.656       33.316        0.112      339.450       12.793      863.243
05/29/2014  08:42:00      102.844       38.118       56.845       63.076       74.883       53.409     3978.556     5607.487     2852.475        1.385        0.622      109.681       25.918        0.056      339.094       12.193      863.250
05/29/2014  08:43:00      141.052       72.603       31.597       66.576       56.744       47.667     4432.380     3219.916     2272.123        1.804        0.496      158.640       31.192        0.039      338.879       11.829      863.268
05/29/2014  08:44:00       70.097       52.701       50.117       65.209       35.901       45.459     4252.159     1288.905     2066.544        0.890        0.380       87.698       39.401        0.202      339.196       12.363      863.269
05/29/2014  08:45:00       84.394      103.234      102.441       68.532       75.563       48.146     4696.642     5709.765     2318.029        2.050        0.636      133.340       43.064        0.104      339.419       12.739      863.257
05/29/2014  08:46:00      120.656       78.138       77.322       87.849       57.877       63.074     7717.431     3349.702     3978.306        2.084        0.752      143.747       32.783        0.052      339.204       12.376      863.269
05/29/2014  08:47:00       23.795        1.047       62.517       56.357       96.207       55.085     3176.085     9255.784     3034.390        0.997        0.773       23.818       62.406        6.865      339.657       13.139      863.262
05/29/2014  08:48:00       81.851       92.635       77.062       82.117       75.868       59.831     6743.173     5755.906     3579.735        1.865        0.804      123.616       58.794        0.226      339.544       12.950      863.258
05/29/2014  08:49:00       54.136       96.186       74.076       74.044       39.857       36.988     5482.542     1588.615     1368.094        1.305        0.422      110.375       34.790        0.099      339.615       13.069      863.262
05/29/2014  08:50:00      107.900       75.597       50.107      109.128       64.649       51.613    11908.886     4179.551     2663.880        1.931        0.938      131.747       25.346        0.037      339.800       13.381      863.260
05/29/2014  08:51:00      156.767       93.186       23.492       81.734       55.000       68.164     6680.506     3025.003     4646.331        2.408        0.718      182.372       44.467        0.059      339.410       12.723      863.256
05/29/2014  08:52:00      106.852       23.164       16.560       79.202       59.792       61.705     6272.946     3575.059     3807.479        1.294        0.683      109.334       46.934        0.184      339.213       12.392      863.254
05/29/2014  08:53:00       78.294       50.342       17.565       54.814       44.030       33.381     3004.623     1938.615     1114.264        0.751        0.303       93.082       28.250        0.092      339.634       13.103      863.237
05/29/2014  08:54:00      144.512       76.173       47.360      134.684       74.466       60.385    18139.883     5545.253     3646.315        2.812        1.367      163.358       46.802        0.082      339.475       12.832      863.213
05/29/2014  08:55:00      226.348      156.188       30.305       90.627       67.992       78.935     8213.212     4622.920     6230.691        4.780        0.953      275.006       24.282        0.008      339.127       12.245      863.212
05/29/2014  08:56:00      137.988      109.256       37.915       74.386       53.314       50.145     5533.322     2842.338     2514.520        2.165        0.545      176.004       36.437        0.043      339.394       12.695      863.206
05/29/2014  08:57:00      131.659       82.972       34.236       98.629       72.469       60.562     9727.736     5251.704     3667.749        2.202        0.932      155.622       39.629        0.065      339.749       13.294      863.220
05/29/2014  08:58:00      128.970       75.622       33.787      113.434       71.200       61.974    12867.213     5069.494     3840.838        2.263        1.089      149.506       19.532        0.017      339.612       13.064      863.229
05/29/2014  08:59:00      223.415      111.979       41.753      117.684      113.215       63.488    13849.540    12817.722     4030.701        4.744        1.535      249.907       51.949        0.043      339.328       12.583      863.232
05/29/2014  09:00:00      170.363      102.841       34.613      100.390       76.702       63.832    10078.139     5883.235     4074.551        3.041        1.002      198.997       52.254        0.069      339.422       12.742      863.243
05/29/2014  09:01:00       99.310       45.559        3.869       67.651       46.371       34.990     4576.630     2150.270     1224.287        0.995        0.398      109.262       18.062        0.027      339.560       12.978      863.245
05/29/2014  09:02:00      143.371      116.783        4.626       50.982       44.353       44.372     2599.139     1967.184     1968.886        2.037        0.327      184.915       31.917        0.030      339.367       12.650      863.240
05/29/2014  09:03:00      164.515      113.570       32.016      123.807       90.236       66.227    15328.186     8142.569     4386.005        3.442        1.393      199.909       40.517        0.041      339.562       12.981      863.224
05/29/2014  09:04:00      173.854       89.699       16.617       87.149       77.810       57.985     7594.953     6054.373     3362.305        2.778        0.851      195.630       36.723        0.035      339.641       13.110      863.230
05/29/2014  09:05:00      149.212      109.148       30.330       62.335       57.904       51.896     3885.692     3352.827     2693.214        2.251        0.497      184.871       27.345        0.022      339.477       12.835      863.230
05/29/2014  09:06:00       67.141       -6.779       48.283       45.689       85.025       40.291     2087.497     7229.277     1623.328        0.891        0.547       67.483       41.013        0.369      339.809       13.398      863.217
05/29/2014  09:07:00       88.291       80.764       67.678      100.872       60.196       50.778    10175.207     3623.522     2578.391        1.763        0.819      119.658       48.403        0.164      339.802       13.385      863.202
05/29/2014  09:08:00      185.140      102.272       40.014      110.538       74.115       54.027    12218.570     5493.081     2918.873        3.348        1.032      211.510       35.997        0.029      339.690       13.194      863.194
05/29/2014  09:09:00      126.964      -24.359       49.280      117.448      121.486       59.403    13794.117    14758.945     3528.675        2.561        1.604      129.280       72.953        0.318      340.014       13.742      863.174
05/29/2014  09:10:00      149.751       47.287       56.316       88.696       83.808       65.665     7866.905     7023.849     4311.862        2.351        0.960      157.040       52.959        0.114      340.060       13.818      863.168
05/29/2014  09:11:00      113.983       56.026       47.860      111.302       83.306       69.486    12388.202     6939.811     4828.278        2.128        1.208      127.008       33.149        0.068      340.130       13.937      863.166
05/29/2014  09:12:00      159.264      117.572       93.731       93.295       69.323       69.666     8703.941     4805.671     4853.396        3.316        0.918      197.960       47.633        0.058      339.979       13.681      863.144
05/29/2014  09:13:00       76.141      101.424      108.026       78.266       86.518       65.327     6125.644     7485.326     4267.636        2.281        0.894      126.824       58.864        0.215      340.190       14.038      863.154
05/29/2014  09:14:00      136.597       41.223       81.410       99.302       80.317       68.211     9860.825     6450.762     4652.685        2.397        1.048      142.682       71.151        0.249      339.950       13.634      863.142
05/29/2014  09:15:00       85.516       62.766       85.874       77.715       83.787       51.898     6039.624     7020.278     2693.420        1.719        0.788      106.078       37.189        0.123      340.233       14.111      863.129
05/29/2014  09:16:00      192.614      127.913      108.915       93.628      105.156       75.084     8766.190    11057.775     5637.623        4.539        1.273      231.218       63.923        0.076      339.843       13.450      863.135
05/29/2014  09:17:00      146.453       73.104       56.784      147.745      105.102       90.146    21828.698    11046.399     8126.351        3.550        2.050      163.685       81.360        0.247      339.965       13.658      863.122
05/29/2014  09:18:00      170.513      108.756       13.029       76.242       59.790       61.483     5812.778     3574.837     3780.216        2.712        0.658      202.244       45.473        0.051      339.769       13.326      863.113
05/29/2014  09:19:00      166.577       92.241       88.391      116.356       93.998       78.217    13538.797     8835.540     6117.869        3.627        1.425      190.411       58.710        0.095      339.943       13.619      863.087
05/29/2014  09:20:00      121.555      146.238      120.781       99.899      105.638       82.704     9979.746    11159.349     6839.953        3.936        1.399      190.161       72.332        0.145      339.813       13.399      863.063
05/29/2014  09:21:00      129.707       67.824       49.840       84.754       71.773       82.975     7183.185     5151.431     6884.785        2.156        0.961      146.370       53.129        0.132      339.909       13.564      863.062
05/29/2014  09:22:00      172.300      105.365       38.764      124.047       78.838       59.870    15387.706     6215.479     3584.393        3.373        1.259      201.963       64.494        0.102      339.993       13.705      863.043
05/29/2014  09:23:00      244.299       63.726       48.803      127.638       94.745       66.666    16291.443     8976.657     4444.345        4.791        1.486      252.474       54.701        0.047      340.125       13.926      863.018
05/29/2014  09:24:00      185.792      137.005      103.871      170.368      107.209      104.114    29025.365    11493.813    10839.654        5.771        2.568      230.844       96.087        0.173      340.097       13.879      862.986
05/29/2014  09:25:00      208.619      123.967       77.537      129.715      108.528       82.898    16825.907    11778.256     6872.046        5.018        1.774      242.672       62.295        0.066      340.323       14.260      862.976
05/29/2014  09:26:00      254.138      195.430      105.022      145.114      129.246      128.877    21058.052    16704.495    16609.385        8.408        2.719      320.592       87.255        0.074      340.237       14.116      862.969
05/29/2014  09:27:00       67.915       75.190       21.418      132.849       94.179       54.626    17648.753     8869.606     2984.008        2.011        1.475      101.321       30.234        0.089      340.111       13.905      862.998
05/29/2014  09:28:00      113.114      -65.223       38.608       84.067      121.520       65.714     7067.211    14767.043     4318.394        2.234        1.308      130.571       80.553        0.381      340.151       13.974      862.994
05/29/2014  09:29:00      139.935       38.155       32.692       75.704       75.738       62.315     5731.094     5736.197     3883.110        1.873        0.768      145.044       35.411        0.060      340.193       14.043      862.982
05/29/2014  09:30:00      120.866      107.933      110.618      103.119       75.980       71.058    10633.567     5773.000     5049.221        2.997        1.073      162.044       57.269        0.125      340.242       14.125      862.981
05/29/2014  09:31:00      121.234      130.957      120.765       91.828       79.385       68.517     8432.401     6302.047     4694.613        3.293        0.971      178.458       51.499        0.083      340.062       13.820      862.980
05/29/2014  09:32:00      148.817       93.475       32.382       84.483       90.069       62.501     7137.380     8112.425     3906.365        2.554        0.958      175.739       36.049        0.042      340.129       13.933      862.985
05/29/2014  09:33:00      194.301      106.432       25.462       62.057       76.970       56.664     3851.056     5924.366     3210.859        3.135        0.649      221.541       16.965        0.006      340.285       14.197      862.988
05/29/2014  09:34:00       71.207       57.441       22.168       69.852       64.535       56.811     4879.323     4164.763     3227.526        1.056        0.614       91.487       21.433        0.055      340.494       14.553      862.987
05/29/2014  09:35:00       80.377     -143.790       11.407       82.985      150.247       65.649     6886.543    22574.307     4309.760        3.051        1.689      164.730       88.200        0.287      340.186       14.030      862.967
05/29/2014  09:36:00       49.368     -131.360       31.563       75.917      126.878       68.394     5763.463    16097.916     4677.759        2.361        1.327      140.330       70.424        0.252      340.567       14.675      862.937
05/29/2014  09:37:00       99.878      -64.732       39.535       77.219       84.242       55.797     5962.734     7096.638     3113.266        1.595        0.809      119.021       61.631        0.268      340.407       14.406      862.943
05/29/2014  09:38:00      129.759      122.411       73.732      105.607       82.061       68.796    11152.939     6733.970     4732.955        2.993        1.131      178.387       65.677        0.136      340.278       14.187      862.944
05/29/2014  09:39:00      169.999      114.448       19.090      127.735       83.512       66.966    16316.315     6974.207     4484.474        3.506        1.389      204.934       52.510        0.066      340.389       14.374      862.906
05/29/2014  09:40:00       70.777       47.907       68.707      103.036      105.177       57.754    10616.507    11062.136     3335.469        1.851        1.251       85.466       36.312        0.181      340.964       15.347      862.881
05/29/2014  09:41:00       65.581       29.407       75.199       68.284       91.303       64.279     4662.686     8336.323     4131.754        1.397        0.857       71.872       51.041        0.504      340.827       15.117      862.895
05/29/2014  09:42:00      218.388      133.519      112.981      156.175      135.763       91.073    24390.651    18431.607     8294.218        6.469        2.556      255.970       70.265        0.075      340.544       14.635      862.877
05/29/2014  09:43:00      235.841      125.090       59.827      142.738      101.878       97.825    20374.112    10379.207     9569.734        5.758        2.016      266.962       65.488        0.060      340.385       14.366      862.880
05/29/2014  09:44:00      141.927       86.615      112.351      135.774       98.475       88.113    18434.643     9697.300     7763.980        3.807        1.795      166.269       82.888        0.249      340.681       14.867      862.893
05/29/2014  09:45:00      117.158      -37.574       47.062      145.931      144.626       98.821    21295.789    20916.666     9765.602        3.465        2.599      123.036      102.442        0.693      340.680       14.868      862.865
05/29/2014  09:46:00      146.637     -190.544       12.912      184.002      204.028      119.540    33856.553    41627.354    14289.872        7.386        4.489      240.436      144.178        0.360      340.602       14.734      862.818
05/29/2014  09:47:00       80.661      -50.296      110.112      132.836      177.760       88.900    17645.395    31598.585     7903.227        3.914        2.857       95.057      125.037        1.730      340.616       14.759      862.859
05/29/2014  09:48:00      164.754     -115.484       54.438      158.428      159.797      100.609    25099.335    25535.173    10122.103        5.209        3.038      201.197      110.622        0.302      340.480       14.529      862.861
05/29/2014  09:49:00       99.895      -36.326       77.940      122.702      231.676      151.917    15055.671    53673.636    23078.670        5.457        4.590      106.295      182.675        2.953      340.603       14.736      862.867
05/29/2014  09:50:00      140.461     -161.781       10.597      117.244      178.551       87.901    13746.221    31880.392     7726.559        4.967        2.668      214.249      108.265        0.255      340.576       14.690      862.873
05/29/2014  09:51:00      171.719     -139.956       43.780      119.263      184.193      134.483    14223.571    33927.214    18085.728        5.860        3.312      221.529      144.247        0.424      340.616       14.758      862.828
05/29/2014  09:52:00      144.062     -212.405      -13.604      144.038      175.498       79.482    20747.036    30799.530     6317.429        6.195        2.893      256.651      104.537        0.166      340.494       14.551      862.845
05/29/2014  09:53:00       -4.641      -73.616       17.594       60.422       76.486       48.305     3650.842     5850.098     2333.417        0.879        0.592       73.763       20.420        0.077      340.907       15.252      862.862
05/29/2014  09:54:00       31.312      -16.298       47.487       43.819       70.332       55.202     1920.137     4946.631     3047.299        0.671        0.496       35.299       39.187        1.232      340.878       15.202      862.866
05/29/2014  09:55:00       -6.044       23.833       58.288       23.437       38.444       30.412      549.288     1477.945      924.874        0.348        0.148       24.588       24.984        1.033      341.388       16.068      862.872
05/29/2014  09:56:00       34.277       18.100       77.458       83.024      102.474       53.847     6892.988    10500.871     2899.504        1.389        1.015       38.762       64.955        2.808      341.061       15.511      862.893
05/29/2014  09:57:00      112.787      -67.604       48.302      106.261      137.356       78.174    11291.367    18866.672     6111.221        2.794        1.813      131.496      103.389        0.618      340.628       14.779      862.910
05/29/2014  09:58:00       38.024       23.250       78.096       69.511       89.860       58.607     4831.816     8074.819     3434.784        1.221        0.817       44.569       65.267        2.144      340.879       15.205      862.895
05/29/2014  09:59:00       78.259     -183.571       -6.911       93.556       90.678       53.054     8752.796     8222.542     2814.748        2.983        0.990      199.557       50.023        0.063      340.423       14.431      862.869
05/29/2014  10:00:00       46.971      -80.985       20.818       55.399       99.918       50.761     3069.017     9983.700     2576.645        1.241        0.781       93.620       62.705        0.449      341.204       15.755      862.826
05/29/2014  10:01:00        7.252      -15.243       60.052       44.495       61.550       36.334     1979.771     3788.462     1320.136        0.549        0.354       16.880       33.216        3.872      341.216       15.774      862.815
05/29/2014  10:02:00       11.043      -79.863        9.231       49.185       62.457       58.472     2419.129     3900.852     3418.995        0.816        0.487       80.623       39.708        0.243      340.888       15.219      862.805
05/29/2014  10:03:00      -21.912      -82.828       24.762       74.589       62.826       35.216     5563.535     3947.162     1240.191        0.935        0.538       85.677       30.722        0.129      341.003       15.414      862.793
05/29/2014  10:04:00      -65.332      -67.760        7.212      107.860       60.121       46.378    11633.806     3614.506     2150.879        1.315        0.870       94.126       35.426        0.142      340.909       15.255      862.770
05/29/2014  10:05:00      -18.815       -3.606       32.454       92.734      101.306       50.601     8599.669    10262.994     2560.464        1.142        1.071       19.157       50.056        6.827      340.848       15.153      862.759
05/29/2014  10:06:00      105.716       73.322       56.492       90.259       52.509       48.401     8146.618     2757.175     2342.677        1.649        0.662      128.654       46.486        0.131      340.791       15.055      862.776
05/29/2014  10:07:00      102.066       45.231      104.802      105.927      147.058       90.166    11220.604    21626.049     8129.945        3.220        2.049      111.640       91.409        0.670      340.895       15.229      862.761
05/29/2014  10:08:00      130.296       52.222       56.367      110.109       82.601       60.457    12124.010     6822.954     3655.031        2.274        1.130      140.372       62.120        0.196      340.916       15.266      862.777
05/29/2014  10:09:00      105.593       87.734       93.487      102.709       70.702       52.622    10549.087     4998.739     2769.042        2.295        0.916      137.285       45.667        0.111      340.800       15.068      862.766
05/29/2014  10:10:00      116.562       88.934       91.818      104.894       75.837       69.276    11002.734     5751.247     4799.150        2.574        1.078      146.615       49.028        0.112      340.807       15.081      862.776
05/29/2014  10:11:00      170.968      114.617       80.374      153.895      111.373       91.929    23683.723    12403.855     8450.976        4.667        2.227      205.833       80.473        0.153      341.065       15.517      862.772
05/29/2014  10:12:00      158.426      129.090      101.136      122.096       86.190       82.165    14907.361     7428.764     6751.128        4.053        1.454      204.360       74.271        0.132      340.533       14.614      862.776
05/29/2014  10:13:00      110.874       87.258       84.121      101.937       69.289       61.508    10391.226     4800.917     3783.290        2.298        0.949      141.092       55.023        0.152      340.773       15.023      862.753
05/29/2014  10:14:00       97.394      113.156       77.984      103.287       71.635       85.726    10668.179     5131.640     7349.030        2.576        1.157      149.298       61.820        0.171      340.763       15.005      862.764
05/29/2014  10:15:00      146.357       92.821       24.724       67.459       63.300       53.515     4550.749     4006.913     2863.864        2.103        0.571      173.309       37.155        0.046      340.816       15.095      862.768
05/29/2014  10:16:00       61.530       70.399       18.905       64.892       56.385       45.216     4210.980     3179.288     2044.448        0.927        0.472       93.498       42.184        0.204      341.338       15.981      862.759
05/29/2014  10:17:00       94.687       61.633       78.624       79.136      102.911       70.503     6262.555    10590.704     4970.740        2.038        1.091      112.979       65.403        0.335      341.131       15.629      862.758
05/29/2014  10:18:00       87.025     -117.155       15.750       99.655      115.970       77.018     9931.067    13449.134     5931.835        2.542        1.466      145.941       70.951        0.236      341.077       15.538      862.722
05/29/2014  10:19:00       46.466      -36.454       42.334       95.686       77.489       58.231     9155.759     6004.543     3390.868        1.191        0.928       59.059       48.109        0.664      341.431       16.138      862.731
05/29/2014  10:20:00       51.030      -75.212       53.282       73.292      133.016       89.299     5371.676    17693.285     7974.372        2.106        1.552       90.890       86.168        0.899      341.182       15.716      862.726
05/29/2014  10:21:00       14.190       74.451      128.346       74.719      124.948       79.719     5583.002    15611.926     6355.084        2.488        1.378       75.791       89.266        1.387      341.082       15.547      862.716
05/29/2014  10:22:00       91.919       75.908      103.272      123.530      110.797       74.972    15259.606    12276.037     5620.767        2.901        1.658      119.210       67.352        0.319      340.999       15.407      862.729
05/29/2014  10:23:00      135.704       89.652       76.686      119.377      108.830       68.869    14250.842    11843.942     4742.927        3.158        1.542      162.644       45.409        0.078      340.770       15.018      862.715
05/29/2014  10:24:00       50.272       45.408       48.835       66.646       54.288       34.529     4441.725     2947.182     1192.232        0.778        0.429       67.743       24.196        0.128      341.269       15.865      862.704
05/29/2014  10:25:00       52.400       36.307       40.115       79.407       77.927       49.756     6305.549     6072.660     2475.613        1.026        0.743       63.749       46.772        0.538      341.328       15.964      862.675
05/29/2014  10:26:00       70.178      108.766      119.017       79.409       84.273       47.499     6305.850     7101.881     2256.121        2.329        0.783      129.441       45.827        0.125      341.128       15.624      862.665
05/29/2014  10:27:00       65.261       39.146       67.152       66.001       75.154       60.417     4356.068     5648.060     3650.268        1.197        0.683       76.101       59.127        0.604      340.982       15.378      862.660
05/29/2014  10:28:00       66.655       87.624      132.752       97.344       94.027       75.531     9475.946     8841.102     5704.939        2.688        1.201      110.095       70.624        0.412      340.918       15.271      862.659
05/29/2014  10:29:00      126.320      -33.558       35.081       84.767       83.082       57.912     7185.457     6902.652     3353.766        1.787        0.872      130.702       56.794        0.189      340.640       14.799      862.676
05/29/2014  10:30:00       51.583      -43.625       15.499       61.408       82.225       45.769     3770.921     6760.972     2094.841        0.871        0.631       67.557       31.604        0.219      340.628       14.781      862.662
05/29/2014  10:31:00       38.647       53.799        9.730       48.124       70.066       39.113     2315.907     4909.199     1529.836        0.662        0.438       66.241       42.745        0.416      341.357       16.014      862.628
05/29/2014  10:32:00       78.544       79.454       90.840       79.057       63.355       56.813     6250.049     4013.914     3227.773        1.711        0.675      111.723       41.892        0.141      341.270       15.866      862.607
05/29/2014  10:33:00       57.413       34.376       62.966       83.897      106.868       67.198     7038.765    11420.698     4515.505        1.570        1.149       66.917       64.329        0.924      341.313       15.938      862.573
05/29/2014  10:34:00       40.428      -90.136        8.136       58.367       70.834       49.048     3406.752     5017.461     2405.679        1.033        0.541       98.787       35.700        0.131      341.463       16.193      862.586
05/29/2014  10:35:00       25.970     -112.068       28.924       74.488      123.491       67.294     5548.486    15250.067     4528.432        1.969        1.266      115.037       73.528        0.409      341.815       16.789      862.573
05/29/2014  10:36:00      151.606     -167.583       42.530      186.935      210.007      115.077    34944.695    44102.825    13242.669        7.257        4.615      225.983      143.914        0.406      341.521       16.290      862.567
05/29/2014  10:37:00      100.470       99.375      113.681       95.629      152.787       86.853     9144.916    23343.735     7543.503        3.645        2.002      141.314       85.538        0.366      341.324       15.956      862.634
05/29/2014  10:38:00      209.548      111.325       26.423      106.041       92.893       82.843    11244.750     8629.048     6862.987        4.186        1.337      237.284       66.443        0.078      340.999       15.405      862.666
05/29/2014  10:39:00      241.727      177.760      109.730      141.435      112.505      117.905    20003.811    12657.299    13901.550        7.431        2.328      300.051       80.583        0.072      341.030       15.456      862.644
05/29/2014  10:40:00      203.092      111.666       32.893      107.647       77.484       66.382    11587.914     6003.792     4406.562        3.839        1.100      231.767       44.446        0.037      341.109       15.591      862.650
05/29/2014  10:41:00      149.512      121.762       16.439       80.418       71.046       63.606     6466.995     5047.532     4045.707        2.650        0.778      192.821       41.772        0.047      341.165       15.686      862.647
05/29/2014  10:42:00      150.170      111.586       54.409       90.362       74.071       59.436     8165.317     5486.463     3532.620        2.757        0.859      187.089       53.703        0.082      341.298       15.911      862.640
05/29/2014  10:43:00       49.718       53.628       81.111       59.967       63.032       39.413     3596.004     3972.996     1553.405        1.052        0.456       73.130       31.918        0.190      341.315       15.942      862.630
05/29/2014  10:44:00       16.305       16.081       22.492       29.020       66.087       30.016      842.175     4367.441      900.932        0.357        0.306       22.901       35.163        2.358      341.271       15.869      862.592
05/29/2014  10:45:00       65.781       49.658       17.218       49.846       30.155       36.531     2484.637      909.343     1334.519        0.591        0.236       82.420       22.992        0.078      341.154       15.670      862.572
05/29/2014  10:46:00       74.155       56.167      102.061       99.268      124.708       83.069     9854.123    15552.017     6900.538        2.568        1.615       93.025       65.001        0.488      341.586       16.401      862.547
05/29/2014  10:47:00      267.692      157.979       54.102      113.950      109.163       90.986    12984.623    11916.668     8278.396        6.635        1.659      310.832       64.836        0.044      341.582       16.394      862.526
05/29/2014  10:48:00      235.354      175.648      107.033      106.745      112.024      101.486    11394.450    12549.443    10299.435        6.596        1.712      293.673       78.036        0.071      341.409       16.098      862.553
05/29/2014  10:49:00      280.013      159.099       76.500      131.851      111.988      101.372    17384.648    12541.259    10276.192        7.488        2.010      322.055       82.320        0.065      341.287       15.891      862.556
05/29/2014  10:50:00      318.087      166.941       46.310      129.502      104.885       81.785    16770.838    11000.924     6688.800        8.282        1.723      359.233       53.190        0.022      341.437       16.146      862.576
05/29/2014  10:51:00      143.558       96.960       53.624       94.002       66.537       56.550     8836.413     4427.165     3197.889        2.467        0.823      173.234       42.172        0.059      341.191       15.731      862.615
05/29/2014  10:52:00       61.010       52.286       62.747       65.221       66.604       39.552     4253.719     4436.061     1564.353        1.032        0.513       80.350       14.941        0.035      341.336       15.978      862.580
05/29/2014  10:53:00       24.234       21.537       43.037       29.389       34.757       44.235      863.738     1208.046     1956.705        0.347        0.201       32.421        5.233        0.026      341.313       15.940      862.545
05/29/2014  10:54:00       41.078       22.039       -2.635       59.094       62.386       50.966     3492.044     3891.963     2597.512        0.608        0.499       46.617       29.426        0.398      341.082       15.548      862.527
05/29/2014  10:55:00       73.973       70.197       22.854      106.923       57.037       54.281    11432.554     3253.234     2946.468        1.427        0.882      101.978       27.706        0.074      341.432       16.141      862.515
05/29/2014  10:56:00       23.157      -19.793       35.329       36.866       85.786       38.314     1359.091     7359.304     1467.997        0.618        0.509       30.463       48.376        2.522      341.900       16.937      862.497
05/29/2014  10:57:00      183.405      121.029       29.121      105.017       91.612       75.757    11028.613     8392.778     5739.099        3.714        1.258      219.739       61.696        0.079      341.420       16.117      862.487
05/29/2014  10:58:00       82.971       68.004       42.853       94.602       70.594       69.449     8949.609     4983.488     4823.170        1.605        0.938      107.279       59.425        0.307      341.590       16.408      862.490
05/29/2014  10:59:00       54.963        4.764       68.724       75.557      122.669       85.842     5708.787    15047.729     7368.802        1.794        1.406       55.169       87.496        2.515      341.331       15.967      862.491
05/29/2014  11:00:00      103.537       72.447      104.819      147.473      127.324       75.788    21748.243    16211.379     5743.812        3.532        2.185      126.366       65.451        0.268      341.819       16.795      862.474
05/29/2014  11:01:00      157.922     -262.765      -15.852       75.165       97.639       50.934     5649.734     9533.405     2594.270        5.600        0.889      306.569       38.398        0.016      341.422       16.122      862.507
05/29/2014  11:02:00       38.084      -21.010       54.660       53.215      135.575       49.845     2831.869    18380.577     2484.501        1.428        1.185       43.495       68.179        2.457      341.468       16.201      862.500
05/29/2014  11:03:00      148.664       77.911       18.927       67.443       73.994       49.454     4548.559     5475.047     2445.730        2.050        0.623      167.842       25.103        0.022      341.442       16.156      862.478
05/29/2014  11:04:00       97.488       17.670       28.821       96.130       71.404       53.291     9241.066     5098.496     2839.898        1.391        0.859       99.077       36.721        0.137      341.891       16.918      862.461
05/29/2014  11:05:00      100.291       68.260       21.820       76.634       76.223       50.998     5872.777     5809.918     2600.822        1.474        0.714      121.316       29.514        0.059      341.392       16.072      862.456
05/29/2014  11:06:00      183.802      124.309       84.441      167.385      103.125       76.318    28017.679    10634.766     5824.427        5.041        2.224      221.892       66.479        0.090      341.562       16.359      862.426
05/29/2014  11:07:00      131.399       93.633       88.442      113.733       64.325       77.012    12935.161     4137.770     5930.777        2.842        1.150      161.347       53.612        0.110      341.685       16.567      862.475
05/29/2014  11:08:00      218.573      150.364       45.589       55.441       70.979       63.356     3073.757     5038.086     4014.030        4.229        0.606      265.299       29.457        0.012      341.275       15.869      862.473
05/29/2014  11:09:00      198.132       93.129       19.369      115.798       99.070       81.609    13409.149     9814.868     6660.094        3.909        1.494      218.927       45.351        0.043      341.558       16.352      862.464
05/29/2014  11:10:00      121.660      102.661       76.651      171.308       81.060       68.070    29346.286     6570.678     4633.481        3.587        2.028      159.187       33.288        0.044      341.698       16.590      862.454
05/29/2014  11:11:00       64.857      146.331        1.035       95.567      117.746       53.979     9133.105    13864.177     2913.696        2.576        1.296      160.060       55.631        0.121      341.776       16.724      862.460
05/29/2014  11:12:00       72.816      118.930        3.527       77.576       79.762       44.458     6018.110     6361.965     1976.493        1.690        0.718      139.451       35.828        0.066      341.598       16.420      862.428
05/29/2014  11:13:00      -23.117      112.101        5.078       47.847       71.060       45.901     2289.359     5049.501     2106.937        1.128        0.472      114.460       41.800        0.133      341.832       16.819      862.422
05/29/2014  11:14:00       82.888       56.370       14.751       65.143       53.125       42.279     4243.659     2822.313     1787.520        0.956        0.443      100.240       45.784        0.209      342.231       17.495      862.393
05/29/2014  11:15:00       88.608      100.627       73.561       85.216       75.702       53.784     7261.703     5730.786     2892.767        1.963        0.794      134.079       35.509        0.070      342.139       17.340      862.389
05/29/2014  11:16:00      206.440      147.473       32.898      100.487       78.050       63.455    10097.626     6091.839     4026.500        4.283        1.011      253.704       41.174        0.026      341.657       16.519      862.344
05/29/2014  11:17:00      261.661      156.381       33.887      113.384       80.246       66.923    12856.033     6439.421     4478.664        5.892        1.189      304.830       39.433        0.017      341.595       16.412      862.333
05/29/2014  11:18:00      261.541      147.586       32.810       96.250       87.051       61.502     9263.985     7577.929     3782.541        5.594        1.031      300.309       35.382        0.014      341.561       16.357      862.300
05/29/2014  11:19:00       83.714       61.080       65.887       95.661       75.636       67.818     9151.088     5720.848     4599.327        1.727        0.974      103.628       53.986        0.271      342.314       17.638      862.310
05/29/2014  11:20:00      341.560      219.257       64.935      135.921       90.115       93.575    18474.480     8120.672     8756.196       10.215        1.768      405.878       59.646        0.022      341.812       16.781      862.270
05/29/2014  11:21:00      172.420      181.354      174.465      175.601      114.746       92.119    30835.697    13166.727     8485.835        7.276        2.624      250.236       94.681        0.143      341.982       17.070      862.240
05/29/2014  11:22:00       64.340      165.903      206.680      145.050      121.458       92.711    21039.445    14752.031     8595.328        5.937        2.219      177.942       74.108        0.173      342.392       17.767      862.261
05/29/2014  11:23:00       79.988       29.393      128.080      103.308      128.297       94.987    10672.609    16460.075     9022.611        2.990        1.808       85.218      100.614        1.394      342.393       17.769      862.320
05/29/2014  11:24:00       52.748      -26.558       53.853       65.618      105.646       73.480     4305.740    11161.074     5399.373        1.362        1.043       59.056       65.903        1.245      342.378       17.745      862.321
05/29/2014  11:25:00       55.610       34.570       90.336       88.371      100.344       81.058     7809.518    10068.955     6570.386        1.844        1.222       65.480       76.397        1.361      342.548       18.033      862.322
05/29/2014  11:26:00      147.324       88.996       86.348      130.403       89.590       74.711    17004.978     8026.422     5581.691        3.384        1.531      172.118       54.698        0.101      342.097       17.266      862.341
05/29/2014  11:27:00      215.380       90.868       80.316      163.303      135.877      109.466    26668.005    18462.605    11982.854        5.909        2.856      233.764      105.356        0.203      341.761       16.694      862.335
05/29/2014  11:28:00      214.605      114.719       79.228      133.838      162.438       90.033    17912.550    26386.059     8106.015        5.894        2.620      243.343       80.141        0.108      341.735       16.652      862.311
05/29/2014  11:29:00      243.710      150.836      116.560      126.519      108.368      108.027    16007.042    11743.604    11669.805        6.757        1.971      286.611       73.389        0.066      341.381       16.051      862.325
05/29/2014  11:30:00      241.142      149.737       27.180       84.998       68.185       75.942     7224.622     4649.200     5767.219        4.947        0.882      283.850       52.556        0.034      341.486       16.228      862.297
05/29/2014  11:31:00      119.518      -67.776       43.092       86.743      201.116       65.365     7524.302    40447.550     4272.617        3.648        2.612      137.398       86.288        0.394      341.761       16.697      862.262
05/29/2014  11:32:00       92.457       -9.575       61.200      100.176      133.603       75.300    10035.251    17849.791     5670.136        2.296        1.678       92.951       52.133        0.315      342.130       17.323      862.241
05/29/2014  11:33:00      133.866      -31.425       59.234      131.144      171.046       97.981    17198.669    29256.895     9600.356        3.922        2.803      137.505      116.083        0.713      341.992       17.088      862.227
05/29/2014  11:34:00      110.457      -11.741       80.753      120.906      157.968       85.727    14618.288    24954.043     7349.174        3.288        2.346      111.079      105.275        0.898      341.952       17.020      862.243
05/29/2014  11:35:00      105.952       40.804       67.176       79.906      106.217       67.012     6385.028    11282.024     4490.608        1.978        1.108      113.538       33.676        0.088      341.962       17.039      862.218
05/29/2014  11:36:00      106.881       91.977       95.493      122.949       86.095       66.912    15116.450     7412.335     4477.197        2.800        1.350      141.008       31.376        0.050      342.158       17.370      862.209
05/29/2014  11:37:00      176.350       45.767       80.339      149.366      151.588       78.792    22310.059    22979.039     6208.211        4.556        2.575      182.192       67.667        0.138      342.264       17.549      862.204
05/29/2014  11:38:00      293.335      173.431      129.592      228.903      150.668      148.894    52396.743    22700.786    22169.332       11.507        4.863      340.770      123.280        0.131      342.130       17.321      862.197
05/29/2014  11:39:00      275.745      142.439       91.596      168.375      132.866      106.079    28350.143    17653.454    11252.674        8.097        2.863      310.361       77.229        0.062      342.161       17.374      862.227
05/29/2014  11:40:00      192.618      134.925       99.983      132.176       88.020       74.898    17470.518     7747.523     5609.681        4.806        1.541      235.173       66.645        0.080      342.355       17.704      862.251
05/29/2014  11:41:00      189.311       86.062       51.583      128.202      107.435       71.571    16435.635    11542.285     5122.369        3.950        1.655      207.955       63.165        0.092      342.037       17.165      862.238
05/29/2014  11:42:00      177.113      109.443       70.143      107.189       88.944       85.228    11489.425     7911.058     7263.806        3.746        1.333      208.199       66.994        0.104      342.019       17.132      862.226
05/29/2014  11:43:00       51.146        0.844       56.145       79.484       98.181       63.286     6317.628     9639.434     4005.073        1.286        0.998       51.153       61.138        1.428      341.998       17.102      862.232
05/29/2014  11:44:00       52.491       -5.305       51.155       70.262       89.428       62.394     4936.679     7997.287     3893.049        1.111        0.841       52.758       59.114        1.255      341.861       16.868      862.203
05/29/2014  11:45:00      -18.518      102.701      -35.058      127.637       68.751       63.455    16291.142     4726.633     4026.594        1.858        1.252      104.357       62.779        0.362      341.686       16.572      862.135
05/29/2014  11:46:00      178.734      106.165       46.053      101.515       95.492       61.280    10305.385     9118.753     3755.266        3.425        1.159      207.887       42.175        0.041      342.189       17.422      862.118
05/29/2014  11:47:00      104.355      123.187      161.698      134.890      118.849       99.209    18195.350    14125.032     9842.386        4.718        2.108      161.447      108.368        0.451      342.322       17.648      862.128
05/29/2014  11:48:00      242.233      128.633      102.690      174.663      132.277      109.286    30507.037    17497.300    11943.363        7.285        2.997      274.268       81.076        0.087      342.189       17.421      862.117
05/29/2014  11:49:00      231.471      144.049      119.630      132.663      108.944      103.415    17599.525    11868.880    10694.617        6.439        2.008      272.634       78.821        0.084      341.858       16.859      862.164
05/29/2014  11:50:00      147.551      152.797      113.809      132.361      102.603       79.573    17519.428    10527.433     6331.849        4.622        1.719      212.411       76.924        0.131      341.966       17.043      862.166
05/29/2014  11:51:00       97.832       72.243       71.189       91.394       73.399       71.345     8352.907     5387.354     5090.114        1.934        0.942      121.614       59.417        0.239      342.085       17.246      862.177
05/29/2014  11:52:00      217.946      128.528       65.468      101.988       83.829       74.170    10401.615     7027.241     5501.240        4.561        1.147      253.022       35.589        0.020      342.119       17.304      862.161
05/29/2014  11:53:00      231.543      106.962      105.937      134.121      128.895      115.511    17988.563    16614.046    13342.748        6.210        2.397      255.055       81.933        0.103      342.035       17.160      862.142
05/29/2014  11:54:00      247.207      127.428       63.087      133.250      105.781       86.193    17755.688    11189.628     7429.313        5.884        1.819      278.117       47.838        0.030      342.077       17.232      862.123
05/29/2014  11:55:00      144.378       94.081       29.123      149.408      102.644       66.841    22322.735    10535.772     4467.775        3.393        1.866      172.326       24.437        0.020      342.476       17.910      862.118
05/29/2014  11:56:00      334.778      207.366       38.790      111.772      104.536       75.784    12493.091    10927.844     5743.272        9.287        1.458      393.798       49.387        0.016      341.833       16.817      862.107
05/29/2014  11:57:00      198.563      118.038       40.731      125.249       94.467       70.748    15687.413     8924.103     5005.324        4.231        1.481      230.998       45.214        0.038      342.267       17.554      862.105
05/29/2014  11:58:00       81.010       23.607       15.691       69.199       84.180       51.214     4788.448     7086.323     2622.920        1.093        0.725       84.380       30.509        0.131      342.641       18.194      862.100
05/29/2014  11:59:00      204.235      116.149       29.680       91.657       89.763       64.357     8401.001     8057.372     4141.817        3.834        1.030      234.953       24.780        0.011      342.193       17.428      862.090
05/29/2014  12:00:00      208.996      133.055       39.779       97.698       75.039       58.512     9544.877     5630.782     3423.709        4.078        0.930      247.756       54.448        0.048      342.024       17.141      862.075
05/29/2014  12:01:00      102.288      141.683      110.098       71.995       78.460       70.527     5183.249     6155.958     4974.121        2.948        0.816      174.748       51.447        0.087      342.263       17.548      862.080
05/29/2014  12:02:00      106.080       75.243      105.347       93.198      105.275       61.700     8685.943    11082.793     3806.834        2.579        1.179      130.056       60.942        0.220      342.532       18.005      862.082
05/29/2014  12:03:00      102.344       31.280       42.909       93.081       96.081       62.093     8664.151     9231.589     3855.563        1.752        1.088      107.018       63.031        0.347      342.131       17.324      862.068
05/29/2014  12:04:00      256.696      128.799      127.145      163.885      110.853      106.154    26858.250    12288.473    11268.609        7.452        2.521      287.197       95.793        0.111      342.139       17.336      862.027
05/29/2014  12:05:00      122.881      166.834      134.094      108.798       69.034       75.357    11837.018     4765.695     5678.685        4.159        1.114      207.204       72.545        0.123      341.840       16.827      862.051
05/29/2014  12:06:00      136.768      187.843      171.657      124.253      112.923      103.159    15438.905    12751.717    10641.762        6.114        1.942      232.358       73.558        0.100      342.015       17.126      862.046
05/29/2014  12:07:00      163.251      226.585      201.290      119.740      119.229       94.854    14337.725    14215.641     8997.253        7.802        1.878      279.270       75.361        0.073      342.056       17.195      862.065
05/29/2014  12:08:00      108.440       38.606      114.483      118.189      142.466       89.004    13968.637    20296.664     7921.771        3.426        2.109      115.108       95.787        0.692      342.235       17.500      862.074
05/29/2014  12:09:00      126.710       66.198       60.451       83.344       67.694       58.661     6946.171     4582.416     3441.170        1.953        0.748      142.960       34.264        0.057      342.390       17.765      862.084
05/29/2014  12:10:00       63.101      -34.373        8.973       75.524      102.014       47.790     5703.915    10406.906     2283.899        1.182        0.920       71.856       57.420        0.639      342.030       17.153      862.055
05/29/2014  12:11:00       54.791      -72.496        4.867       72.435      126.196       49.647     5246.840    15925.539     2464.844        1.595        1.182       90.872       61.194        0.453      342.307       17.624      862.020
05/29/2014  12:12:00      204.320      125.068       41.714       76.540       50.099       47.672     5858.365     2509.881     2272.601        3.488        0.532      239.559       32.155        0.018      342.165       17.379      862.027
05/29/2014  12:13:00      191.599      127.016       52.112       75.878       67.630       54.070     5757.526     4573.856     2923.552        3.440        0.663      229.876       23.958        0.011      342.181       17.408      862.023
05/29/2014  12:14:00      209.711      128.092       70.297      123.452       86.254       86.133    15240.324     7439.707     7418.956        4.771        1.505      245.736       51.327        0.044      342.322       17.647      862.017
05/29/2014  12:15:00      139.648      167.195      155.220      164.610      113.057      100.771    27096.597    12781.960    10154.790        6.078        2.502      217.843      102.282        0.220      342.472       17.902      861.989
05/29/2014  12:16:00      223.889      264.384      212.647      140.162      133.422      102.601    19645.293    17801.386    10527.011       10.660        2.399      346.446       93.726        0.073      342.271       17.561      862.005
05/29/2014  12:17:00      146.763       22.290       99.240      114.288      205.635      121.898    13061.734    42285.829    14859.240        5.103        3.510      148.446      117.382        0.625      342.503       17.957      861.979
05/29/2014  12:18:00      175.276       70.460       99.168      102.124      105.525       91.641    10429.309    11135.532     8398.054        3.774        1.498      188.908       69.133        0.134      342.434       17.839      862.020
05/29/2014  12:19:00      120.622       68.257       75.226       87.540       73.139       55.492     7663.279     5349.289     3079.337        2.048        0.805      138.596       48.413        0.122      342.101       17.274      862.037
05/29/2014  12:20:00      157.567       49.194       46.393      117.853      116.188       78.950    13889.360    13499.740     6233.095        3.150        1.681      165.068       63.587        0.148      342.307       17.622      861.959
05/29/2014  12:21:00      181.161      -79.109       53.362      154.115      161.334      116.643    23751.364    26028.673    13605.663        5.264        3.169      197.681      116.561        0.348      342.418       17.810      861.954
05/29/2014  12:22:00      199.484     -235.598      -37.758      104.788      125.655       64.743    10980.484    15789.196     4191.704        6.384        1.548      308.707       70.046        0.051      342.187       17.418      861.930
05/29/2014  12:23:00      162.411       95.254      121.285      142.862      144.743       77.459    20409.678    20950.482     5999.923        4.875        2.368      188.284       79.584        0.179      342.660       18.223      861.948
05/29/2014  12:24:00      260.831       95.161       55.398      153.752      124.851      131.373    23639.725    15587.743    17258.770        6.831        2.824      277.648       82.699        0.089      342.219       17.473      861.965
05/29/2014  12:25:00       91.893       76.052       12.472       78.882       47.720       54.694     6222.374     2277.235     2991.409        1.294        0.575      119.283       23.318        0.038      342.159       17.372      861.957
05/29/2014  12:26:00       34.791       12.400       15.526       71.613       73.330       58.362     5128.358     5377.354     3406.125        0.776        0.696       36.934       53.243        2.078      342.393       17.770      861.928
05/29/2014  12:27:00       61.803       31.094       79.105      103.999      121.510       61.671    10815.713    14764.633     3803.296        2.021        1.469       69.184       63.430        0.841      342.823       18.500      861.907
05/29/2014  12:28:00      169.584     -134.338       28.767      121.447      195.836      114.002    14749.389    38351.801    12996.548        5.685        3.305      216.346      126.510        0.342      342.794       18.450      861.883
05/29/2014  12:29:00      211.136     -192.908       30.850      135.929      201.921      105.564    18476.696    40771.992    11143.842        7.655        3.520      285.993      127.500        0.199      342.683       18.262      861.898
05/29/2014  12:30:00      134.513       17.117      103.146      121.453      163.624       80.519    14750.798    26772.654     6483.269        3.851        2.400      135.598      107.580        0.629      342.684       18.264      861.907
05/29/2014  12:31:00      149.835       69.894       55.539      105.620       62.039       69.355    11155.590     3848.883     4810.121        2.511        0.991      165.335       44.522        0.073      342.339       17.678      861.883
05/29/2014  12:32:00       30.205      -36.205       39.336       60.021       59.380       41.209     3602.461     3525.940     1698.194        0.630        0.441       47.150       38.403        0.663      343.122       19.012      861.865
05/29/2014  12:33:00       38.037       32.874      100.544       80.672      112.532       72.065     6507.906    12663.376     5193.360        1.850        1.218       50.274       78.351        2.429      342.854       18.555      861.833
05/29/2014  12:34:00      203.118     -218.750        0.022      112.989      144.969       81.468    12766.471    21016.124     6637.027        6.476        2.021      298.511       83.591        0.078      342.812       18.481      861.767
05/29/2014  12:35:00      312.662     -415.631      -41.024      179.629      235.249      112.925    32266.659    55342.253    12751.967       18.625        5.018      520.103      126.510        0.059      342.395       17.771      861.705
05/29/2014  12:36:00      175.291     -368.225      -44.020      140.300      175.539       84.612    19684.178    30814.107     7159.121       11.294        2.883      407.819       73.215        0.032      342.156       17.365      861.754
05/29/2014  12:37:00      217.000     -290.656       -7.950      132.505      148.168       87.554    17557.690    21953.902     7665.755        8.940        2.359      362.726       80.946        0.050      342.585       18.096      861.780
05/29/2014  12:38:00      133.901     -112.033       43.776      137.233      209.718       98.350    18832.989    43981.551     9672.789        5.243        3.624      174.588      127.891        0.537      342.697       18.285      861.798
05/29/2014  12:39:00      157.705       38.783      116.934      185.690      158.582      111.443    34480.593    25148.400    12419.517        5.603        3.602      162.404      116.879        0.518      342.640       18.188      861.818
05/29/2014  12:40:00      173.419        4.567       91.061      171.831      129.466       94.293    29526.035    16761.468     8891.134        4.677        2.759      173.479       94.838        0.299      342.754       18.382      861.813
05/29/2014  12:41:00      194.218      162.811      116.888      117.379      121.758      103.626    13777.904    14824.961    10738.411        5.861        1.967      253.432       78.333        0.096      342.526       17.995      861.798
05/29/2014  12:42:00      108.276       83.678       65.040       83.684       81.284       74.490     7002.995     6607.137     5548.759        2.105        0.958      136.842       47.449        0.120      342.423       17.821      861.767
05/29/2014  12:43:00       59.634       89.324      146.248      105.001      181.551      145.107    11025.164    32960.697    21055.911        4.897        3.252      107.401      150.144        1.954      342.752       18.381      861.754
05/29/2014  12:44:00      122.151      -28.831      114.869      117.981      183.100      104.874    13919.411    33525.600    10998.646        4.368        2.922      125.507      118.288        0.888      342.960       18.732      861.758
05/29/2014  12:45:00      196.528      -76.244       42.771      113.957      134.525       90.443    12986.159    18096.954     8179.895        4.276        1.963      210.799       95.399        0.205      342.940       18.699      861.738
05/29/2014  12:46:00       88.014      -10.731       74.913      120.193      155.239       93.426    14446.443    24099.066     8728.463        3.036        2.364       88.665      107.065        1.458      342.824       18.502      861.740
05/29/2014  12:47:00       32.350     -109.009       22.090       85.353      128.335       46.884     7285.126    16469.887     2198.086        1.968        1.298      113.708       34.835        0.094      342.990       18.786      861.725
05/29/2014  12:48:00      102.661      -67.224       25.163       86.735      112.466       52.600     7522.888    12648.629     2766.742        1.931        1.147      122.712       53.346        0.189      343.110       18.990      861.711
05/29/2014  12:49:00       70.600      -43.272       39.969       74.407      135.006       68.646     5536.417    18226.630     4712.282        1.846        1.424       82.806       76.681        0.858      343.091       18.957      861.691
05/29/2014  12:50:00      109.848       36.072       55.783       95.134       74.856       65.606     9050.503     5603.373     4304.097        1.771        0.948      115.619       48.382        0.175      342.585       18.097      861.674
05/29/2014  12:51:00      245.395       73.328       36.779      133.574       89.772       89.386    17841.880     8058.928     7989.843        5.041        1.695      256.116       50.452        0.039      343.017       18.830      861.634
05/29/2014  12:52:00      237.414      129.448       61.451      135.497       96.551       93.472    18359.422     9322.073     8737.044        5.665        1.821      270.411       68.908        0.065      343.257       19.237      861.615
05/29/2014  12:53:00      190.683      108.953       71.510      143.479       90.622       57.278    20586.203     8212.269     3280.753        4.271        1.604      219.615       43.447        0.039      343.143       19.047      861.634
05/29/2014  12:54:00      262.283      224.821      129.788      159.470      109.058      120.788    25430.740    11893.613    14589.815        9.404        2.596      345.452      104.602        0.092      342.626       18.165      861.621
05/29/2014  12:55:00      266.254      175.795       62.937       97.959       78.074       60.772     9595.898     6095.569     3693.207        6.257        0.969      319.054       21.263        0.004      342.547       18.030      861.636
05/29/2014  12:56:00      140.199       98.788       36.591       67.198       52.012       57.779     4515.610     2705.292     3338.388        2.065        0.528      171.507       38.037        0.049      342.863       18.570      861.613
05/29/2014  12:57:00       29.526        3.423       28.413       47.976       81.377       46.431     2301.679     6622.266     2155.794        0.638        0.554       29.724       45.611        2.355      343.009       18.820      861.607
05/29/2014  12:58:00       98.170       27.718       18.809       67.767       65.865       37.708     4592.428     4338.175     1421.883        1.055        0.518      102.008       31.210        0.094      342.690       18.275      861.568
05/29/2014  12:59:00      124.821      142.023       47.976       90.003       91.167       67.297     8100.521     8311.490     4528.868        2.949        1.047      189.079       25.327        0.018      342.650       18.206      861.572
05/29/2014  13:00:00      198.985      123.952      198.882      184.056      166.770      137.667    33876.730    27812.109    18952.122        8.756        4.032      234.434      126.702        0.292      342.713       18.313      861.516
05/29/2014  13:01:00      192.085       50.135      128.510      173.094      213.411      145.766    29961.499    45544.363    21247.837        7.632        4.838      198.520      137.768        0.482      342.946       18.709      861.460
05/29/2014  13:02:00      162.753     -107.649       86.703      141.211      193.419      117.908    19940.561    37410.986    13902.276        5.841        3.563      195.133      133.245        0.466      343.119       19.003      861.518
05/29/2014  13:03:00      162.322        6.238      108.592      135.115      111.299       88.329    18256.064    12387.409     7802.079        3.830        1.922      162.442       88.623        0.298      343.111       18.990      861.557
05/29/2014  13:04:00      136.202      -37.073       41.109      109.074      107.139       72.771    11897.140    11478.772     5295.575        2.514        1.434      141.157       63.819        0.204      342.828       18.510      861.569
05/29/2014  13:05:00       61.618      -29.837       62.046       73.642      123.686       71.621     5423.116    15298.272     5129.591        1.719        1.293       68.462       77.182        1.271      342.961       18.735      861.559
05/29/2014  13:06:00      101.083       17.288       64.250       81.519      118.758       70.505     6645.272    14103.533     4970.977        2.018        1.286      102.551       37.367        0.133      343.114       18.997      861.556
05/29/2014  13:07:00      148.174       83.460       23.805       78.990       73.272       51.119     6239.366     5368.847     2613.110        2.185        0.711      170.062       25.065        0.022      343.112       18.993      861.556
05/29/2014  13:08:00       19.144      -10.619       15.564       43.630       65.906       34.520     1903.561     4343.575     1191.655        0.408        0.372       21.892       34.510        2.485      343.608       19.839      861.557
05/29/2014  13:09:00       47.081       51.761        9.669       67.909       94.577       58.670     4611.597     8944.880     3442.187        1.099        0.850       69.970       47.347        0.458      342.943       18.705      861.533
05/29/2014  13:10:00      101.433      112.613       -8.870       67.945       60.056       52.858     4616.502     3606.725     2793.974        1.703        0.551      151.560       45.383        0.090      342.736       18.353      861.492
05/29/2014  13:11:00       58.521      103.122        0.609       40.631       50.877       44.269     1650.880     2588.441     1959.701        1.013        0.310      118.570       33.065        0.078      342.817       18.493      861.476
05/29/2014  13:12:00       55.494      144.201       -2.550       88.514       76.848       69.462     7834.666     5905.578     4824.986        2.122        0.928      154.510       48.912        0.100      342.761       18.396      861.447
05/29/2014  13:13:00      145.105      104.228       50.704       73.199       48.046       54.827     5358.098     2308.401     3005.975        2.258        0.534      178.659       31.052        0.030      342.957       18.729      861.455
05/29/2014  13:14:00      122.479       99.923      107.212      116.962       97.452       91.593    13680.208     9496.841     8389.344        3.402        1.578      158.068       74.157        0.220      342.890       18.615      861.432
05/29/2014  13:15:00      206.289      116.720       73.611      134.176      111.723       87.958    18003.171    12481.926     7736.646        4.990        1.911      237.021       68.053        0.082      343.063       18.907      861.391
05/29/2014  13:16:00      117.169      150.857      168.776      162.835      136.363      105.529    26515.078    18594.739    11136.270        6.060        2.812      191.014      117.641        0.379      343.028       18.849      861.385
05/29/2014  13:17:00       94.108       64.290      108.801       79.497       95.355       59.766     6319.830     9092.568     3571.952        2.190        0.949      113.971       54.881        0.232      342.886       18.607      861.352
05/29/2014  13:18:00      242.911      169.675       90.432      147.662      110.798       87.829    21804.124    12276.154     7713.875        6.888        2.090      296.303       77.111        0.068      342.742       18.360      861.347
05/29/2014  13:19:00      269.114      201.852      134.158      183.618      170.954      136.334    33715.720    29225.101    18586.920       10.633        4.076      336.402      114.250        0.115      342.973       18.754      861.297
05/29/2014  13:20:00      242.519      167.767      116.172      153.877      121.740      111.870    23677.991    14820.716    12514.941        7.573        2.551      294.892       92.475        0.098      343.259       19.243      861.326
05/29/2014  13:21:00      162.355       50.575       51.534      109.522      118.561       81.061    11995.092    14056.592     6570.887        3.209        1.631      170.049       61.914        0.133      343.554       19.747      861.321
05/29/2014  13:22:00      256.046      169.501      179.913      208.726      201.078      181.090    43566.590    40432.479    32793.643       12.170        5.840      307.067      141.021        0.211      343.100       18.970      861.280
05/29/2014  13:23:00      344.326      232.010      135.688      169.888      130.432      135.830    28862.009    17012.377    18449.868       12.755        3.216      415.198       86.107        0.043      343.073       18.924      861.309
05/29/2014  13:24:00      125.275      116.050      118.141      112.970       93.279       92.443    12762.229     8701.051     8545.798        3.656        1.500      170.767       72.497        0.180      343.306       19.323      861.339
05/29/2014  13:25:00      242.672      189.196      142.629      154.002      131.479      107.190    23716.490    17286.597    11489.601        8.375        2.625      307.709       87.296        0.080      342.827       18.505      861.342
05/29/2014  13:26:00       74.940      -26.888       37.794      142.542      149.811       60.397    20318.211    22443.395     3647.841        2.708        2.320       79.618       74.968        0.887      343.377       19.445      861.351
05/29/2014  13:27:00      171.967      -40.898       52.793      129.332      134.495       86.151    16726.713    18088.984     7421.913        3.813        2.112      176.763      100.528        0.323      343.061       18.903      861.350
05/29/2014  13:28:00       80.959      -92.231        1.800       77.373       79.541       42.565     5986.547     6326.732     1811.800        1.459        0.706      122.723       34.940        0.081      342.773       18.416      861.344
05/29/2014  13:29:00       23.430        4.023       22.001       43.342       30.800       24.650     1878.570      948.642      607.602        0.224        0.172       23.773       23.769        1.000      343.540       19.725      861.319
05/29/2014  13:30:00       63.897       38.306       16.533      100.495       59.137       37.371    10099.344     3497.192     1396.628        1.041        0.750       74.499       25.252        0.115      343.548       19.737      861.309
05/29/2014  13:31:00      276.986      170.935       69.711      116.492      110.724       81.746    13570.345    12259.745     6682.371        7.165        1.626      325.484       52.886        0.026      343.224       19.181      861.289
05/29/2014  13:32:00      197.303      148.503       27.798       93.996       70.932       61.332     8835.163     5031.401     3761.601        3.969        0.881      246.944       25.406        0.011      342.818       18.491      861.294
05/29/2014  13:33:00      151.421       60.787       39.421       73.485       65.652       55.710     5400.009     4310.202     3103.596        2.049        0.641      163.167       16.934        0.011      342.786       18.437      861.297
05/29/2014  13:34:00       83.317       85.355       14.234       86.976       82.381       57.247     7564.907     6786.654     3277.236        1.603        0.881      119.278       46.388        0.151      343.232       19.198      861.276
05/29/2014  13:35:00       -6.749      104.806      -16.490       36.717       44.130       30.629     1348.127     1947.495      938.140        0.777        0.212      105.023       28.148        0.072      343.031       18.857      861.262
05/29/2014  13:36:00      -26.618       74.735       -6.894       38.168       82.661       27.136     1456.828     6832.823      736.386        0.768        0.451       79.333       37.661        0.225      343.339       19.380      861.230
05/29/2014  13:37:00      -65.878       76.893      -16.154       26.093       51.204       28.380      680.841     2621.825      805.418        0.731        0.205      101.255       18.230        0.032      343.000       18.803      861.190
05/29/2014  13:38:00      -37.516       23.446      -10.466       25.929       22.408       25.939      672.314      502.137      672.812        0.196        0.092       44.239       13.727        0.096      343.076       18.934      861.165
05/29/2014  13:39:00       54.679       53.816        8.197       42.991       30.499       28.552     1848.252      930.186      815.240        0.477        0.180       76.720       19.975        0.068      343.278       19.277      861.154
05/29/2014  13:40:00      112.188       88.620      108.245      103.852      137.585       87.413    10785.210    18929.628     7641.037        3.475        1.868      142.967       93.459        0.427      343.076       18.931      861.139
05/29/2014  13:41:00      215.385      181.520      134.110      176.514      103.492      100.639    31157.168    10710.656    10128.288        7.465        2.600      281.674       99.218        0.124      343.172       19.094      861.119
05/29/2014  13:42:00      273.002      109.982       34.786      143.549      111.287       85.574    20606.429    12384.844     7322.994        6.407        2.016      294.324       72.278        0.060      343.156       19.066      861.137
05/29/2014  13:43:00      197.324      122.011       40.535      131.957       99.432       83.343    17412.573     9886.747     6946.078        4.485        1.712      231.999       50.348        0.047      343.267       19.255      861.153
05/29/2014  13:44:00       42.288      -13.162       20.476       64.828       76.140       38.890     4202.619     5797.348     1512.425        0.694        0.576       44.289       43.222        0.952      342.885       18.607      861.132
05/29/2014  13:45:00       68.425      -48.695        3.522       61.840       64.009       47.918     3824.246     4097.172     2296.089        0.864        0.511       83.983       40.020        0.227      343.130       19.025      861.110
05/29/2014  13:46:00      103.857       24.251       19.681       88.876      124.622       57.826     7898.996    15530.727     3343.881        1.926        1.339      106.650       49.803        0.218      343.188       19.124      861.108
05/29/2014  13:47:00       88.806      144.035      -19.871       81.923       53.865       45.187     6711.379     2901.395     2041.870        2.034        0.583      169.212       36.579        0.047      342.968       18.746      861.093
05/29/2014  13:48:00        7.251      148.543      -33.102       36.840       40.056       19.081     1357.222     1604.522      364.100        1.327        0.166      148.719       12.742        0.007      342.888       18.614      861.065
05/29/2014  13:49:00       39.892      158.722       -2.158      107.096       94.106       62.699    11469.561     8856.010     3931.181        2.552        1.213      163.659       62.633        0.146      343.201       19.143      861.033
05/29/2014  13:50:00      252.225      130.771        9.675      144.073      115.140       70.933    20756.948    13257.161     5031.515        5.992        1.952      284.110       31.183        0.012      343.168       19.087      860.996
05/29/2014  13:51:00      153.706      147.806       64.796      139.927       84.548       86.326    19579.555     7148.438     7452.107        4.192        1.709      213.242       75.940        0.127      343.352       19.400      861.008
05/29/2014  13:52:00      216.036      124.711       29.702       73.386       58.271       40.970     5385.568     3395.515     1678.510        3.678        0.523      249.448       19.271        0.006      343.232       19.194      861.018
05/29/2014  13:53:00      124.663       95.249       15.491       78.640       66.918       45.576     6184.205     4477.982     2077.176        1.879        0.637      156.886       30.361        0.037      343.035       18.861      861.023
05/29/2014  13:54:00      135.207     -178.239      -17.743      133.590      183.555       70.431    17846.219    33692.533     4960.490        5.342        2.825      223.718       72.742        0.106      343.293       19.301      860.993
05/29/2014  13:55:00      177.766     -197.990        5.729      127.983      167.362      101.683    16379.643    28010.184    10339.493        6.277        2.736      266.084      115.405        0.188      343.444       19.556      860.977
05/29/2014  13:56:00       55.360      -60.075       42.084       78.517      132.340       78.432     6164.909    17513.823     6151.581        1.913        1.492       81.693       87.993        1.160      343.412       19.503      860.989
05/29/2014  13:57:00      118.861      -44.112       45.360      103.581      123.893       67.132    10729.076    15349.359     4506.713        2.435        1.529      126.783       57.580        0.206      343.534       19.710      860.994
05/29/2014  13:58:00      157.646      114.815       29.249       68.685       48.720       53.413     4717.660     2373.680     2852.959        2.442        0.497      195.025       29.383        0.023      343.324       19.354      861.001
05/29/2014  13:59:00      171.005       71.796       28.049       95.216       91.338       63.828     9066.178     8342.625     4073.988        2.833        1.074      185.465       41.433        0.050      343.460       19.584      860.984
05/29/2014  14:00:00       63.561      -88.194      -15.093      102.508       84.277       57.278    10507.902     7102.594     3280.791        1.646        1.045      108.712       49.991        0.211      343.567       19.768      860.980
05/29/2014  14:01:00      -14.364      -65.273       12.034       87.895       81.800       56.554     7725.582     6691.314     3198.319        1.111        0.881       66.835       48.043        0.517      343.719       20.027      860.957
05/29/2014  14:02:00       -5.642      -24.827       38.590       50.179       53.531       27.572     2517.980     2865.543      760.204        0.414        0.307       25.460       25.312        0.988      344.183       20.823      860.958
05/29/2014  14:03:00        1.177      -59.326       12.939       67.509       69.812       51.803     4557.525     4873.663     2683.572        0.790        0.606       59.338       37.823        0.406      344.073       20.634      860.939
05/29/2014  14:04:00      -90.056     -186.865       -6.437       53.770       72.767       32.286     2891.207     5295.068     1042.399        2.615        0.461      207.433       23.577        0.013      343.371       19.435      860.927
05/29/2014  14:05:00      -23.201      -22.795        6.428       70.958       55.036       44.912     5035.074     3029.001     2017.102        0.559        0.504       32.525       40.075        1.518      343.582       19.795      860.903
05/29/2014  14:06:00      -18.302      -21.001       24.413       81.769       68.609       34.280     6686.102     4707.204     1175.093        0.697        0.628       27.857       30.571        1.204      343.580       19.792      860.908
05/29/2014  14:07:00        6.246       29.225       39.125       31.482       42.589       35.259      991.128     1813.791     1243.214        0.324        0.202       29.885       25.491        0.728      343.954       20.429      860.907
05/29/2014  14:08:00      139.697     -120.057       25.106      152.104      201.180       92.866    23135.646    40473.539     8624.055        5.338        3.612      184.198      132.239        0.515      343.674       19.949      860.866
05/29/2014  14:09:00      199.075     -175.363       -7.712      114.570      149.724       85.325    13126.341    22417.133     7280.385        5.662        2.141      265.298       93.885        0.125      343.610       19.842      860.847
05/29/2014  14:10:00      150.079     -278.885      -17.709       77.661       88.153       62.999     6031.226     7770.985     3968.863        5.919        0.889      316.702       47.969        0.023      343.285       19.286      860.863
05/29/2014  14:11:00      190.804     -216.725      -39.705       80.107       75.934       44.799     6417.104     5766.021     2006.955        4.957        0.710      288.749       24.246        0.007      343.271       19.263      860.856
05/29/2014  14:12:00      -63.931      -53.344       -4.805       62.415       66.450       36.134     3895.693     4415.550     1305.652        0.828        0.481       83.264       34.895        0.176      343.912       20.358      860.827
05/29/2014  14:13:00       -5.808       45.528       82.133       32.633       50.407       27.699     1064.885     2540.867      767.249        0.661        0.219       45.897       28.109        0.375      343.843       20.242      860.820
05/29/2014  14:14:00       54.346       53.129       65.489       44.102       48.347       51.065     1944.972     2337.400     2607.677        0.848        0.345       76.001       29.579        0.151      343.607       19.837      860.841
05/29/2014  14:15:00      317.025      195.508       89.713      177.635      137.022      104.378    31554.329    18774.928    10894.708       10.399        3.061      372.462       53.129        0.020      343.482       19.622      860.844
05/29/2014  14:16:00      347.341      206.423        9.182      173.629      115.340       97.358    30146.990    13303.224     9478.496       10.812        2.646      404.050       57.844        0.020      343.621       19.859      860.801
05/29/2014  14:17:00      255.563      192.544       78.920      149.766      116.279      118.628    22429.960    13520.835    14072.599        7.931        2.501      319.977       80.388        0.063      343.444       19.556      860.837
05/29/2014  14:18:00      205.469      162.569       98.054      132.095       80.099       79.952    17449.145     6415.890     6392.320        5.425        1.513      262.004       37.646        0.021      343.326       19.355      860.871
05/29/2014  14:19:00      218.862      220.162      123.985      160.615      112.691      134.623    25797.132    12699.247    18123.448        8.417        2.831      310.438      116.145        0.140      343.239       19.207      860.871
05/29/2014  14:20:00      228.493      123.191       17.629      104.389       81.556       60.671    10896.995     6651.306     3680.979        4.446        1.061      259.586       48.227        0.035      343.255       19.234      860.879
05/29/2014  14:21:00      262.486      171.010       24.784      116.009       88.289       64.510    13458.164     7794.940     4161.579        6.208        1.271      313.278       42.969        0.019      343.263       19.248      860.879
05/29/2014  14:22:00       50.670       48.660        4.864       37.553       37.630       36.825     1410.251     1416.030     1356.054        0.457        0.209       70.251       20.261        0.083      343.241       19.215      860.869
05/29/2014  14:23:00       -7.171       73.327       -9.552       49.563      100.489       32.160     2456.530    10097.984     1034.257        0.955        0.679       73.677       32.120        0.190      343.261       19.247      860.815
05/29/2014  14:24:00       -2.509       70.427      -28.820       71.909       57.714       43.390     5170.964     3330.873     1882.684        0.809        0.519       70.471       28.393        0.162      343.378       19.447      860.797
05/29/2014  14:25:00      106.923       46.259       30.806       69.509       49.270       39.894     4831.460     2427.565     1591.548        1.168        0.443      116.501       25.584        0.048      343.620       19.859      860.805
05/29/2014  14:26:00       66.006      -51.083       15.269       94.925       83.244       34.607     9010.712     6929.564     1197.630        1.217        0.857       83.464       40.464        0.235      343.606       19.835      860.810
05/29/2014  14:27:00      137.179      -89.858        6.408       85.276      109.077       55.431     7272.046    11897.748     3072.620        2.458        1.112      163.989       37.589        0.053      343.780       20.132      860.789
05/29/2014  14:28:00       93.276        7.881       43.869      112.870      152.844       64.966    12739.679    23361.285     4220.543        2.550        2.016       93.608       67.949        0.527      344.150       20.763      860.762
05/29/2014  14:29:00      215.784      111.864       74.329      154.451      109.663       84.840    23855.047    12026.075     7197.836        5.383        2.154      243.056       71.152        0.086      343.803       20.169      860.756
05/29/2014  14:30:00      211.093       94.032       51.530      133.803       92.612       63.360    17903.337     8576.932     4014.542        4.327        1.525      231.090       59.353        0.066      343.482       19.622      860.760
05/29/2014  14:31:00      113.065       56.036       83.284       96.111       70.481       71.184     9237.252     4967.606     5067.146        2.106        0.964      126.189       47.301        0.141      343.613       19.845      860.744
05/29/2014  14:32:00      146.029      119.601      107.807      144.782       91.745       76.835    20961.856     8417.233     5903.657        4.126        1.764      188.756       80.675        0.183      343.555       19.746      860.728
05/29/2014  14:33:00      112.757       95.624       37.192       83.678       50.916       60.245     7002.015     2592.429     3629.519        1.823        0.661      147.845       16.061        0.012      343.824       20.207      860.726
05/29/2014  14:34:00      209.170       97.255       26.327       86.818       77.632       51.589     7537.296     6026.721     2661.378        3.506        0.811      230.675       38.650        0.028      343.729       20.044      860.720
05/29/2014  14:35:00      132.348      141.308       -2.850       93.745       78.946       68.153     8788.098     6232.440     4644.805        2.857        0.983      193.608       46.519        0.058      343.805       20.174      860.726
05/29/2014  14:36:00      112.236      100.974       10.360      106.272       75.412       60.360    11293.701     5687.032     3643.382        2.176        1.031      150.973       46.413        0.095      343.729       20.044      860.742
05/29/2014  14:37:00       34.807      222.225      -20.197       64.146       90.616       52.283     4114.736     8211.229     2733.469        3.303        0.753      224.935       48.271        0.046      343.899       20.332      860.749
05/29/2014  14:38:00       46.195      129.097       -7.659       86.147      100.453       56.893     7421.369    10090.763     3236.823        1.980        1.037      137.113       60.559        0.195      343.691       19.979      860.726
05/29/2014  14:39:00      -26.180      224.606      -28.806       47.981       73.521       38.987     2302.208     5405.386     1520.025        3.059        0.461      226.127       37.244        0.027      343.584       19.795      860.715
05/29/2014  14:40:00        5.194      181.736      -31.910       44.894       39.905       29.857     2015.500     1592.424      891.455        1.929        0.225      181.810       17.499        0.009      343.571       19.777      860.712
05/29/2014  14:41:00       -9.017      223.068      -24.588       55.531       81.907       31.195     3083.676     6708.723      973.110        3.060        0.538      223.250       34.422        0.024      343.752       20.083      860.703
05/29/2014  14:42:00       -7.144      280.782      -33.320       78.144      115.666       52.326     6106.538    13378.651     2737.970        5.111        1.111      280.872       41.712        0.022      343.851       20.252      860.697
05/29/2014  14:43:00       86.060       82.678        7.822       83.520       76.331       54.238     6975.599     5826.475     2941.762        1.502        0.787      119.339       45.134        0.143      344.069       20.625      860.678
05/29/2014  14:44:00       75.683      129.868        1.510       74.072       99.046       71.281     5486.661     9810.164     5081.018        2.148        1.019      150.312       67.077        0.199      344.122       20.716      860.684
05/29/2014  14:45:00       52.654      120.786       -1.499       60.719       80.320       45.076     3686.813     6451.367     2031.876        1.476        0.609      131.763       46.392        0.124      344.165       20.789      860.683
05/29/2014  14:46:00      -63.678      169.009      -46.145       88.419       79.705       35.276     7817.857     6352.857     1244.368        2.508        0.771      180.608       32.137        0.032      343.680       19.959      860.680
05/29/2014  14:47:00      -59.743      -33.124      -44.925       88.594       93.340       37.536     7848.859     8712.304     1408.984        1.232        0.899       68.311       30.729        0.202      343.581       19.792      860.674
05/29/2014  14:48:00      -41.720      -10.012        7.109       83.739       62.109       46.900     7012.259     3857.495     2199.639        0.748        0.653       42.905       52.800        1.514      343.873       20.291      860.635
05/29/2014  14:49:00      -16.631      -99.817        8.417       60.445       64.153       38.349     3653.589     4115.595     1470.675        0.977        0.462      101.193       16.900        0.028      343.675       19.953      860.604
05/29/2014  14:50:00      -33.816      -60.549       -3.094       81.074       53.239       45.728     6572.991     2834.372     2091.068        0.816        0.575       69.353       45.546        0.431      344.039       20.576      860.579
05/29/2014  14:51:00       16.681       39.173       17.610       51.095       58.899       27.368     2610.741     3469.088      748.990        0.447        0.341       42.577       22.474        0.279      344.209       20.866      860.566
05/29/2014  14:52:00       75.454       92.651       21.438       92.867       71.188       49.248     8624.231     5067.669     2425.382        1.542        0.806      119.488       40.217        0.113      344.196       20.841      860.592
05/29/2014  14:53:00       59.458       55.121       11.388       83.670       59.372       41.872     7000.709     3525.044     1753.225        0.949        0.614       81.078       29.683        0.134      344.154       20.773      860.562
05/29/2014  14:54:00      -49.390      186.727      -24.231       80.997       79.853       46.334     6560.520     6376.473     2146.813        2.649        0.754      193.148       48.692        0.064      344.271       20.968      860.516
05/29/2014  14:55:00      109.842      141.708       11.997      156.752      105.923       78.386    24571.253    11219.658     6144.395        3.710        2.097      179.294       60.869        0.115      344.676       21.662      860.444
05/29/2014  14:56:00      232.954      158.892       92.922      185.746      125.361      117.658    34501.713    15715.284    13843.459        7.609        3.203      281.983       88.592        0.099      344.452       21.278      860.436
05/29/2014  14:57:00      222.686      128.373       93.749      122.048       98.912       88.377    14895.742     9783.637     7810.492        5.367        1.624      257.038       54.338        0.045      344.322       21.055      860.529
05/29/2014  14:58:00      135.959      101.346       96.100      127.453       73.191       52.896    16244.380     5356.941     2797.944        3.119        1.220      169.575       46.064        0.074      344.120       20.712      860.539
05/29/2014  14:59:00      111.660       70.781      124.339      101.488      138.492       96.961    10299.853    19180.141     9401.389        3.590        1.944      132.204       99.471        0.566      343.899       20.334      860.533
05/29/2014  15:00:00       80.980       27.616       63.768       77.569       77.122       58.367     6016.934     5947.827     3406.745        1.338        0.769       85.559       49.177        0.330      343.992       20.494      860.532
05/29/2014  15:01:00       76.654       72.686      101.317       99.814      104.869       67.825     9962.916    10997.526     4600.289        2.349        1.278      105.636       61.466        0.339      344.032       20.560      860.517
05/29/2014  15:02:00       75.449       38.100       96.758      105.243       88.155       59.801    11076.102     7771.323     3576.206        1.946        1.121       84.523       41.508        0.241      344.232       20.902      860.493
05/29/2014  15:03:00      107.692      -47.957       18.541       83.407       88.429       58.190     6956.805     7819.665     3386.115        1.620        0.908      117.888       60.916        0.267      344.128       20.727      860.500
05/29/2014  15:04:00       63.374       38.697       52.803       66.555       75.393       39.823     4429.537     5684.134     1585.842        1.000        0.585       74.254       33.856        0.208      344.075       20.635      860.477
05/29/2014  15:05:00      136.833       58.710       86.679      141.899       96.668       87.926    20135.206     9344.720     7730.942        3.344        1.861      148.896       79.289        0.284      343.976       20.465      860.476
05/29/2014  15:06:00       69.761       -1.086       61.059       83.320      103.191       69.480     6942.178    10648.365     4827.416        1.550        1.121       69.770       69.068        0.980      343.873       20.290      860.493
05/29/2014  15:07:00       51.266       14.396       30.250       58.012       67.154       48.096     3365.367     4509.614     2313.191        0.697        0.509       53.249       47.456        0.794      344.093       20.668      860.451
05/29/2014  15:08:00      113.305       69.435       40.292       57.215       35.838       32.650     3273.586     1284.376     1066.014        1.245        0.281      132.888       23.988        0.033      344.339       21.086      860.431
05/29/2014  15:09:00      145.855       59.033       26.844       65.370       70.922       48.082     4273.274     5029.928     2311.845        1.854        0.581      157.348       31.716        0.041      344.118       20.708      860.410
05/29/2014  15:10:00      160.940      120.515       24.366       98.730       67.799       55.727     9747.688     4596.761     3105.523        2.923        0.872      201.060       33.926        0.028      344.128       20.724      860.388
05/29/2014  15:11:00      108.872       62.776       55.364       76.367       64.710       47.193     5831.905     4187.419     2227.150        1.555        0.612      125.674       43.289        0.119      344.321       21.055      860.385
05/29/2014  15:12:00       81.965       -6.510       32.657       79.779       73.778       47.116     6364.724     5443.137     2219.913        1.092        0.701       82.223       52.206        0.403      343.909       20.353      860.351
05/29/2014  15:13:00      169.869     -176.099      -41.325      132.055      139.370       56.279    17438.601    19423.913     3167.345        5.079        2.001      244.676       79.022        0.104      344.059       20.606      860.352
05/29/2014  15:14:00       60.312     -181.482        2.596      122.281       98.577       71.145    14952.610     9717.460     5061.589        3.315        1.487      191.242       67.250        0.124      344.161       20.782      860.347
05/29/2014  15:15:00       58.455      -74.662       38.244       78.904       97.452       74.861     6225.811     9496.973     5604.203        1.589        1.066       94.823       56.807        0.359      344.191       20.832      860.324
05/29/2014  15:16:00       75.321      -21.986       23.551       72.202       72.169       49.322     5213.103     5208.344     2432.696        0.978        0.643       78.464       42.818        0.298      344.171       20.802      860.326
05/29/2014  15:17:00       46.709       25.492       28.683       43.996       52.920       41.878     1935.652     2800.530     1753.781        0.507        0.324       53.213       31.909        0.360      344.123       20.719      860.330
05/29/2014  15:18:00      220.422      159.602       24.790       90.616       72.645       68.728     8211.173     5277.233     4723.524        4.644        0.911      272.137       37.379        0.019      344.275       20.974      860.315
05/29/2014  15:19:00      179.760      116.095       25.855       95.145      101.370       68.543     9052.544    10275.798     4698.091        3.524        1.201      213.990       56.641        0.070      344.033       20.561      860.301
05/29/2014  15:20:00      118.909       94.456       22.569       80.447       66.350       56.354     6471.668     4402.295     3175.722        1.881        0.702      151.859       42.782        0.079      344.139       20.746      860.293
05/29/2014  15:21:00      210.623      157.974       28.599      146.213       86.948       72.140    21378.151     7559.979     5204.235        5.213        1.707      263.283       50.513        0.037      344.150       20.762      860.263
05/29/2014  15:22:00      216.990      155.449       84.532      119.402       93.179       88.608    14256.912     8682.279     7851.332        5.459        1.540      266.925       67.417        0.064      344.038       20.569      860.257
05/29/2014  15:23:00      154.532      121.690       52.548      120.452      104.172       70.462    14508.581    10851.875     4964.835        3.588        1.516      196.694       49.989        0.065      343.905       20.345      860.256
05/29/2014  15:24:00       98.476       98.829       43.099       53.105       38.078       45.969     2820.117     1449.918     2113.147        1.385        0.319      139.516       22.430        0.026      343.803       20.172      860.236
05/29/2014  15:25:00      148.999       99.823       14.900       76.253       50.765       39.908     5814.446     2577.035     1592.622        2.118        0.499      179.347       21.438        0.014      344.191       20.834      860.236
05/29/2014  15:26:00       95.402      101.145       11.696      119.605       77.113       58.194    14305.254     5946.456     3386.519        2.155        1.182      139.039       35.527        0.065      344.372       21.142      860.204
05/29/2014  15:27:00      149.486      112.419       24.278      124.812       97.582       77.744    15578.153     9522.322     6044.108        3.335        1.557      187.040       48.737        0.068      344.472       21.313      860.196
05/29/2014  15:28:00      311.215      224.074       41.252      129.070      124.697       99.653    16659.118    15549.451     9930.627        9.544        2.107      383.489       72.999        0.036      344.021       20.540      860.201
05/29/2014  15:29:00      209.930      156.589       23.866      124.923       90.254       68.164    15605.865     8145.855     4646.313        4.877        1.420      261.899       44.410        0.029      344.039       20.573      860.212
05/29/2014  15:30:00       86.989      126.226       20.808      101.537      126.367       76.635    10309.774    15968.725     5872.961        2.804        1.608      153.298       72.175        0.222      344.250       20.934      860.185
05/29/2014  15:31:00     -112.454      184.217      -37.674       71.655      133.925       36.454     5134.436    17935.916     1328.925        3.620        1.220      215.828       44.608        0.043      344.130       20.728      860.154
05/29/2014  15:32:00     -126.137       -1.393        7.137       78.412       68.059       36.326     6148.431     4632.091     1319.560        1.403        0.605      126.145       40.124        0.101      344.506       21.372      860.099
05/29/2014  15:33:00       46.793       19.317       22.017       59.269       51.363       29.565     3512.809     2638.153      874.100        0.503        0.351       50.623       13.964        0.076      344.530       21.413      860.103
05/29/2014  15:34:00      134.682       85.361       24.140       68.060       44.928       41.944     4632.182     2018.508     1759.268        1.721        0.420      159.454       32.769        0.042      344.268       20.964      860.094
05/29/2014  15:35:00       92.489       59.322       31.423       90.309       79.357       55.872     8155.663     6297.506     3121.726        1.531        0.879      109.879       37.908        0.119      344.687       21.683      860.099
05/29/2014  15:36:00      202.904      173.840       23.854      188.213      132.453      102.405    35423.975    17543.874    10486.802        6.769        3.173      267.190       68.800        0.066      344.360       21.122      860.088
05/29/2014  15:37:00      214.115      156.022       32.505      123.297       88.419       66.715    15202.090     7818.004     4450.880        4.935        1.374      264.931       18.371        0.005      344.205       20.857      860.096
05/29/2014  15:38:00      208.347      150.090       13.347      117.442       82.875       64.864    13792.506     6868.237     4207.287        4.549        1.243      256.779       44.265        0.030      344.349       21.100      860.066
05/29/2014  15:39:00      227.359      184.903        9.150       94.727      100.536       76.375     8973.270    10107.441     5833.088        5.543        1.246      293.055       60.320        0.042      344.375       21.146      860.033
05/29/2014  15:40:00      321.093      200.315       63.499      148.271      116.471       76.960    21984.238    13565.494     5922.850        9.436        2.074      378.453       57.737        0.023      344.541       21.429      859.995
05/29/2014  15:41:00      266.004      164.392       76.870      131.214       98.355       96.664    17217.042     9673.686     9343.861        6.996        1.812      312.702       80.626        0.066      344.498       21.355      859.991
05/29/2014  15:42:00      328.968      166.144       59.842      161.881      133.105      118.239    26205.569    17716.926    13980.506        9.864        2.895      368.543       90.372        0.060      344.316       21.045      860.014
05/29/2014  15:43:00      178.241       66.198        9.263      107.689       78.950       67.950    11596.819     6233.082     4617.254        2.934        1.122      190.137       47.656        0.063      343.964       20.445      860.028
05/29/2014  15:44:00      103.647       50.198       13.887       85.730       68.463       50.235     7349.625     4687.217     2523.534        1.401        0.728      115.164       40.857        0.126      344.186       20.826      860.012
05/29/2014  15:45:00       48.867       39.664       -6.684       36.760       31.853       28.267     1351.279     1014.583      799.026        0.358        0.158       62.938       21.384        0.115      344.390       21.174      859.978
05/29/2014  15:46:00       96.038       75.020       59.740       57.188       42.879       49.692     3270.418     1838.574     2469.250        1.300        0.379      121.866       29.901        0.060      344.080       20.645      859.957
05/29/2014  15:47:00      113.742       65.971       22.448       53.629       52.309       41.183     2876.049     2736.281     1696.069        1.255        0.365      131.489       17.588        0.018      344.038       20.573      859.945
05/29/2014  15:48:00       44.605       49.767       -4.739       49.109       43.452       26.888     2411.724     1888.066      722.975        0.475        0.251       66.831       25.109        0.141      344.380       21.158      859.931
05/29/2014  15:49:00      144.057      132.619       11.269       87.439       77.200       61.385     7645.522     5959.768     3768.121        2.792        0.869      195.806       43.269        0.049      344.447       21.271      859.914
05/29/2014  15:50:00       44.416       87.950       -5.184       40.803       40.051       28.880     1664.862     1604.093      834.073        0.692        0.205       98.529       22.038        0.050      344.232       20.903      859.902
05/29/2014  15:51:00      141.985       89.011       57.696       63.901       43.229       38.858     4083.306     1868.716     1509.982        1.944        0.373      167.579       22.440        0.018      344.401       21.193      859.908
05/29/2014  15:52:00      170.463       82.324       28.312       94.943       79.664       61.154     9014.146     6346.372     3739.838        2.786        0.955      189.301       38.944        0.042      344.747       21.781      859.883
05/29/2014  15:53:00      -11.180      -25.532       47.902       69.612      104.959       54.883     4845.776    11016.388     3012.102        1.097        0.944       27.872       45.147        2.624      345.118       22.420      859.871
05/29/2014  15:54:00      134.041       47.531       33.840      129.868       64.884       55.971    16865.598     4209.910     3132.734        2.278        1.210      142.218       39.254        0.076      344.807       21.888      859.878
05/29/2014  15:55:00      125.408       74.855       31.463       74.065       68.456       43.298     5485.627     4686.238     1874.690        1.718        0.602      146.049       23.476        0.026      344.334       21.078      859.883
05/29/2014  15:56:00       84.987       86.357        2.641       60.714       48.367       36.764     3686.189     2339.321     1351.608        1.103        0.369      121.163       29.861        0.061      344.202       20.853      859.851
05/29/2014  15:57:00      -36.231       53.356        3.761       40.813       62.029       25.345     1665.703     3847.592      642.354        0.516        0.308       64.495       28.189        0.191      344.737       21.768      859.831
05/29/2014  15:58:00      -76.960       66.084      -13.901       26.180       39.464       27.623      685.408     1557.429      763.007        0.674        0.150      101.440       20.525        0.041      344.528       21.412      859.825
05/29/2014  15:59:00      -22.136       87.415      -11.676       21.562       38.002       22.585      464.912     1444.120      510.097        0.534        0.121       90.174       21.136        0.055      344.505       21.372      859.827
05/29/2014  16:00:00        9.020       46.373        4.155       36.770       52.146       25.587     1352.007     2719.244      654.697        0.349        0.236       47.242       23.638        0.250      344.796       21.869      859.821
05/29/2014  16:01:00       56.348      135.221       -5.175       67.793       86.655       51.486     4595.895     7509.102     2650.832        1.812        0.738      146.492       50.937        0.121      344.684       21.676      859.802
05/29/2014  16:02:00       97.971      122.241        9.279       92.165       81.313       63.350     8494.386     6611.779     4013.165        2.187        0.956      156.657       55.337        0.125      344.643       21.606      859.793
05/29/2014  16:03:00       25.494      195.677       -9.291       81.028       80.367       57.457     6565.460     6458.803     3301.363        2.767        0.816      197.330       50.233        0.065      344.699       21.700      859.793
05/29/2014  16:04:00       90.887       71.458       10.338       77.289       59.858       49.474     5973.586     3582.998     2447.680        1.274        0.600      115.614       37.004        0.102      344.599       21.531      859.788
05/29/2014  16:05:00       75.237       59.297       34.722       79.228       73.134       50.691     6277.092     5348.637     2569.566        1.229        0.710       95.795       37.280        0.151      344.616       21.558      859.769
05/29/2014  16:06:00      101.631      101.251       39.003       99.233       68.039       57.120     9847.155     4629.253     3262.731        1.992        0.887      143.459       29.506        0.042      344.864       21.985      859.763
05/29/2014  16:07:00       62.284       41.496       31.265       81.540       83.044       59.362     6648.810     6896.288     3523.890        1.182        0.853       74.841       42.236        0.318      344.966       22.159      859.756
05/29/2014  16:08:00      140.944       75.844       28.088       63.904       55.116       54.869     4083.734     3037.781     3010.611        1.827        0.507      160.054       32.328        0.041      344.697       21.699      859.746
05/29/2014  16:09:00      160.706       94.789       60.354      106.870       87.510       53.271    11421.298     7658.070     2837.774        3.018        1.096      186.578       43.853        0.055      344.526       21.404      859.743
05/29/2014  16:10:00      114.677       91.485       66.848      106.191       51.787       44.172    11276.572     2681.929     1951.142        2.095        0.795      146.698       43.687        0.089      344.746       21.783      859.733
05/29/2014  16:11:00      103.796       74.697       19.187       85.509       78.006       51.318     7311.816     6085.005     2633.536        1.637        0.802      127.880       16.496        0.017      344.756       21.799      859.725
05/29/2014  16:12:00      183.611       93.068       66.130      108.238       95.684       84.906    11715.507     9155.384     7209.001        3.741        1.404      205.852       63.824        0.096      344.829       21.921      859.711
05/29/2014  16:13:00      184.020      137.732      123.827      140.494      121.842       83.513    19738.565    14845.486     6974.389        5.485        2.078      229.855       80.586        0.123      344.507       21.371      859.689
05/29/2014  16:14:00       37.382       25.929       71.994       79.756       50.684       38.059     6361.043     2568.885     1448.468        0.881        0.519       45.494       32.324        0.505      344.510       21.380      859.697
05/29/2014  16:15:00       76.936       83.160        5.036       52.882       48.315       46.281     2796.494     2334.340     2141.905        1.006        0.364      113.290       21.697        0.037      344.627       21.580      859.686
05/29/2014  16:16:00      153.803      107.354       59.831      105.654       65.030       58.062    11162.763     4228.869     3371.195        2.876        0.938      187.564       32.463        0.030      344.699       21.702      859.692
05/29/2014  16:17:00      175.666      112.511       34.838       66.891       52.919       49.949     4474.346     2800.376     2494.858        2.725        0.488      208.608       24.316        0.014      344.608       21.545      859.687
05/29/2014  16:18:00      275.325      158.585       48.213      131.495       81.516       64.900    17290.900     6644.804     4211.979        6.571        1.407      317.731       48.700        0.023      344.699       21.700      859.688
05/29/2014  16:19:00      296.395      194.445       30.791       84.870       60.746       66.864     7202.958     3690.112     4470.855        7.098        0.768      354.484       13.046        0.001      344.356       21.113      859.713
05/29/2014  16:20:00      175.153      122.766       31.240       59.133       56.612       48.602     3496.656     3204.908     2362.188        2.789        0.453      213.893       36.125        0.029      344.311       21.038      859.720
05/29/2014  16:21:00      147.774      103.670        5.348       54.879       39.877       35.635     3011.703     1590.193     1269.829        1.924        0.294      180.512       27.031        0.022      344.383       21.160      859.704
05/29/2014  16:22:00      172.781      107.271        9.259       81.150       67.498       54.484     6585.366     4556.026     2968.524        2.778        0.705      203.373       33.102        0.026      344.412       21.210      859.685
05/29/2014  16:23:00      100.507       76.160        6.967       61.035       61.745       44.008     3725.332     3812.393     1936.746        1.271        0.474      126.104       28.748        0.052      344.544       21.438      859.672
05/29/2014  16:24:00      187.067      147.200       21.051      125.077       93.041       60.133    15644.320     8656.606     3616.035        4.251        1.396      238.038       39.361        0.027      344.748       21.784      859.656
05/29/2014  16:25:00       86.394      128.494        5.968       77.780      109.537       66.609     6049.752    11998.436     4436.758        2.324        1.124      154.838       61.789        0.159      344.541       21.431      859.664
05/29/2014  16:26:00       17.157      252.455      -31.692      107.491      116.069       45.566    11554.409    13471.983     2076.224        4.606        1.355      253.037       46.414        0.034      344.625       21.573      859.623
05/29/2014  16:27:00      175.751      154.063       -0.035      130.201       65.248       49.101    16952.209     4257.282     2410.932        3.912        1.181      233.718       50.887        0.047      344.751       21.790      859.600
05/29/2014  16:28:00       26.425      209.969      -27.668       61.013      111.183       57.206     3722.550    12361.753     3272.501        3.245        0.968      211.625       66.074        0.097      344.569       21.479      859.601
05/29/2014  16:29:00       25.579       89.397        9.921       62.231       89.603       52.377     3872.693     8028.709     2743.364        1.169        0.732       92.984       58.667        0.398      344.868       21.992      859.597
05/29/2014  16:30:00       46.709      171.587      -28.816       60.641       95.267       46.456     3677.283     9075.728     2158.142        2.368        0.746      177.831       53.282        0.090      344.992       22.202      859.615
05/29/2014  16:31:00       83.662      109.565       17.317      100.265       67.442       61.639    10053.088     4548.469     3799.315        1.885        0.920      137.854       46.305        0.113      344.742       21.777      859.633
05/29/2014  16:32:00      112.919      165.493      -13.409       99.108       82.574       72.936     9822.364     6818.460     5319.622        3.114        1.098      200.346       60.973        0.093      344.530       21.411      859.637
05/29/2014  16:33:00      -26.989       76.517      -30.991       90.639       59.587       23.822     8215.369     3550.555      567.491        0.994        0.617       81.137       30.747        0.144      344.684       21.678      859.626
05/29/2014  16:34:00      -44.115       58.137      -13.629       53.363       46.233       31.172     2847.615     2137.531      971.690        0.573        0.298       72.979       34.097        0.218      344.852       21.966      859.571
05/29/2014  16:35:00       59.111      -14.609        7.132       38.613       35.217       25.795     1490.995     1240.221      665.391        0.358        0.170       60.889       23.311        0.147      344.322       21.058      859.555
05/29/2014  16:36:00       65.512      -59.185        3.411       65.803       52.913       33.799     4330.022     2799.788     1142.388        0.804        0.414       88.288       29.558        0.112      344.009       20.523      859.527
05/29/2014  16:37:00       28.084       10.375       40.934       45.154       38.079       28.947     2038.866     1450.015      837.920        0.345        0.216       29.939       17.023        0.323      344.644       21.609      859.505
05/29/2014  16:38:00       45.813       21.487       -2.780       43.475       23.723       18.124     1890.119      562.804      328.474        0.267        0.139       50.602        8.909        0.031      344.347       21.103      859.489
05/29/2014  16:39:00       38.466      -38.746       15.937       26.736       43.985       29.898      714.801     1934.704      893.899        0.339        0.177       54.598       20.438        0.140      344.195       20.843      859.489
05/29/2014  16:40:00       80.064       -8.461       30.155       67.963      126.448       46.679     4619.021    15989.222     2178.944        1.508        1.139       80.510       38.949        0.234      344.586       21.508      859.472
05/29/2014  16:41:00       33.228      -24.976        8.433       43.220       78.713       31.431     1867.997     6195.668      987.914        0.542        0.453       41.568       32.009        0.593      344.439       21.260      859.448
05/29/2014  16:42:00       56.824       64.016       -7.072       39.205       37.553       32.039     1536.999     1410.222     1026.518        0.567        0.199       85.598       19.167        0.050      344.916       22.074      859.461
05/29/2014  16:43:00       87.370       82.060       20.364       52.703       64.008       46.051     2777.603     4097.051     2120.650        1.189        0.450      119.864       40.958        0.117      345.041       22.290      859.477
05/29/2014  16:44:00      209.422      157.301       43.404      122.647      111.998       84.360    15042.209    12543.650     7116.628        5.259        1.735      261.918       60.829        0.054      344.861       21.978      859.466
05/29/2014  16:45:00      285.063      164.420       15.042       84.615       63.176       50.514     7159.620     3991.175     2551.690        6.111        0.685      329.082        6.748        0.000      344.501       21.362      859.478
05/29/2014  16:46:00      195.708      143.841       20.778      113.077       72.816       69.019    12786.332     5302.176     4763.657        4.113        1.143      242.882       47.933        0.039      344.718       21.732      859.470
05/29/2014  16:47:00      176.479      105.241       33.512      109.846       75.668       63.369    12066.133     5725.644     4015.619        3.257        1.090      205.476       45.453        0.049      344.987       22.193      859.457
05/29/2014  16:48:00      215.726       98.897       32.608      113.402       75.115       59.957    12859.950     5642.322     3594.792        3.974        1.105      237.315       24.930        0.011      344.854       21.965      859.452
05/29/2014  16:49:00      124.895       61.099       -1.254       87.508       67.910       41.102     7657.706     4611.771     1689.384        1.664        0.698      139.039       21.181        0.023      344.769       21.822      859.436
05/29/2014  16:50:00      120.048      125.701        8.916       65.656       29.277       47.687     4310.713      857.151     2274.044        1.887        0.372      173.817       33.471        0.037      344.603       21.537      859.428
05/29/2014  16:51:00       31.391       22.620       17.135       63.318       82.943       38.621     4009.133     6879.520     1491.567        0.708        0.619       38.691       14.058        0.132      344.910       22.064      859.389
05/29/2014  16:52:00       49.674       49.146       29.738       79.586       94.966       68.600     6333.877     9018.482     4705.911        1.291        1.003       69.877       35.532        0.259      344.779       21.840      859.384
05/29/2014  16:53:00      125.055      -15.862       52.452      108.448       75.070       65.551    11760.905     5635.477     4296.989        2.016        1.085      126.057       47.859        0.144      344.495       21.353      859.388
05/29/2014  16:54:00       69.362       10.762       25.545       42.305       34.386       36.118     1789.699     1182.431     1304.520        0.493        0.214       70.192       18.170        0.067      344.298       21.018      859.379
05/29/2014  16:55:00       38.877       21.778       41.026       46.007       41.140       31.886     2116.649     1692.529     1016.743        0.425        0.241       44.561       27.410        0.378      344.761       21.811      859.373
05/29/2014  16:56:00      214.977       70.158       36.173      104.626       78.171       52.057    10946.628     6110.726     2709.965        3.610        0.988      226.135       40.512        0.032      344.800       21.873      859.350
05/29/2014  16:57:00       82.242       29.493       50.211       71.306       61.053       47.272     5084.537     3727.510     2234.662        1.060        0.552       87.371       37.934        0.189      344.694       21.694      859.376
05/29/2014  16:58:00       90.691     -150.702        0.356       90.172      105.350       62.638     8131.074    11098.646     3923.534        2.704        1.158      175.886       56.034        0.101      345.111       22.406      859.362
05/29/2014  16:59:00      115.988     -174.620      -12.138       57.907      110.885       52.133     3353.207    12295.506     2717.896        3.123        0.918      209.631       59.788        0.081      344.887       22.020      859.358
05/29/2014  17:00:00       48.225      -18.835       52.752       49.635      101.233       42.314     2463.649    10248.088     1790.480        0.998        0.725       51.773       52.683        1.035      344.677       21.666      859.344
05/29/2014  17:01:00       90.374     -181.346      -27.720       50.021       55.919       36.465     2502.140     3126.932     1329.662        2.439        0.348      202.618       20.224        0.010      344.715       21.726      859.307
05/29/2014  17:02:00       24.917     -131.777       15.026       46.667      100.877       47.647     2177.825    10176.199     2270.262        1.642        0.731      134.112       59.262        0.195      344.870       21.993      859.290
05/29/2014  17:03:00       89.744     -132.292        0.381       44.308       87.248       30.324     1963.172     7612.210      919.550        1.802        0.525      159.859       39.829        0.062      344.766       21.817      859.277
05/29/2014  17:04:00       44.033       82.475       90.141       69.744       61.547       48.751     4864.199     3788.008     2376.661        1.395        0.551       93.494       37.867        0.164      344.685       21.679      859.256
05/29/2014  17:05:00       42.124      -17.411       30.958       75.655       77.209       34.838     5723.652     5961.154     1213.720        0.796        0.645       45.580       38.306        0.706      344.569       21.481      859.252
05/29/2014  17:06:00       -3.805       45.449       33.627       42.604       63.890       36.368     1815.117     4081.974     1322.655        0.521        0.361       45.608       25.577        0.315      344.811       21.895      859.256
05/29/2014  17:07:00       43.765      -15.821        5.926       32.269       34.848       28.380     1041.279     1214.358      805.409        0.263        0.153       46.537       20.591        0.196      344.650       21.619      859.261
05/29/2014  17:08:00       36.393       42.367        2.218       32.294       48.644       34.156     1042.926     2366.196     1166.620        0.385        0.229       55.852       28.385        0.258      344.887       22.025      859.263
05/29/2014  17:09:00       34.350       64.492        6.623       60.461       46.005       36.403     3655.564     2116.464     1325.210        0.624        0.355       73.070       27.526        0.142      344.874       22.004      859.267
05/29/2014  17:10:00       86.449       89.860       10.774       58.453       44.247       44.185     3416.777     1957.807     1952.281        1.149        0.366      124.693       28.166        0.051      344.719       21.738      859.263
05/29/2014  17:11:00       -2.172      126.244      -15.010       49.538       52.760       30.537     2454.001     2783.646      932.538        1.117        0.309      126.263       25.934        0.042      344.748       21.787      859.261
05/29/2014  17:12:00        7.638       96.795      -13.118       27.614       49.193       16.158      762.526     2419.914      261.071        0.652        0.172       97.096       22.762        0.055      344.792       21.861      859.259
05/29/2014  17:13:00       72.411       12.736       13.565       69.216       50.799       39.061     4790.829     2580.522     1525.756        0.724        0.445       73.522       20.549        0.078      344.762       21.813      859.236
05/29/2014  17:14:00       10.154        0.548        8.204       21.303       36.572       23.396      453.827     1337.531      547.356        0.125        0.117       10.169       19.086        3.523      344.595       21.527      859.224
05/29/2014  17:15:00       29.716      -65.393       20.470       52.988       83.133       45.119     2807.685     6911.026     2035.749        0.866        0.588       71.828       41.221        0.329      344.706       21.714      859.202
05/29/2014  17:16:00       45.321     -131.205        2.911       52.443       62.162       46.004     2750.282     3864.098     2116.393        1.400        0.437      138.812       34.016        0.060      345.095       22.380      859.189
05/29/2014  17:17:00       30.016       -4.066        7.863       38.496       77.399       31.109     1481.929     5990.619      967.753        0.471        0.422       30.290       28.357        0.876      344.817       21.905      859.192
05/29/2014  17:18:00       44.628       39.495       30.442       56.755       43.505       46.640     3221.130     1892.682     2175.320        0.588        0.364       59.594       14.936        0.063      344.906       22.057      859.199
05/29/2014  17:19:00       25.088      -38.405       -2.830       37.358       41.186       25.287     1395.614     1696.283      639.442        0.292        0.187       45.873       20.367        0.197      344.491       21.348      859.177
05/29/2014  17:20:00       19.718      -13.069        3.411       28.548       35.936       21.840      815.002     1291.398      476.997        0.158        0.129       23.656       18.203        0.592      344.716       21.731      859.169
05/29/2014  17:21:00       31.927      110.062      -12.362       33.451       43.490       28.246     1118.966     1891.397      797.864        0.855        0.190      114.599       21.885        0.036      344.864       21.987      859.168
05/29/2014  17:22:00       12.158      146.373      -25.008       38.129       74.898       24.523     1453.856     5609.762      601.363        1.493        0.383      146.878       28.331        0.037      345.099       22.385      859.167
05/29/2014  17:23:00       84.561      123.885        0.146       86.774       73.339       50.713     7529.746     5378.638     2571.826        1.899        0.774      149.994       40.143        0.072      345.029       22.266      859.168
05/29/2014  17:24:00       99.868       92.562       18.756       70.011       48.432       38.148     4901.537     2345.694     1455.264        1.380        0.435      136.167       37.431        0.076      344.776       21.835      859.160
05/29/2014  17:25:00       50.103       71.559      -15.068       84.522       41.318       26.560     7143.887     1707.211      705.446        0.871        0.478       87.356       31.477        0.130      344.651       21.621      859.145
05/29/2014  17:26:00     -127.759      140.986      -23.185       49.905       59.019       34.241     2490.524     3483.269     1172.444        2.194        0.357      190.261       26.902        0.020      344.977       22.177      859.111
05/29/2014  17:27:00      -25.956      160.170       -7.301       73.963      101.690       41.564     5470.501    10340.760     1727.606        2.196        0.877      162.259       46.550        0.082      344.979       22.181      859.107
05/29/2014  17:28:00       46.135       59.487       38.224       61.796       66.656       40.519     3818.769     4443.022     1641.753        0.851        0.495       75.280       27.690        0.135      344.972       22.170      859.099
05/29/2014  17:29:00      105.185       57.562       38.957       57.888       72.668       54.830     3351.023     5280.622     3006.379        1.376        0.582      119.905       46.554        0.151      344.559       21.463      859.090
05/29/2014  17:30:00       93.410       90.205       66.198       70.981       41.463       47.306     5038.303     1719.205     2237.876        1.512        0.450      129.855       38.003        0.086      344.454       21.284      859.079
05/29/2014  17:31:00       76.724       64.818       29.950       69.063       51.108       46.065     4769.744     2612.033     2122.014        1.024        0.475      100.439       24.520        0.060      344.963       22.155      859.071
05/29/2014  17:32:00       64.829       56.611       31.082       74.719       43.700       28.541     5582.968     1909.688      814.573        0.834        0.415       86.067       22.915        0.071      344.597       21.528      859.055
05/29/2014  17:33:00       56.506       77.549       10.928       64.231       45.210       43.611     4125.610     2043.926     1901.962        0.870        0.404       95.952       22.865        0.057      344.872       21.999      859.025
05/29/2014  17:34:00       55.690       79.409        0.347       56.539       52.823       33.407     3196.631     2790.280     1116.033        0.825        0.355       96.991       23.224        0.057      344.916       22.075      859.019
05/29/2014  17:35:00      139.528       64.732       -1.194       70.526       37.299       41.819     4973.979     1391.178     1748.839        1.589        0.406      153.812       23.449        0.023      344.749       21.786      859.008
05/29/2014  17:36:00       70.980       73.672        2.235       53.716       43.327       24.660     2885.378     1877.217      608.098        0.792        0.269      102.303       21.830        0.046      344.837       21.939      858.992
05/29/2014  17:37:00        3.928       45.700      -21.218       17.912       31.596       17.582      320.846      998.327      309.112        0.209        0.081       45.869       16.177        0.124      344.846       21.956      858.973
05/29/2014  17:38:00      -17.759       49.097        7.577       44.481       40.454       32.017     1978.550     1636.487     1025.083        0.371        0.232       52.210       31.573        0.366      345.026       22.262      858.945
05/29/2014  17:39:00       68.720       20.772        7.759       85.973       80.749       35.741     7391.364     6520.358     1277.409        1.020        0.759       71.791       38.379        0.286      344.870       21.997      858.951
05/29/2014  17:40:00      150.046       80.739       14.480      134.644       77.086       62.355    18129.089     5942.209     3888.098        2.860        1.398      170.390       51.386        0.091      344.840       21.942      858.920
05/29/2014  17:41:00       44.593      -27.675       19.927       62.328       50.864       51.445     3884.781     2587.197     2646.568        0.613        0.456       52.482       27.010        0.265      344.504       21.370      858.906
05/29/2014  17:42:00       26.062      -61.709       16.512       74.471       95.257       52.674     5545.872     9073.952     2774.526        1.107        0.870       66.987       51.312        0.587      344.946       22.127      858.861
05/29/2014  17:43:00       74.604     -172.971      -37.907       60.969       68.875       30.019     3717.217     4743.748      901.157        2.314        0.468      188.374       23.111        0.015      345.021       22.252      858.864
05/29/2014  17:44:00       47.417       28.014        3.425       72.629       72.657       39.212     5274.960     5278.983     1537.579        0.757        0.605       55.074       40.127        0.531      344.929       22.098      858.894
05/29/2014  17:45:00      152.554       98.891       21.775       84.896       54.685       47.869     7207.286     2990.458     2291.428        2.301        0.624      181.802       30.584        0.028      344.913       22.068      858.918
05/29/2014  17:46:00      230.624      149.545       39.886       89.935       74.595       62.159     8088.217     5564.446     3863.686        4.733        0.876      274.866       38.509        0.020      344.819       21.906      858.909
05/29/2014  17:47:00      233.460      156.581       37.332       97.280       73.487       62.777     9463.451     5400.282     3940.904        4.961        0.940      281.107       55.755        0.039      344.917       22.073      858.913
05/29/2014  17:48:00      181.989      125.505       36.519       93.595       64.748       61.672     8759.992     4192.332     3803.423        3.348        0.838      221.069       49.010        0.049      345.006       22.226      858.927
05/29/2014  17:49:00      173.799      136.920       23.505       99.419       78.130       66.275     9884.202     6104.246     4392.377        3.494        1.019      221.254       43.187        0.038      344.862       21.979      858.929
05/29/2014  17:50:00       44.869      154.586      -18.522       89.903       86.526       54.177     8082.497     7486.694     2935.199        2.238        0.925      160.966       50.191        0.097      344.980       22.182      858.937
05/29/2014  17:51:00       -9.055      190.250      -26.551       34.027       54.211       24.721     1157.849     2938.846      611.108        2.084        0.235      190.465       20.903        0.012      344.927       22.093      858.934
05/29/2014  17:52:00       66.435       53.759       11.796       60.904       52.971       34.800     3709.306     2805.889     1211.020        0.758        0.386       85.462       25.049        0.086      344.858       21.975      858.937
05/29/2014  17:53:00      120.409       78.195       25.456       50.929       42.108       30.684     2593.758     1773.056      941.501        1.328        0.265      143.572       14.845        0.011      344.785       21.850      858.934
05/29/2014  17:54:00      148.956      134.855       10.700       87.158       70.818       66.842     7596.589     5015.237     4467.901        2.878        0.854      200.932       43.257        0.046      344.922       22.081      858.928
05/29/2014  17:55:00      161.630      117.091       37.795       62.691       49.976       58.811     3930.110     2497.600     3458.714        2.557        0.494      199.586       14.675        0.005      344.947       22.125      858.917
05/29/2014  17:56:00      104.077      110.162        9.606       68.827       56.327       37.584     4737.090     3172.711     1412.552        1.619        0.466      151.550       34.176        0.051      344.922       22.084      858.918
05/29/2014  17:57:00       37.693      137.595       -9.046       48.932       75.397       41.742     2394.345     5684.769     1742.426        1.513        0.491      142.664       33.648        0.056      344.971       22.168      858.922
05/29/2014  17:58:00       12.128       79.933       -8.818       35.919       63.496       29.227     1290.182     4031.748      854.237        0.639        0.309       80.848       35.911        0.197      344.951       22.135      858.908
05/29/2014  17:59:00      -10.552       64.006      -13.013       30.340       58.879       26.828      920.534     3466.750      719.753        0.474        0.255       64.870       31.257        0.232      345.093       22.379      858.892
05/29/2014  18:00:00      104.159      118.679       -8.362      101.659       70.663       51.739    10334.499     4993.202     2676.916        2.150        0.900      157.904       43.237        0.075      344.969       22.165      858.888
05/29/2014  18:01:00       86.378       66.554        2.953       36.815       29.511       28.432     1355.338      870.924      808.366        0.747        0.152      109.044       13.673        0.016      344.692       21.688      858.891
05/29/2014  18:02:00       53.963       46.170       33.976       38.110       32.921       28.439     1452.338     1083.797      808.767        0.477        0.167       71.019       12.305        0.030      344.340       21.090      858.872
05/29/2014  18:03:00       88.236       35.739        9.473       41.748       25.296       25.941     1742.882      639.883      672.959        0.610        0.153       95.199       16.304        0.029      344.287       20.999      858.863
05/29/2014  18:04:00       85.698       53.243       10.071       36.261       30.460       32.270     1314.885      927.822     1041.356        0.678        0.164      100.891        9.061        0.008      344.597       21.529      858.856
05/29/2014  18:05:00      137.593       85.796       21.061       95.169       75.311       53.609     9057.076     5671.678     2873.961        2.217        0.880      162.150       35.145        0.047      345.038       22.279      858.849
05/29/2014  18:06:00      132.743       75.966       17.178       76.106       45.150       39.844     5792.070     2038.548     1587.550        1.655        0.471      152.943       22.189        0.021      345.025       22.261      858.844
05/29/2014  18:07:00      129.905      103.094      -11.816       61.851       51.509       38.996     3825.587     2653.192     1520.703        1.782        0.400      165.842       26.284        0.025      344.953       22.135      858.844
05/29/2014  18:08:00      127.796       96.652       32.297       70.138       39.873       48.187     4919.350     1589.865     2321.992        1.777        0.442      160.229       38.183        0.057      344.845       21.951      858.839
05/29/2014  18:09:00      -18.627        5.856        1.877       24.097       28.575       24.524      580.643      816.542      601.407        0.119        0.100       19.525       13.812        0.500      344.547       21.443      858.833
05/29/2014  18:10:00      -11.116       92.018        4.050       38.376       85.502       28.400     1472.733     7310.549      806.549        0.910        0.479       92.687       33.600        0.131      344.969       22.165      858.835
05/29/2014  18:11:00       29.234      119.619      -18.293       28.878       33.284       21.682      833.960     1107.837      470.103        0.895        0.121      123.139       17.246        0.020      344.953       22.138      858.847
05/29/2014  18:12:00       86.886       76.828        5.399       56.590       38.384       28.415     3202.481     1473.340      807.438        0.948        0.274      115.981       20.532        0.031      344.974       22.172      858.840
05/29/2014  18:13:00       66.293      131.058      -13.837       40.561       63.714       29.648     1645.185     4059.481      879.025        1.417        0.329      146.871       32.742        0.050      344.952       22.137      858.841
05/29/2014  18:14:00       82.667       52.554       15.235       44.985       31.301       43.333     2023.671      979.776     1877.747        0.735        0.244       97.958       20.335        0.043      344.693       21.695      858.841
05/29/2014  18:15:00       83.743       52.650       12.386       61.187       47.695       39.780     3743.834     2274.842     1582.448        0.877        0.380       98.919       26.140        0.070      345.026       22.263      858.839
05/29/2014  18:16:00      109.229       62.757       23.689       93.549       55.671       49.736     8751.432     3099.314     2473.667        1.537        0.716      125.974       34.175        0.074      344.974       22.174      858.837
05/29/2014  18:17:00      163.938      108.925       22.917       61.435       62.689       42.948     3774.227     3929.923     1844.528        2.441        0.477      196.826       21.071        0.011      344.960       22.146      858.828
05/29/2014  18:18:00      132.939      103.757       21.148       76.530       54.652       39.255     5856.861     2986.862     1540.990        1.963        0.519      168.637       19.606        0.014      344.974       22.172      858.821
05/29/2014  18:19:00       74.522       76.785       52.952       61.534       43.343       49.794     3786.482     1878.626     2479.490        1.120        0.407      107.002       32.124        0.090      344.713       21.727      858.814
05/29/2014  18:20:00      164.106       96.896       58.805       69.307       49.953       45.314     4803.523     2495.278     2053.398        2.456        0.468      190.577       39.988        0.044      344.822       21.911      858.818
05/29/2014  18:21:00       95.187       68.903       64.103       77.335       59.113       58.304     5980.765     3494.366     3399.362        1.539        0.644      117.509       45.148        0.148      344.685       21.679      858.817
05/29/2014  18:22:00      145.077      102.415       63.372      112.627       67.643       71.770    12684.914     4575.564     5150.917        2.898        1.121      177.585       69.158        0.152      344.783       21.845      858.815
05/29/2014  18:23:00      144.194       90.861       42.717       83.059       53.231       54.041     6898.825     2833.489     2920.399        2.176        0.633      170.433       36.550        0.046      344.678       21.665      858.815
05/29/2014  18:24:00      116.895       68.956       13.191       78.329       71.111       56.068     6135.453     5056.810     3143.581        1.646        0.717      135.718       35.806        0.070      345.089       22.370      858.820
05/29/2014  18:25:00      105.645       47.708       29.262       78.899       61.878       35.575     6225.015     3828.944     1265.598        1.280        0.566      115.918       25.048        0.047      344.673       21.658      858.829
05/29/2014  18:26:00       58.764       29.535       50.659       39.606       55.284       36.138     1568.622     3056.327     1305.940        0.641        0.297       65.769       30.290        0.212      344.592       21.522      858.835
05/29/2014  18:27:00       45.861      -51.916      -18.338       37.232       32.966       29.356     1386.256     1086.786      861.782        0.423        0.167       69.272       19.827        0.082      344.324       21.061      858.831
05/29/2014  18:28:00       31.245      -55.450      -28.212       22.895       31.930       22.211      524.198     1019.507      493.309        0.344        0.102       63.647        9.275        0.021      344.311       21.040      858.818
05/29/2014  18:29:00       70.551      -33.277        3.994       39.182       31.288       24.442     1535.240      978.963      597.435        0.461        0.156       78.005       16.576        0.045      343.808       20.182      858.821
05/29/2014  18:30:00       36.059      -45.827       22.141       32.403       49.223       21.734     1049.926     2422.907      472.379        0.392        0.197       58.313       13.963        0.057      344.686       21.682      858.818
05/29/2014  18:31:00      138.051       50.495       48.060       96.315      110.858       54.537     9276.569    12289.479     2974.257        2.422        1.227      146.996       52.648        0.128      344.443       21.263      858.823
05/29/2014  18:32:00       61.721       47.627       69.820       68.722       70.926       51.608     4722.757     5030.516     2663.401        1.168        0.621       77.960       47.118        0.365      344.650       21.619      858.818
05/29/2014  18:33:00       94.550       76.597       42.479       90.956       70.608       58.080     8273.058     4985.531     3373.246        1.662        0.832      121.683       33.702        0.077      344.678       21.665      858.815
05/29/2014  18:34:00       61.167       50.289       14.246       65.520       54.634       39.933     4292.870     2984.918     1594.608        0.767        0.444       79.186       31.467        0.158      344.809       21.892      858.797
05/29/2014  18:35:00       99.655       62.853       45.827       68.112       51.893       54.539     4639.283     2692.923     2974.513        1.314        0.515      117.821       28.360        0.058      344.661       21.637      858.806
05/29/2014  18:36:00      118.422       71.077       44.525       58.952       66.290       34.620     3475.280     4394.340     1198.562        1.506        0.453      138.115       28.722        0.043      344.596       21.526      858.808
05/29/2014  18:37:00      102.921       69.290       52.538       79.248       64.352       75.934     6280.181     4141.216     5766.041        1.717        0.809      124.072       37.217        0.090      344.645       21.611      858.811
05/29/2014  18:38:00      139.205       70.014       49.741       69.125       55.374       49.024     4778.315     3066.276     2403.333        1.850        0.512      155.820       35.608        0.052      344.556       21.456      858.796
05/29/2014  18:39:00       95.499       37.986       54.698       99.014       64.386       54.549     9803.801     4145.567     2975.635        1.524        0.846      102.776       37.389        0.132      344.690       21.687      858.802
05/29/2014  18:40:00        5.049       49.524       78.419       39.342       46.596       28.706     1547.766     2171.170      824.054        0.658        0.227       49.781       21.186        0.181      344.691       21.689      858.808
05/29/2014  18:41:00       69.739       79.418       78.820       64.052       44.340       35.041     4102.672     1966.002     1227.862        1.234        0.365      105.692       20.113        0.036      344.687       21.683      858.825
05/29/2014  18:42:00      108.473       61.294       34.701       47.938       39.994       32.087     2298.031     1599.490     1029.583        1.083        0.246      124.593       16.532        0.018      344.935       22.106      858.829
05/29/2014  18:43:00      175.143       83.728       52.484      109.723       63.607       53.602    12039.208     4045.823     2873.228        2.970        0.948      194.127       55.862        0.083      344.829       21.923      858.843
05/29/2014  18:44:00       74.403       65.578       64.778       76.670       51.776       33.917     5878.275     2680.800     1150.373        1.187        0.485       99.177       27.933        0.079      344.364       21.130      858.854
05/29/2014  18:45:00       68.822       66.934       38.643       57.001       55.544       35.107     3249.141     3085.119     1232.495        0.914        0.378       96.003       21.920        0.052      344.535       21.422      858.863
05/29/2014  18:46:00       48.717       14.714        1.033       25.967       29.797       21.872      674.268      887.835      478.371        0.232        0.102       50.890       13.272        0.068      344.575       21.491      858.861
05/29/2014  18:47:00       18.152      137.308      -26.259       35.614       61.996       22.363     1268.391     3843.528      500.114        1.274        0.281      138.503       23.107        0.028      344.798       21.871      858.852
05/29/2014  18:48:00       44.378       68.586        1.879       62.417       41.590       33.148     3895.831     1729.726     1098.778        0.670        0.336       81.691       22.452        0.076      344.783       21.848      858.856
05/29/2014  18:49:00      171.847       78.901       12.479       76.107       62.877       46.908     5792.271     3953.496     2200.398        2.393        0.597      189.094       28.947        0.023      344.685       21.678      858.874
05/29/2014  18:50:00       86.029       47.289        4.212       77.391       56.839       35.706     5989.426     3230.662     1274.943        1.007        0.525       98.169       36.393        0.137      344.722       21.743      858.883
05/29/2014  18:51:00       10.626        5.115       25.057       40.217       29.234       27.827     1617.446      854.632      774.352        0.201        0.162       11.793       17.361        2.167      344.303       21.026      858.865
05/29/2014  18:52:00       96.257       40.832        5.125       73.856       35.164       26.599     5454.687     1236.483      707.497        0.918        0.370      104.559       21.725        0.043      344.434       21.249      858.879
05/29/2014  18:53:00      100.587       53.828       10.723       58.465       48.140       40.607     3418.168     2317.428     1648.919        1.026        0.369      114.085       32.103        0.079      344.684       21.678      858.891
05/29/2014  18:54:00       77.018       62.208       56.821       45.167       44.688       46.310     2040.027     1997.025     2144.577        0.960        0.309       99.003       22.759        0.053      344.244       20.926      858.901
05/29/2014  18:55:00       20.637       23.948        2.440       29.385       35.196       26.344      863.475     1238.730      693.995        0.190        0.140       31.614       18.174        0.330      344.367       21.136      858.909
05/29/2014  18:56:00        6.214      -11.577       11.335       13.443       22.616       10.234      180.707      511.477      104.741        0.055        0.040       13.139        8.765        0.445      344.069       20.625      858.920
05/29/2014  18:57:00        8.154        6.898       22.035       20.222       23.658       24.581      408.917      559.702      604.217        0.109        0.079       10.680       16.551        2.401      343.919       20.370      858.933
05/29/2014  18:58:00       15.938       12.818        5.816       24.595       32.816       23.545      604.907     1076.896      554.383        0.134        0.112       20.452       15.135        0.548      343.905       20.347      858.938
05/29/2014  18:59:00       86.174       41.723       14.606       87.738       91.261       48.813     7698.032     8328.650     2382.730        1.389        0.920       95.744       20.654        0.047      344.499       21.360      858.934
05/29/2014  19:00:00       74.366       39.752       12.439       54.662       42.797       29.158     2987.973     1831.601      850.210        0.647        0.283       84.324       25.731        0.093      344.696       21.698      858.945
05/29/2014  19:01:00       79.565       24.887       -9.197       52.844       41.515       33.173     2792.507     1723.470     1100.472        0.632        0.281       83.366       20.561        0.061      344.600       21.535      858.954
05/29/2014  19:02:00       33.142        3.008        1.465       33.983       20.002       19.890     1154.863      400.087      395.629        0.153        0.098       33.279       13.271        0.159      344.440       21.260      858.948
05/29/2014  19:03:00       42.370        9.839       -0.823       19.551       13.040       18.217      382.247      170.036      331.863        0.139        0.044       43.497       10.316        0.056      344.102       20.682      858.941
05/29/2014  19:04:00       25.764       18.131        2.922       30.391       26.255       20.765      923.635      689.307      431.191        0.152        0.102       31.504       17.041        0.293      344.416       21.220      858.954
05/29/2014  19:05:00       40.352       20.389        2.452       26.592       32.998       22.837      707.156     1088.854      521.522        0.218        0.116       45.210       15.411        0.116      344.315       21.046      858.950
05/29/2014  19:06:00       24.032       11.744       13.947       25.054       16.211       24.813      627.700      262.781      615.703        0.121        0.075       26.748       14.319        0.287      344.103       20.686      858.939
05/29/2014  19:07:00       71.227        0.252       12.849       38.068       36.113       23.538     1449.183     1304.184      554.038        0.427        0.165       71.228       20.205        0.080      343.860       20.271      858.941
05/29/2014  19:08:00       55.252        5.582        4.952       22.659       40.610       24.967      513.448     1649.147      623.339        0.295        0.139       55.533       14.433        0.068      343.656       19.920      858.943
05/29/2014  19:09:00       21.592        2.812        8.721       40.460       17.616       20.059     1637.001      310.338      402.369        0.145        0.117       21.774       17.556        0.650      343.708       20.010      858.946
05/29/2014  19:10:00       20.106       40.206       14.197       48.480       37.654       21.540     2350.287     1417.809      463.956        0.323        0.212       44.953       22.830        0.258      344.318       21.053      858.953
05/29/2014  19:11:00       69.913       54.368        7.855       47.558       38.424       40.512     2261.786     1476.399     1641.254        0.664        0.269       88.565       27.659        0.098      344.411       21.211      858.957
05/29/2014  19:12:00       54.524       44.412       15.356       36.303       29.371       30.714     1317.905      862.644      943.326        0.415        0.156       70.323       16.851        0.057      343.978       20.472      858.949
05/29/2014  19:13:00       55.118       24.567       38.832       51.961       47.282       32.021     2699.951     2235.593     1025.360        0.555        0.298       60.345       25.389        0.177      344.055       20.603      858.954
05/29/2014  19:14:00       63.015       67.837       19.362       38.072       33.412       40.730     1449.447     1116.383     1658.939        0.659        0.211       92.589       23.862        0.066      344.684       21.678      858.968
05/29/2014  19:15:00       46.535        6.989       12.330       25.654       21.340       23.631      658.103      455.382      558.420        0.202        0.084       47.057       11.182        0.056      344.439       21.259      858.971
05/29/2014  19:16:00       44.960        5.635       -1.098       26.135       19.884       20.204      683.046      395.356      408.210        0.177        0.074       45.312       15.364        0.115      344.088       20.659      858.981
05/29/2014  19:17:00       27.783       -5.911       -0.431       52.192       37.430       22.080     2724.011     1401.009      487.520        0.271        0.231       28.404       17.383        0.375      344.297       21.017      858.988
05/29/2014  19:18:00       51.400      -20.890       -0.832       42.521       23.701       21.902     1808.033      561.738      479.677        0.296        0.142       55.483        7.785        0.020      343.377       19.447      859.000
05/29/2014  19:19:00       52.870      -45.079       -6.653       33.517       35.888       29.465     1123.377     1287.943      868.177        0.407        0.164       69.479       21.635        0.097      343.876       20.297      858.990
05/29/2014  19:20:00       30.618       38.799       26.060       27.258       33.797       37.253      742.997     1142.261     1387.751        0.320        0.164       49.425       25.641        0.269      344.116       20.706      858.997
05/29/2014  19:21:00       55.869      -44.752       27.482       55.367       72.844       45.746     3065.557     5306.277     2092.732        0.817        0.523       71.583       56.394        0.621      344.062       20.614      858.995
05/29/2014  19:22:00       40.111       17.659       43.172       42.913       41.560       29.520     1841.555     1727.271      871.405        0.411        0.222       43.826       28.755        0.430      344.163       20.786      858.992
05/29/2014  19:23:00      142.214       71.823       34.888       83.565       55.639       38.478     6983.070     3095.643     1480.593        1.908        0.578      159.321       26.934        0.029      344.422       21.228      859.000
05/29/2014  19:24:00      116.034       42.822       26.335       47.182       40.358       40.501     2226.179     1628.768     1640.325        1.074        0.275      123.684       27.237        0.048      344.247       20.930      859.010
05/29/2014  19:25:00       81.201       57.105       12.665       29.667       28.671       29.376      880.123      822.037      862.925        0.629        0.128       99.270       15.679        0.025      344.202       20.855      859.008
05/29/2014  19:26:00      115.026       72.159       27.158       42.096       34.614       29.056     1772.058     1198.156      844.239        1.149        0.191      135.786       12.514        0.008      344.277       20.983      859.013
05/29/2014  19:27:00      128.630       51.827       18.294       25.423       33.340       26.127      646.347     1111.581      682.635        1.100        0.122      138.679       21.706        0.024      344.301       21.022      859.023
05/29/2014  19:28:00       59.396       49.970       22.520       39.616       34.561       24.077     1569.433     1194.457      579.707        0.494        0.167       77.620       17.209        0.049      343.951       20.425      859.026
05/29/2014  19:29:00       61.253       37.569       -1.978       33.889       26.299       29.206     1148.493      691.649      853.016        0.393        0.135       71.857       15.292        0.045      343.889       20.319      859.028
05/29/2014  19:30:00       51.331       17.482       15.734       20.428       25.239       30.689      417.287      637.001      941.833        0.259        0.100       54.226       10.980        0.041      343.768       20.111      859.027
05/29/2014  19:31:00       34.361       12.394       19.141       24.494       42.750       33.887      599.950     1827.533     1148.337        0.264        0.179       36.528       18.742        0.263      343.750       20.081      859.037
05/29/2014  19:32:00       45.127       36.258       31.642       38.502       23.257       27.519     1482.435      540.891      757.286        0.357        0.139       57.889       25.010        0.187      343.969       20.455      859.034
05/29/2014  19:33:00       44.470       15.503        4.641       34.665       19.988       23.293     1201.640      399.525      542.549        0.219        0.107       47.095       20.038        0.181      343.644       19.901      859.037
05/29/2014  19:34:00       43.206        5.380        9.059       34.025       29.499       20.504     1157.684      870.173      420.419        0.221        0.122       43.540       19.064        0.192      343.571       19.778      859.031
05/29/2014  19:35:00       51.438      -40.142        4.837       41.740       58.624       27.328     1742.229     3436.811      746.831        0.510        0.296       65.247       30.346        0.216      344.409       21.206      859.030
05/29/2014  19:36:00       34.264      -81.519        7.552       34.225       52.190       31.676     1171.343     2723.789     1003.355        0.639        0.245       88.427       26.118        0.087      344.803       21.881      859.018
05/29/2014  19:37:00       38.532      -55.469        1.905       34.315       37.169       33.159     1177.511     1381.500     1099.507        0.411        0.183       67.539       18.725        0.077      344.275       20.980      859.011
05/29/2014  19:38:00       27.966       18.415        1.109       16.755       30.534       18.402      280.735      932.297      338.645        0.134        0.078       33.485       13.956        0.174      344.099       20.677      859.009
05/29/2014  19:39:00       81.007       36.774       20.129       36.613       24.748       29.276     1340.498      612.477      857.095        0.556        0.141       88.964       24.468        0.076      344.178       20.812      859.023
05/29/2014  19:40:00       86.193       63.166        1.792       26.709       27.162       24.231      713.354      737.761      587.134        0.673        0.102      106.861       15.235        0.020      344.091       20.666      859.026
05/29/2014  19:41:00       42.106       20.078        6.282       30.143       21.763       26.554      908.586      473.648      705.091        0.215        0.104       46.648       13.495        0.084      343.800       20.168      859.027
05/29/2014  19:42:00       27.997      -10.551       14.463       16.924       26.094       20.242      286.411      680.904      409.722        0.124        0.069       29.919        8.942        0.089      343.500       19.655      859.036
05/29/2014  19:43:00       37.876       -1.148       -7.079       22.265       20.656       19.799      495.726      426.687      392.004        0.140        0.066       37.894       11.230        0.088      343.557       19.754      859.042
05/29/2014  19:44:00       11.911       10.376      -22.636       24.337       26.592       19.912      592.281      707.113      396.490        0.123        0.085       15.797       14.227        0.811      343.856       20.262      859.037
05/29/2014  19:45:00       34.465       -0.197      -18.219       21.612       22.887       19.642      467.065      523.824      385.800        0.145        0.069       34.466        2.442        0.005      343.508       19.670      859.036
05/29/2014  19:46:00       25.373        2.391       -8.233       31.742       28.025       31.061     1007.562      785.416      964.803        0.174        0.138       25.486       25.624        1.011      343.830       20.219      859.038
05/29/2014  19:47:00       32.807        7.427       18.254       33.965       14.001       24.874     1153.633      196.027      618.726        0.172        0.098       33.638       14.722        0.192      343.716       20.024      859.041
05/29/2014  19:48:00        6.108       -3.331      -12.238       34.725       27.808       18.561     1205.814      773.275      344.526        0.126        0.116        6.958        3.856        0.307      343.271       19.266      859.039
05/29/2014  19:49:00        9.265       -8.928       -7.030       19.117       28.785       17.882      365.442      828.557      319.773        0.086        0.076       12.867       13.182        1.050      343.273       19.268      859.041
05/29/2014  19:50:00       20.261      -12.562        9.374       22.809       16.600       17.189      520.234      275.563      295.447        0.087        0.055       23.839       11.988        0.253      343.568       19.771      859.037
05/29/2014  19:51:00       36.261      -25.853       -6.594       20.669       17.536       20.153      427.192      307.495      406.141        0.158        0.057       44.533        3.283        0.005      344.046       20.588      859.041
05/29/2014  19:52:00       62.128       -5.409       -6.414       20.825       20.627       24.495      433.696      425.493      600.018        0.269        0.073       62.363       16.073        0.066      344.026       20.554      859.042
05/29/2014  19:53:00       68.410      -11.815       26.174       19.111       13.845       20.424      365.217      191.677      417.149        0.324        0.049       69.422       15.084        0.047      344.224       20.892      859.040
05/29/2014  19:54:00       40.035       -2.804       27.833       26.277       12.500       13.920      690.475      156.252      193.756        0.171        0.052       40.133        8.131        0.041      343.891       20.323      859.046
05/29/2014  19:55:00       45.225        7.461        7.521       32.697       19.041       15.789     1069.081      362.556      249.293        0.192        0.084       45.836        9.940        0.047      343.820       20.201      859.038
05/29/2014  19:56:00       53.117      -10.595        9.802       36.754       22.264       19.594     1350.843      495.699      383.912        0.263        0.112       54.163       14.123        0.068      343.700       19.996      859.040
05/29/2014  19:57:00       40.983      -40.440        9.813       29.604       32.048       23.160      876.397     1027.069      536.364        0.293        0.122       57.576       21.271        0.136      344.130       20.731      859.036
05/29/2014  19:58:00       54.094      -39.834       -0.682       33.746       34.308       31.188     1138.787     1177.017      972.702        0.390        0.164       67.179       29.761        0.196      343.554       19.747      859.034
05/29/2014  19:59:00       18.569       -6.909       28.410       36.809       40.098       29.821     1354.913     1607.879      889.293        0.253        0.193       19.813       28.846        2.120      343.676       19.956      859.037
05/29/2014  20:00:00       44.203        8.417        4.213       24.906       43.540       22.319      620.310     1895.732      498.135        0.253        0.151       44.997       23.550        0.274      343.800       20.167      859.054
05/29/2014  20:01:00       45.202       46.986       -6.089       26.327       30.992       25.162      693.121      960.485      633.118        0.329        0.114       65.199       14.258        0.048      343.523       19.694      859.052
05/29/2014  20:02:00       69.527       46.211       24.214       27.740       28.514       29.928      769.511      813.044      895.673        0.502        0.124       83.483       13.888        0.028      343.584       19.798      859.061
05/29/2014  20:03:00       72.123       41.484       -5.868       28.041       29.610       25.969      786.320      876.766      674.382        0.465        0.117       83.203        7.765        0.009      343.563       19.763      859.064
05/29/2014  20:04:00       43.661       40.583        6.609       26.580       28.170       27.717      706.482      793.574      768.246        0.293        0.113       59.609       10.453        0.031      343.468       19.600      859.072
05/29/2014  20:05:00       67.065       39.565       17.336       30.937       25.748       33.759      957.094      662.956     1139.682        0.456        0.138       77.866       14.475        0.035      343.451       19.573      859.081
05/29/2014  20:06:00       48.581       28.711       10.921       30.666       28.988       25.603      940.398      840.319      655.522        0.287        0.122       56.431       12.936        0.053      343.540       19.724      859.090
05/29/2014  20:07:00       44.660       33.334       -0.429       47.695       25.061       18.248     2274.845      628.073      332.973        0.317        0.162       55.728        6.909        0.015      343.570       19.774      859.107
05/29/2014  20:08:00       51.512       39.165       10.509       28.402       19.198       22.418      806.679      368.564      502.559        0.299        0.084       64.710       15.317        0.056      344.124       20.720      859.119
05/29/2014  20:09:00       61.085       29.609       -2.167       20.246       23.390       28.102      409.907      547.074      789.700        0.318        0.087       67.882       13.501        0.040      343.173       19.099      859.125
05/29/2014  20:10:00       70.840       34.786      -12.631       38.708       23.308       24.116     1498.307      543.250      581.585        0.450        0.131       78.920       25.722        0.106      343.407       19.497      859.127
05/29/2014  20:11:00       43.442       46.965        2.810       24.669       18.731       20.256      608.572      350.834      410.294        0.273        0.068       63.976       12.215        0.036      343.964       20.447      859.128
05/29/2014  20:12:00       47.271       16.988        0.473       39.911       21.765       19.894     1592.925      473.712      395.779        0.249        0.123       50.231       17.569        0.122      343.399       19.483      859.129
05/29/2014  20:13:00       17.667       42.656        3.752       26.552       27.184       12.690      704.985      738.993      161.033        0.188        0.080       46.170        9.093        0.039      343.820       20.202      859.133
05/29/2014  20:14:00       42.150       39.077       11.258       35.830       22.487       22.041     1283.775      505.664      485.805        0.285        0.114       57.477       21.874        0.145      343.815       20.192      859.137
05/29/2014  20:15:00       44.614       46.442       20.987       30.624       21.851       19.184      937.830      477.474      368.010        0.319        0.089       64.399       17.648        0.075      344.100       20.680      859.146
05/29/2014  20:16:00       47.994       51.672        6.890       30.983       26.007       23.253      959.928      676.359      540.716        0.360        0.109       70.522       17.495        0.062      344.086       20.657      859.158
05/29/2014  20:17:00       50.224       43.231       14.040       29.718       24.007       23.487      883.156      576.322      551.634        0.330        0.101       66.267        9.887        0.022      344.203       20.857      859.166
05/29/2014  20:18:00       36.155       65.171        1.780       27.249       29.457       16.767      742.514      867.727      281.136        0.372        0.095       74.529       14.970        0.040      344.143       20.753      859.168
05/29/2014  20:19:00       28.305       60.381        4.324       33.492       43.543       27.050     1121.738     1895.971      731.700        0.411        0.187       66.686       20.600        0.095      344.104       20.686      859.179
05/29/2014  20:20:00       37.702      135.517      -16.875       32.647       55.055       27.358     1065.819     3031.047      748.477        1.246        0.242      140.664       30.932        0.048      344.109       20.693      859.187
05/29/2014  20:21:00       44.455       72.466        3.145       28.827       44.648       31.369      831.025     1993.423      984.025        0.552        0.190       85.015       29.172        0.118      344.054       20.600      859.196
05/29/2014  20:22:00       32.440      108.096      -10.783       30.585       34.819       28.727      935.456     1212.337      825.255        0.791        0.149      112.859       20.242        0.032      344.077       20.641      859.203
05/29/2014  20:23:00       37.217       95.188       -2.460       41.855       62.873       36.112     1751.809     3953.055     1304.082        0.873        0.350      102.205       38.761        0.144      344.044       20.583      859.207
05/29/2014  20:24:00       38.054      105.872       -8.729       43.693       50.634       28.007     1909.098     2563.779      784.413        0.899        0.263      112.503       32.394        0.083      344.036       20.570      859.212
05/29/2014  20:25:00       24.658       81.230        7.473       29.661       47.841       32.429      879.769     2288.763     1051.670        0.574        0.211       84.890       31.386        0.137      343.929       20.387      859.218
05/29/2014  20:26:00       10.706      146.523      -28.264       32.372       21.961       15.033     1047.951      482.284      225.994        1.207        0.088      146.914       12.035        0.007      344.000       20.507      859.223
05/29/2014  20:27:00      -31.712      127.591      -22.264       38.324       46.935       16.867     1468.764     2202.887      284.503        1.087        0.198      131.473       19.303        0.022      344.008       20.521      859.223
05/29/2014  20:28:00      -12.908      153.995      -21.810       29.905       24.615       17.347      894.296      605.884      300.901        1.308        0.090      154.535       11.149        0.005      344.047       20.589      859.228
05/29/2014  20:29:00       16.519      204.126      -36.266       35.847       42.120       18.036     1285.024     1774.090      325.282        2.332        0.169      204.793       17.617        0.007      344.065       20.616      859.227
05/29/2014  20:30:00       20.541      167.612      -27.789       37.594       30.476       16.854     1413.344      928.794      284.052        1.596        0.131      168.866       15.462        0.008      344.068       20.622      859.230
05/29/2014  20:31:00       15.155      160.230      -24.512       34.410       28.998       16.776     1184.021      840.890      281.422        1.440        0.115      160.945       18.710        0.014      344.044       20.585      859.239
05/29/2014  20:32:00       34.065      106.273      -10.126       30.636       42.069       23.355      938.574     1769.798      545.452        0.790        0.163      111.599       21.838        0.038      343.945       20.415      859.242
05/29/2014  20:33:00       30.354       71.390       -7.503       28.021       22.521       20.245      785.180      507.179      409.848        0.389        0.085       77.575       13.556        0.031      343.900       20.340      859.246
05/29/2014  20:34:00       -6.244       67.404       -8.771       25.176       15.294       13.264      633.808      233.905      175.925        0.285        0.052       67.692       13.948        0.042      343.920       20.372      859.252
05/29/2014  20:35:00      -25.753       28.522       -7.881       23.584       17.024        6.829      556.210      289.832       46.639        0.122        0.045       38.428        7.675        0.040      343.884       20.310      859.251
05/29/2014  20:36:00       -9.887        5.690        5.203       24.629       20.231       16.496      606.598      409.294      272.133        0.072        0.064       11.407       11.906        1.089      343.544       19.730      859.255
05/29/2014  20:37:00       17.876       32.627        5.395       42.801       16.933       19.351     1831.913      286.729      374.450        0.195        0.125       37.204       16.437        0.195      343.111       18.993      859.265
05/29/2014  20:38:00      -43.911        9.237      -17.944       16.765       26.252       13.468      281.060      689.177      181.375        0.174        0.058       44.872       14.308        0.102      343.464       19.594      859.271
05/29/2014  20:39:00     -102.057      -11.528       -5.560       29.363       17.874       14.805      862.192      319.471      219.202        0.599        0.070      102.706       11.548        0.013      343.520       19.688      859.271
05/29/2014  20:40:00      -48.547       10.387       11.592       27.213       30.811       23.915      740.552      949.347      571.915        0.243        0.113       49.646       18.261        0.135      343.155       19.067      859.291
05/29/2014  20:41:00      -89.030        0.154       -2.617       46.239       33.743       22.621     2138.041     1138.621      511.717        0.586        0.189       89.031       25.247        0.080      343.246       19.222      859.298
05/29/2014  20:42:00     -117.632       11.298       -7.326       56.944       27.133       23.831     3242.574      736.200      567.940        0.928        0.227      118.173       30.149        0.065      343.150       19.059      859.309
05/29/2014  20:43:00     -130.557        0.609      -10.844       34.970       33.577       20.078     1222.922     1127.397      403.120        0.996        0.138      130.558       17.230        0.017      343.135       19.034      859.317
05/29/2014  20:44:00     -141.829      -23.336      -22.201       25.825       37.028       15.869      666.927     1371.058      251.817        1.172        0.114      143.736       13.008        0.008      343.049       18.887      859.325
05/29/2014  20:45:00      -53.240       -0.387        1.690       44.049       33.679       18.475     1940.311     1134.258      341.328        0.313        0.171       53.241        5.292        0.010      342.957       18.730      859.336
05/29/2014  20:46:00     -130.238       -0.359      -15.481       49.098       20.668       19.195     2410.641      427.166      368.457        1.020        0.160      130.238       20.844        0.026      342.958       18.733      859.342
05/29/2014  20:47:00     -161.929       -8.865      -14.998       31.739       26.775       17.580     1007.379      716.891      309.065        1.428        0.102      162.171       15.728        0.009      343.008       18.818      859.343
05/29/2014  20:48:00     -170.994       -3.550      -16.413       31.542       28.743       18.242      994.910      826.187      332.769        1.584        0.108      171.031       15.934        0.009      343.199       19.141      859.351
05/29/2014  20:49:00     -158.316        5.969      -18.650       36.366       37.915       24.824     1322.497     1437.558      616.207        1.441        0.169      158.429       19.708        0.015      343.162       19.079      859.357
05/29/2014  20:50:00     -116.872       -1.360      -10.626       23.946       30.616       19.227      573.400      937.340      369.674        0.783        0.094      116.880        7.291        0.004      343.111       18.992      859.363
05/29/2014  20:51:00     -103.849       -8.954       -9.016       26.997       32.950       18.148      728.818     1085.681      329.357        0.654        0.107      104.235        7.735        0.006      343.132       19.027      859.368
05/29/2014  20:52:00     -109.846        6.441      -14.285       24.630       34.700       18.154      606.641     1204.080      329.581        0.723        0.107      110.035       13.985        0.016      343.136       19.035      859.372
05/29/2014  20:53:00      -99.721      -28.662       -2.356       47.683       53.848       20.670     2273.652     2899.593      427.268        0.818        0.280      103.758       20.199        0.038      343.117       19.003      859.377
05/29/2014  20:54:00     -134.997      -26.702      -11.807       46.305       34.314       24.270     2144.189     1177.468      589.012        1.149        0.196      137.612       22.769        0.027      343.025       18.846      859.387
05/29/2014  20:55:00     -138.952      -23.614      -15.280       43.859       37.168       29.031     1923.596     1381.459      842.782        1.212        0.207      140.944       30.940        0.048      343.002       18.807      859.401
05/29/2014  20:56:00     -142.606      -30.507       -9.424       42.294       40.029       27.470     1788.803     1602.284      754.590        1.275        0.207      145.832       23.211        0.025      343.021       18.840      859.408
05/29/2014  20:57:00     -125.273        9.883       -2.977       33.100       42.180       23.639     1095.600     1779.164      558.801        0.962        0.172      125.662       18.216        0.021      343.022       18.841      859.429
05/29/2014  20:58:00     -150.549      -12.903      -14.483       30.789       36.782       22.166      947.992     1352.879      491.312        1.292        0.140      151.101       16.651        0.012      342.993       18.791      859.449
05/29/2014  20:59:00     -106.425      -36.791      -10.478       32.884       41.764       23.947     1081.336     1744.219      573.459        0.809        0.170      112.605       17.263        0.024      342.962       18.739      859.453
05/29/2014  21:00:00     -137.150       -6.780      -19.307       41.045       44.394       19.700     1684.659     1970.853      388.109        1.164        0.202      137.317       13.899        0.010      343.009       18.819      859.456
05/29/2014  21:01:00     -141.458      -23.087      -17.103       47.889       44.896       26.996     2293.325     2015.692      728.771        1.294        0.252      143.330       26.608        0.034      343.062       18.908      859.462
05/29/2014  21:02:00     -171.197      -46.981      -15.086       34.595       45.683       18.958     1196.780     2086.980      359.402        1.769        0.182      177.526       12.288        0.005      342.994       18.792      859.456
05/29/2014  21:03:00      -87.696        1.049      -11.015       42.875       37.618       23.414     1838.289     1415.106      548.221        0.581        0.190       87.703       22.384        0.065      342.890       18.616      859.473
05/29/2014  21:04:00      -89.087      -37.468       -7.747       28.982       31.677       16.374      839.955     1003.414      268.099        0.576        0.106       96.646       14.143        0.021      343.009       18.819      859.491
05/29/2014  21:05:00     -111.882      -26.483      -12.518       22.043       23.812       14.757      485.915      567.034      217.782        0.732        0.064      114.974        9.783        0.007      342.925       18.675      859.498
05/29/2014  21:06:00      -79.034      -16.748       -6.363       34.064       35.789       16.506     1160.355     1280.866      272.443        0.464        0.136       80.789       15.487        0.037      343.081       18.942      859.503
05/29/2014  21:07:00      -80.577       -2.688      -12.621       28.507       18.231       11.808      812.658      332.382      139.427        0.397        0.064       80.621        6.374        0.006      342.927       18.678      859.517
05/29/2014  21:08:00      -79.596      -28.741      -11.199       24.090       20.580       14.772      580.323      423.523      218.212        0.425        0.061       84.626       12.883        0.023      342.966       18.746      859.523
05/29/2014  21:09:00     -107.797      -40.809       -7.810       37.217       30.871       16.346     1385.121      953.043      267.182        0.798        0.130      115.263       20.324        0.031      342.938       18.698      859.527
05/29/2014  21:10:00      -94.023        1.238       -7.408       18.354       14.728       11.591      336.886      216.928      134.347        0.479        0.034       94.031        9.288        0.010      342.990       18.784      859.549
05/29/2014  21:11:00     -137.832       -8.434      -25.983       19.417       11.393       11.194      377.028      129.804      125.303        1.019        0.032      138.090       10.782        0.006      342.993       18.792      859.545
05/29/2014  21:12:00     -115.957      -19.566      -19.494       37.085       25.415       18.851     1375.274      645.936      355.349        0.829        0.119      117.596       18.447        0.025      343.089       18.957      859.552
05/29/2014  21:13:00     -103.733       -1.990      -11.566       15.915       21.001       14.647      253.290      441.029      214.540        0.590        0.045      103.752        9.480        0.008      343.036       18.864      859.556
05/29/2014  21:14:00      -95.382       35.013      -16.453       15.147       29.716       13.688      229.423      883.065      187.353        0.595        0.065      101.605       13.467        0.018      343.062       18.909      859.577
05/29/2014  21:15:00      -81.950       49.569      -13.196       27.586       26.347       19.263      760.984      694.185      371.053        0.559        0.091       95.775       13.487        0.020      343.053       18.893      859.575
05/29/2014  21:16:00      -71.715       40.407       -0.400       37.208       31.304       27.092     1384.423      979.911      733.971        0.494        0.155       82.315       12.875        0.024      343.045       18.880      859.594
05/29/2014  21:17:00     -113.981       84.406      -24.722       39.416       34.619       19.700     1553.653     1198.454      388.076        1.193        0.157      141.831       21.917        0.024      343.316       19.341      859.605
05/29/2014  21:18:00      -99.966       63.225      -13.976       39.181       36.525       28.359     1535.178     1334.081      804.247        0.893        0.184      118.282       24.621        0.043      343.296       19.308      859.624
05/29/2014  21:19:00     -109.328       50.300      -15.454       27.434       24.654       18.354      752.624      607.825      336.867        0.821        0.085      120.344       13.018        0.012      343.255       19.237      859.630
05/29/2014  21:20:00     -101.385       43.221      -12.065       39.689       25.229       28.001     1575.226      636.507      784.082        0.764        0.150      110.214       22.632        0.042      343.041       18.873      859.635
05/29/2014  21:21:00      -85.958       25.162      -12.443       36.854       22.213       14.494     1358.241      493.421      210.067        0.512        0.103       89.565        9.874        0.012      342.943       18.706      859.632
05/29/2014  21:22:00      -69.498       25.839       -8.471       20.125       22.303       16.812      404.998      497.443      282.634        0.338        0.059       74.146       10.378        0.020      343.027       18.850      859.633
05/29/2014  21:23:00      -82.405       51.877      -10.308       38.425       31.391       24.154     1476.457      985.390      583.407        0.632        0.152       97.374       17.945        0.034      343.090       18.956      859.640
05/29/2014  21:24:00      -84.488       69.503       -8.044       30.134       43.026       22.963      908.076     1851.270      527.314        0.766        0.164      109.402       24.902        0.052      343.150       19.058      859.643
05/29/2014  21:25:00      -76.644      101.548      -11.174       26.072       45.458       25.586      679.726     2066.463      654.638        0.986        0.170      127.226       26.305        0.043      343.204       19.150      859.656
05/29/2014  21:26:00      -62.633       38.727       -8.731       21.710       32.153       19.418      471.327     1033.847      377.058        0.369        0.094       73.639       12.920        0.031      343.046       18.881      859.662
05/29/2014  21:27:00      -66.460       82.571      -12.970       32.903       37.297       23.873     1082.633     1391.100      569.905        0.722        0.152      105.995       22.080        0.043      343.095       18.965      859.667
05/29/2014  21:28:00      -73.726       68.855       -8.961       44.606       34.097       26.146     1989.736     1162.608      683.632        0.705        0.192      100.878       24.789        0.060      343.018       18.834      859.679
05/29/2014  21:29:00      -96.905      111.207      -20.716       34.862       44.921       21.856     1215.339     2017.856      477.683        1.295        0.186      147.504       16.917        0.013      343.085       18.949      859.686
05/29/2014  21:30:00      -55.352       71.716       -1.017       44.079       46.606       27.570     1942.935     2172.137      760.087        0.654        0.244       90.592       32.039        0.125      342.943       18.705      859.708
05/29/2014  21:31:00      -53.444       47.272       -2.822       19.199       32.152       16.726      368.598     1033.735      279.771        0.339        0.084       71.351        7.302        0.010      342.887       18.611      859.718
05/29/2014  21:32:00      -73.850       37.463      -15.459       20.854       21.243       14.856      434.879      451.274      220.696        0.410        0.055       82.808        8.573        0.011      342.983       18.774      859.730
05/29/2014  21:33:00      -88.806       65.327      -20.237       23.110       39.761       19.200      534.061     1580.906      368.636        0.752        0.124      110.245       21.411        0.038      342.969       18.750      859.744
05/29/2014  21:34:00      -80.030       71.011      -16.601       34.379       43.879       21.232     1181.927     1925.353      450.786        0.764        0.178      106.993       22.016        0.042      342.986       18.780      859.743
05/29/2014  21:35:00      -89.127      112.618      -15.260       47.000       45.610       31.105     2208.955     2080.297      967.537        1.306        0.263      143.619       30.674        0.046      342.989       18.784      859.760
05/29/2014  21:36:00     -106.016      157.493      -21.458       50.228       61.551       29.903     2522.902     3788.489      894.218        2.185        0.360      189.851       28.972        0.023      342.983       18.772      859.762
05/29/2014  21:37:00      -91.878      139.887      -21.568       38.326       32.297       26.239     1468.912     1043.082      688.489        1.584        0.160      167.361       18.259        0.012      343.033       18.860      859.785
05/29/2014  21:38:00      -46.829      120.069      -10.699       41.681       41.778       27.995     1737.265     1745.399      783.694        1.049        0.213      128.878       22.764        0.031      342.891       18.618      859.783
05/29/2014  21:39:00      -12.871       40.162        9.772       34.335       41.031       21.924     1178.916     1683.561      480.645        0.261        0.167       42.174       18.147        0.185      342.844       18.538      859.790
05/29/2014  21:40:00        6.782       42.312        3.641       24.661       28.515       18.467      608.162      813.085      341.036        0.181        0.088       42.853       14.539        0.115      342.791       18.448      859.809
05/29/2014  21:41:00      -28.336      136.723      -14.964       28.281       56.233       21.695      799.789     3162.158      470.657        1.208        0.222      139.628       21.403        0.023      343.022       18.840      859.816
05/29/2014  21:42:00      -37.405      203.020      -28.911       35.287       48.962       26.691     1245.170     2397.325      712.399        2.390        0.218      206.437       18.777        0.008      343.001       18.802      859.832
05/29/2014  21:43:00      -60.566      136.278      -28.440       66.090       58.770       21.122     4367.923     3453.896      446.137        1.566        0.413      149.130       12.174        0.007      342.966       18.744      859.850
05/29/2014  21:44:00      -84.983      132.263      -13.968       51.180       59.725       36.470     2619.403     3567.114     1330.029        1.621        0.376      157.212       25.868        0.027      342.860       18.565      859.838
05/29/2014  21:45:00       41.283       50.327       31.370       43.614       29.769       33.429     1902.221      886.174     1117.494        0.456        0.195       65.092       26.754        0.169      342.733       18.349      859.870
05/29/2014  21:46:00       21.904        1.142       19.088       29.053       32.273       27.902      844.099     1041.579      778.530        0.175        0.133       21.934       22.262        1.030      342.124       17.313      859.891
05/29/2014  21:47:00       57.044      -68.870      -14.741       30.246       26.954       21.268      914.824      726.538      452.317        0.515        0.105       89.426       13.611        0.023      341.982       17.073      859.887
05/29/2014  21:48:00       49.400      -32.356        7.918       28.489       29.580       20.305      811.617      874.997      412.300        0.282        0.105       59.053       10.704        0.033      342.170       17.393      859.900
05/29/2014  21:49:00       32.154       32.489       -2.872       24.672       22.707       19.390      608.717      515.588      375.974        0.180        0.075       45.710       17.016        0.139      342.470       17.901      859.906
05/29/2014  21:50:00      -14.716       72.245      -16.588       25.438       23.781       17.401      647.084      565.519      302.781        0.361        0.076       73.729       13.655        0.034      342.840       18.531      859.908
05/29/2014  21:51:00      -17.439       87.791      -11.341       13.196       19.156       15.532      174.146      366.939      241.248        0.446        0.039       89.506       10.829        0.015      343.066       18.916      859.929
05/29/2014  21:52:00      -70.020       15.531      -10.557       22.067       20.143       11.107      486.967      405.744      123.362        0.314        0.051       71.722       11.868        0.027      342.785       18.438      859.930
05/29/2014  21:53:00     -140.483       -6.228      -20.432       16.119       10.257        6.612      259.816      105.205       43.721        1.030        0.020      140.621        4.387        0.001      342.780       18.430      859.944
05/29/2014  21:54:00     -122.568      -28.028       -3.944       42.103       23.390       20.652     1772.635      547.077      426.519        0.928        0.137      125.732       22.118        0.031      342.699       18.292      859.945
05/29/2014  21:55:00      -97.947       -1.066       -7.820       34.403       25.743       16.334     1183.546      662.694      266.816        0.588        0.106       97.952       16.372        0.028      342.717       18.323      859.959
05/29/2014  21:56:00      -57.659       10.784       -1.675       24.135       24.520       14.056      582.495      601.221      197.559        0.241        0.069       58.659       13.057        0.050      342.598       18.120      859.982
05/29/2014  21:57:00      -41.717       -7.479       -0.858       26.759       16.683       14.681      716.032      278.336      215.520        0.150        0.060       42.382       13.970        0.109      342.608       18.136      859.993
05/29/2014  21:58:00      -68.564       -5.142        2.647       21.040       22.043       15.237      442.696      485.905      232.158        0.295        0.058       68.757       11.031        0.026      342.572       18.074      860.005
05/29/2014  21:59:00      -54.512      -10.296       -0.782       35.310       30.497       15.905     1246.808      930.048      252.983        0.275        0.121       55.476       18.749        0.114      342.450       17.868      860.017
05/29/2014  22:00:00      -65.381      -50.056       -1.831       38.163       33.605       19.947     1456.429     1129.284      397.901        0.488        0.149       82.342       18.817        0.052      342.580       18.088      860.010
05/29/2014  22:01:00      -60.396      -35.001        1.025       38.932       32.107       19.408     1515.679     1030.853      376.673        0.390        0.146       69.805       11.911        0.029      342.507       17.965      860.023
05/29/2014  22:02:00      -93.197      -32.474       -3.022       15.565       17.329        9.979      242.279      300.307       99.584        0.520        0.032       98.693        7.448        0.006      342.560       18.055      860.033
05/29/2014  22:03:00      -19.768      -19.396        4.381       29.247       19.102       17.536      855.402      364.905      307.497        0.116        0.076       27.695       10.866        0.154      342.377       17.743      860.030
05/29/2014  22:04:00      -88.585      -43.772       -9.589       37.964       24.119       15.068     1441.287      581.709      227.060        0.605        0.113       98.809       11.700        0.014      342.587       18.100      860.017
05/29/2014  22:05:00     -124.957      -45.844      -15.612       15.204       23.728       18.789      231.172      562.997      353.033        0.955        0.057      133.102       12.508        0.009      342.482       17.922      860.014
05/29/2014  22:06:00     -125.983      -28.218      -11.552       18.750       21.928       15.326      351.558      480.826      234.878        0.893        0.053      129.105       11.807        0.008      342.385       17.758      860.011
05/29/2014  22:07:00     -106.654      -26.302       -7.571       21.829       14.555       13.912      476.502      211.846      193.540        0.650        0.044      109.849       11.900        0.012      342.315       17.638      860.019
05/29/2014  22:08:00      -79.142      -16.875       -4.622       38.369       20.440       19.073     1472.201      417.801      363.793        0.441        0.113       80.921       20.165        0.062      342.203       17.447      860.043
05/29/2014  22:09:00      -78.843      -16.501       -3.313       25.588       23.820       14.080      654.731      567.377      198.245        0.396        0.071       80.552       10.292        0.016      342.199       17.442      860.046
05/29/2014  22:10:00      -81.192      -14.023       -1.987       39.926       36.094       18.569     1594.121     1302.765      344.799        0.502        0.162       82.394       16.987        0.043      342.140       17.342      860.062
05/29/2014  22:11:00      -98.112        2.671      -12.993       40.835       28.279       19.188     1667.456      799.679      368.163        0.632        0.142       98.148       20.139        0.042      342.105       17.281      860.084
05/29/2014  22:12:00      -92.461      -16.679       -7.981       46.309       26.848       18.113     2144.541      720.834      328.081        0.604        0.160       93.954       20.034        0.045      342.017       17.131      860.092
05/29/2014  22:13:00      -54.684      -13.949       -0.581       32.646       31.914       21.620     1065.788     1018.534      467.414        0.287        0.128       56.435       18.293        0.105      342.020       17.138      860.102
05/29/2014  22:14:00      -93.561      -36.962       -3.478       23.463       32.801       15.418      550.504     1075.910      237.711        0.600        0.093      100.597       11.956        0.014      342.032       17.158      860.105
05/29/2014  22:15:00      -81.581      -36.003        2.252       27.235       27.749       17.348      741.743      769.998      300.941        0.488        0.091       89.172       12.878        0.021      341.957       17.031      860.122
05/29/2014  22:16:00      -50.465      -36.909        5.377       26.167       21.248       16.218      684.710      451.460      263.021        0.267        0.070       62.522       13.837        0.049      342.033       17.161      860.127
05/29/2014  22:17:00      -51.350      -37.273        3.441       37.425       19.365       17.042     1400.604      375.000      290.421        0.305        0.103       63.451       19.633        0.096      342.136       17.335      860.129
05/29/2014  22:18:00      -89.675      -58.184       -2.964       28.675       23.712       17.109      822.254      562.242      292.715        0.656        0.084      106.897       12.453        0.014      342.064       17.211      860.125
05/29/2014  22:19:00      -94.387      -62.562        2.515       43.032       31.456       23.922     1851.738      989.455      572.281        0.812        0.171      113.238       20.817        0.034      341.937       16.996      860.130
05/29/2014  22:20:00      -94.973      -56.091        4.084       45.000       38.459       25.844     2025.034     1479.087      667.928        0.818        0.209      110.300       25.217        0.052      341.838       16.828      860.126
05/29/2014  22:21:00     -106.758      -74.474       -1.740       40.478       20.633       21.300     1638.501      425.733      453.681        0.973        0.126      130.168       17.482        0.018      341.891       16.917      860.122
05/29/2014  22:22:00      -54.334      -62.650        6.833       51.650       49.275       27.056     2667.712     2428.047      732.011        0.637        0.291       82.929       27.885        0.113      341.818       16.797      860.123
05/29/2014  22:23:00      -94.045     -101.914        4.511       51.461       43.059       31.198     2648.256     1854.065      973.292        1.236        0.274      138.676       30.249        0.048      341.833       16.821      860.124
05/29/2014  22:24:00     -113.405      -89.646       -5.224       50.596       50.472       27.824     2559.969     2547.434      774.156        1.340        0.294      144.558       27.679        0.037      341.918       16.964      860.128
05/29/2014  22:25:00     -109.860      -73.016        1.706       46.105       37.010       25.861     2125.706     1369.707      668.766        1.078        0.208      131.911       28.527        0.047      341.915       16.958      860.127
05/29/2014  22:26:00      -35.656      -57.920       14.033       48.133       41.640       27.265     2316.822     1733.889      743.381        0.481        0.240       68.015       21.771        0.102      341.940       17.002      860.138
05/29/2014  22:27:00      -74.392      -81.851        6.581       39.813       47.007       25.283     1585.079     2209.646      639.221        0.835        0.222      110.606       19.789        0.032      341.890       16.916      860.140
05/29/2014  22:28:00      -91.942      -85.857       -2.696       57.561       46.937       33.060     3313.310     2203.051     1092.940        1.122        0.330      125.796       26.400        0.044      341.852       16.853      860.137
05/29/2014  22:29:00     -123.470      -89.845       -1.142       55.423       37.464       26.579     3071.729     1403.531      706.418        1.425        0.259      152.699       22.175        0.021      341.841       16.833      860.127
05/29/2014  22:30:00     -107.465      -74.945       -7.873       28.402       30.325       19.181      806.661      919.604      367.913        0.966        0.105      131.017       13.528        0.011      341.817       16.793      860.123
05/29/2014  22:31:00     -100.448      -84.525       -3.930       42.229       33.661       23.722     1783.252     1133.051      562.719        1.036        0.174      131.279       23.678        0.033      341.836       16.825      860.134
05/29/2014  22:32:00      -29.726      -27.600       13.290       52.040       28.067       18.006     2708.119      787.772      324.208        0.282        0.191       40.563       21.528        0.282      341.640       16.494      860.131
05/29/2014  22:33:00      -73.093      -32.862        5.403       34.212       28.038       15.240     1170.464      786.141      232.256        0.432        0.109       80.140       16.125        0.040      341.733       16.651      860.124
05/29/2014  22:34:00      -48.511      -24.129        2.674       45.635       24.112       17.645     2082.563      581.395      311.342        0.296        0.149       54.180       15.381        0.081      341.714       16.618      860.118
05/29/2014  22:35:00      -55.829      -39.628        0.790       35.243       25.109       14.749     1242.056      630.471      217.534        0.339        0.105       68.463       13.588        0.039      341.698       16.590      860.122
05/29/2014  22:36:00      -60.836      -33.371        1.417       21.597       20.395       13.462      466.448      415.950      181.216        0.294        0.053       69.388       11.879        0.029      341.701       16.597      860.123
05/29/2014  22:37:00      -87.770      -33.800      -12.500       24.372       21.836       10.298      593.998      476.826      106.043        0.509        0.059       94.053        3.235        0.001      341.742       16.666      860.112
05/29/2014  22:38:00     -125.261      -50.279       -8.076       23.953       25.559       14.732      573.765      653.269      217.046        0.986        0.072      134.976       13.823        0.010      341.655       16.518      860.112
05/29/2014  22:39:00     -122.596      -39.945       -5.241       28.330       25.282       16.389      802.576      639.199      268.611        0.918        0.086      128.940       13.839        0.012      341.612       16.444      860.121
05/29/2014  22:40:00     -134.450      -57.814      -10.035       30.727       22.886       16.642      944.147      523.777      276.953        1.163        0.087      146.353       14.136        0.009      341.565       16.365      860.106
05/29/2014  22:41:00      -98.470      -64.999       -8.907       28.829       23.215       16.474      831.098      538.936      271.390        0.782        0.082      117.988       12.555        0.011      341.570       16.374      860.109
05/29/2014  22:42:00     -100.534      -54.488      -11.556       27.948       23.599       21.550      781.088      556.908      464.404        0.751        0.090      114.351        9.289        0.007      341.595       16.416      860.118
05/29/2014  22:43:00      -95.407      -67.287       -2.099       37.076       29.383       18.035     1374.649      863.345      325.245        0.810        0.128      116.748        9.382        0.006      341.565       16.366      860.116
05/29/2014  22:44:00     -117.340      -68.087       -1.824       27.370       22.153       17.525      749.092      490.754      307.123        0.998        0.077      135.663       11.986        0.008      341.416       16.112      860.108
05/29/2014  22:45:00      -97.032      -52.418       -2.972       28.283       25.530       20.817      799.912      651.804      433.359        0.703        0.094      110.285       18.213        0.027      341.369       16.033      860.114
05/29/2014  22:46:00      -78.861      -47.129       -0.732       24.356       27.358       13.951      593.207      748.469      194.618        0.499        0.077       91.870       10.250        0.012      341.360       16.019      860.103
05/29/2014  22:47:00      -86.589      -20.446       -1.279       32.444       21.154       14.630     1052.616      447.509      214.051        0.482        0.086       88.971       15.035        0.029      341.414       16.110      860.098
05/29/2014  22:48:00      -81.644       -3.380       -6.133       28.743       18.714       15.303      826.166      350.216      234.184        0.406        0.071       81.714       14.035        0.030      341.431       16.138      860.101
05/29/2014  22:49:00      -63.553       20.056       -8.055       38.183       24.079       15.793     1457.976      579.814      249.434        0.340        0.114       66.643       17.925        0.072      341.459       16.187      860.089
05/29/2014  22:50:00      -81.146       -3.444      -14.560       30.071       29.409       20.843      904.294      864.879      434.430        0.451        0.110       81.219       15.735        0.038      341.698       16.592      860.084
05/29/2014  22:51:00      -92.064        2.122      -20.160       27.418       22.876       19.158      751.769      523.308      367.048        0.526        0.082       92.088       15.341        0.028      341.780       16.732      860.082
05/29/2014  22:52:00      -80.714        4.371      -11.345       35.952       28.536       22.563     1292.545      814.330      509.083        0.464        0.131       80.832       21.177        0.069      341.786       16.740      860.076
05/29/2014  22:53:00     -140.563       10.106      -17.784       30.064       26.403       20.464      903.841      697.093      418.765        1.110        0.101      140.925        9.601        0.005      341.661       16.528      860.064
05/29/2014  22:54:00     -139.809       27.591       -9.726       38.278       34.268       21.575     1465.222     1174.330      465.496        1.175        0.155      142.506       18.432        0.017      341.660       16.527      860.073
05/29/2014  22:55:00     -145.526      -14.788      -12.457       32.722       26.499       17.628     1070.735      702.197      310.734        1.182        0.104      146.276       19.057        0.017      341.712       16.615      860.069
05/29/2014  22:56:00     -127.630      -34.645       -3.918       33.781       26.898       22.200     1141.178      723.525      492.853        0.993        0.118      132.248       21.486        0.026      341.654       16.518      860.059
05/29/2014  22:57:00     -116.395      -27.709      -11.443       22.990       27.238       18.764      528.518      741.926      352.094        0.803        0.081      119.647       14.123        0.014      341.654       16.517      860.047
05/29/2014  22:58:00     -106.249       -7.966      -14.782       19.305       14.148       10.597      372.674      200.174      112.292        0.613        0.034      106.547        9.770        0.008      341.601       16.427      860.045
05/29/2014  22:59:00     -144.260      -11.665      -19.755       14.245       10.128        9.279      202.927      102.579       86.108        1.086        0.020      144.731        7.563        0.003      341.564       16.362      860.037
05/29/2014  23:00:00     -129.953      -27.124      -12.268       17.983       16.360       13.795      323.388      267.636      190.312        0.928        0.039      132.753       12.041        0.008      341.527       16.302      860.022
05/29/2014  23:01:00     -133.564      -22.260       -3.961       33.833       33.969       22.072     1144.691     1153.893      487.154        1.057        0.139      135.406       23.233        0.029      341.485       16.229      860.011
05/29/2014  23:02:00     -117.992      -65.434       -3.683       43.031       27.827       20.002     1851.698      774.317      400.081        1.062        0.151      134.921       19.635        0.021      341.544       16.330      860.007
05/29/2014  23:03:00     -109.824      -47.551      -10.678       33.357       26.569       20.807     1112.718      705.892      432.939        0.834        0.113      119.676        8.243        0.005      341.532       16.309      860.016
05/29/2014  23:04:00     -101.893      -32.193       -2.083       18.931       24.623       17.160      358.384      606.293      294.481        0.634        0.063      106.858       10.144        0.009      341.476       16.214      860.019
05/29/2014  23:05:00      -90.793      -22.655       -3.629       21.937       33.734       17.793      481.253     1137.989      316.604        0.535        0.097       93.576       13.032        0.019      341.535       16.315      860.012
05/29/2014  23:06:00      -93.846      -48.716       -5.122       31.624       26.340       17.685     1000.076      693.814      312.746        0.661        0.100      105.737       15.508        0.022      341.574       16.379      860.011
05/29/2014  23:07:00     -111.572      -41.521       -0.292       33.491       30.212       16.683     1121.633      912.786      278.331        0.824        0.116      119.047       15.789        0.018      341.536       16.316      859.992
05/29/2014  23:08:00     -124.045      -46.879      -12.635       25.160       26.389       15.741      633.017      696.369      247.774        0.966        0.079      132.607       11.050        0.007      341.547       16.334      859.982
05/29/2014  23:09:00      -89.785      -37.190       -1.698       32.726       27.125       22.311     1070.992      735.741      497.769        0.588        0.115       97.182       17.154        0.031      341.490       16.240      859.983
05/29/2014  23:10:00      -87.427      -43.178        3.417       58.462       30.385       20.880     3417.753      923.244      435.982        0.715        0.239       97.508       18.984        0.038      341.416       16.113      859.983
05/29/2014  23:11:00      -73.771      -51.730        1.609       65.256       42.972       24.420     4258.289     1846.594      596.352        0.741        0.335       90.101       31.022        0.119      341.424       16.127      859.976
05/29/2014  23:12:00      -92.215      -29.825      -11.785       33.274       25.467       19.164     1107.184      648.587      367.253        0.583        0.106       96.918        8.049        0.007      341.599       16.424      859.974
05/29/2014  23:13:00      -23.225      -45.283        9.854       37.878       30.431       21.428     1434.744      926.025      459.145        0.275        0.141       50.892       22.748        0.200      341.442       16.157      859.981
05/29/2014  23:14:00      -48.736      -41.942        4.471       40.867       27.915       19.763     1670.110      779.221      390.579        0.350        0.142       64.299       22.238        0.120      341.506       16.266      859.989
05/29/2014  23:15:00      -75.518      -43.761        6.345       43.410       35.486       26.599     1884.391     1259.239      707.480        0.575        0.193       87.281       25.715        0.087      341.482       16.225      859.981
05/29/2014  23:16:00      -75.342      -56.637        9.793       54.126       43.321       30.082     2929.668     1876.716      904.908        0.734        0.286       94.255       30.885        0.107      341.420       16.119      859.967
05/29/2014  23:17:00     -106.046      -79.530       -1.188       63.723       50.022       27.591     4060.608     2502.153      761.238        1.245        0.366      132.555       29.608        0.050      341.443       16.159      859.963
05/29/2014  23:18:00      -90.563      -73.607       12.069       45.244       52.121       32.874     2047.056     2716.615     1080.685        0.980        0.292      116.703       32.124        0.076      341.400       16.086      859.965
05/29/2014  23:19:00      -88.404      -78.734        0.158       50.330       46.266       28.178     2533.078     2140.520      794.018        0.974        0.273      118.382       26.606        0.051      341.455       16.178      859.960
05/29/2014  23:20:00      -91.929      -63.940        7.464       70.837       51.067       33.559     5017.914     2607.823     1126.225        1.067        0.438      111.979       34.678        0.096      341.328       15.964      859.955
05/29/2014  23:21:00     -116.859      -52.331        0.451       48.965       36.109       21.538     2397.569     1303.847      463.874        1.028        0.208      128.042       21.403        0.028      341.260       15.847      859.968
05/29/2014  23:22:00      -97.765      -83.552        0.362       43.416       34.761       26.097     1884.939     1208.306      681.029        1.016        0.189      128.604       26.812        0.043      341.238       15.812      859.970
05/29/2014  23:23:00     -129.812      -92.895       -6.492       25.866       25.661       21.004      669.028      658.498      441.180        1.365        0.088      159.627       14.540        0.008      341.229       15.798      859.959
05/29/2014  23:24:00      -43.430      -48.895       15.908       52.723       34.631       26.104     2779.704     1199.278      681.396        0.459        0.233       65.398       29.931        0.209      341.167       15.692      859.946
05/29/2014  23:25:00      -79.739      -62.447        2.946       40.338       32.001       25.198     1627.186     1024.096      634.955        0.678        0.164      101.282       20.415        0.041      341.223       15.787      859.944
05/29/2014  23:26:00      -91.622      -83.176       -9.800       36.114       25.858       21.621     1304.244      668.659      467.449        0.892        0.122      123.745       20.475        0.027      341.162       15.683      859.935
05/29/2014  23:27:00      -76.504      -79.450       -7.289       40.499       27.112       21.304     1640.186      735.084      453.849        0.752        0.141      110.296       21.089        0.037      341.157       15.675      859.924
05/29/2014  23:28:00      -38.224      -50.219        9.334       50.344       38.652       26.045     2534.472     1494.010      678.367        0.439        0.235       63.111       24.199        0.147      341.033       15.465      859.927
05/29/2014  23:29:00      -98.168      -69.586       -9.709       33.651       33.551       26.118     1132.396     1125.673      682.160        0.876        0.147      120.330       16.548        0.019      340.989       15.388      859.935
05/29/2014  23:30:00      -68.992      -48.411        2.608       54.926       35.537       25.067     3016.868     1262.897      628.369        0.601        0.245       84.282       30.402        0.130      340.925       15.281      859.922
05/29/2014  23:31:00     -149.385      -81.812       -6.857       55.834       50.781       29.357     3117.404     2578.715      861.837        1.781        0.328      170.320       28.697        0.028      340.932       15.293      859.917
05/29/2014  23:32:00     -126.987      -75.748        6.959       56.770       44.384       24.100     3222.776     1969.932      580.805        1.384        0.289      147.863       27.333        0.034      340.911       15.258      859.923
05/29/2014  23:33:00     -120.122      -72.869        3.134       51.472       37.158       26.601     2649.334     1380.751      707.615        1.224        0.237      140.496       26.174        0.035      340.852       15.160      859.911
05/29/2014  23:34:00     -119.754      -79.564        4.020       46.743       36.576       24.407     2184.914     1337.778      595.678        1.240        0.206      143.776       21.738        0.023      340.785       15.044      859.900
05/29/2014  23:35:00     -121.474      -96.292       -0.754       44.164       43.565       25.647     1950.481     1897.915      657.748        1.427        0.225      155.010       29.607        0.036      340.762       15.005      859.899
05/29/2014  23:36:00     -128.927     -109.346       -2.239       52.464       49.065       25.119     2752.448     2407.365      630.961        1.719        0.290      169.053       23.663        0.020      340.720       14.936      859.889
05/29/2014  23:37:00     -143.911      -92.971       -2.586       56.302       54.206       30.535     3169.886     2938.257      932.407        1.820        0.352      171.330       26.909        0.025      340.724       14.942      859.882
05/29/2014  23:38:00     -140.116     -103.018        1.113       45.095       69.487       30.235     2033.592     4828.387      914.170        1.901        0.389      173.911       25.725        0.022      340.705       14.909      859.872
05/29/2014  23:39:00     -167.284      -74.246       -1.264       59.678       36.227       31.413     3561.483     1312.373      986.786        1.968        0.293      183.020       23.323        0.016      340.760       15.001      859.873
05/29/2014  23:40:00     -139.897      -97.708        8.083       58.217       45.305       31.662     3389.208     2052.507     1002.455        1.781        0.322      170.640       32.496        0.036      340.783       15.041      859.862
05/29/2014  23:41:00     -205.143     -114.458        0.625       37.892       35.174       28.299     1435.820     1237.213      800.850        2.933        0.174      234.913       26.042        0.012      340.878       15.199      859.849
05/29/2014  23:42:00     -100.157      -62.439       10.978       73.298       53.856       35.809     5372.543     2900.480     1282.298        1.180        0.478      118.026       36.284        0.095      340.775       15.028      859.852
05/29/2014  23:43:00      -76.498      -95.671        2.916       52.421       40.635       29.119     2747.962     1651.188      847.939        1.013        0.262      122.495       34.867        0.081      340.848       15.150      859.851
05/29/2014  23:44:00      -30.326      -61.777        7.025       51.183       31.639       28.833     2619.708     1001.015      831.335        0.462        0.223       68.819       27.581        0.161      340.811       15.090      859.849
05/29/2014  23:45:00      -52.737      -78.636       12.641       46.381       44.709       32.889     2151.239     1998.895     1081.681        0.718        0.262       94.683       31.957        0.114      340.770       15.020      859.841
05/29/2014  23:46:00      -83.233      -83.285        4.604       37.388       40.790       27.887     1397.874     1663.809      777.679        0.886        0.192      117.747       22.761        0.037      340.735       14.961      859.848
05/29/2014  23:47:00      -69.506      -81.560        4.553       44.297       44.701       23.759     1962.226     1998.187      564.494        0.801        0.226      107.160       20.599        0.037      340.666       14.844      859.843
05/29/2014  23:48:00     -101.730      -90.514        1.498       46.583       35.898       24.581     2169.997     1288.697      604.206        1.130        0.203      136.168       22.085        0.026      340.692       14.889      859.832
05/29/2014  23:49:00      -73.699      -93.904        8.074       35.051       39.668       30.890     1228.585     1573.565      954.176        0.903        0.188      119.371       24.800        0.043      340.654       14.825      859.834
05/29/2014  23:50:00      -91.227      -58.943        7.410       84.125       47.467       34.144     7077.087     2253.131     1165.796        1.117        0.525      108.612       42.831        0.156      340.661       14.835      859.829
05/29/2014  23:51:00     -105.759      -90.068        9.816       59.751       57.182       31.452     3570.240     3269.735      989.227        1.361        0.391      138.914       34.823        0.063      340.603       14.738      859.821
05/29/2014  23:52:00     -137.450     -127.220       -4.303       43.103       37.515       27.814     1857.872     1407.399      773.595        1.957        0.202      187.289       25.802        0.019      340.561       14.667      859.812
05/29/2014  23:53:00     -124.345     -104.774       -8.663       44.494       47.622       23.249     1979.677     2267.844      540.535        1.565        0.239      162.602       24.382        0.022      340.527       14.608      859.809
05/29/2014  23:54:00     -143.325     -126.384      -17.166       45.792       36.939       27.804     2096.946     1364.519      773.078        2.052        0.212      191.089       22.892        0.014      340.527       14.609      859.801
05/29/2014  23:55:00     -139.633     -128.281      -12.515       32.751       28.256       21.220     1072.643      798.406      450.308        1.922        0.116      189.614       14.099        0.006      340.482       14.531      859.793
05/29/2014  23:56:00     -134.478     -103.223      -12.424       41.393       47.306       19.796     1713.372     2237.879      391.877        1.662        0.217      169.526       21.016        0.015      340.450       14.478      859.777
05/29/2014  23:57:00     -131.087      -66.194       -2.675       47.899       36.015       25.876     2294.357     1297.062      669.546        1.292        0.213      146.852       27.588        0.035      340.448       14.473      859.770
05/29/2014  23:58:00     -137.608      -77.139       -8.414       42.108       32.158       24.586     1773.046     1034.114      604.490        1.418        0.171      157.754       22.202        0.020      340.499       14.560      859.774
05/29/2014  23:59:00      -77.946      -76.136        1.666       55.301       45.119       22.651     3058.230     2035.763      513.061        0.874        0.280      108.960       26.455        0.059      340.523       14.604      859.767
